     2              OBSERVATION DATA    GPS                 RINEX VERSION / TYPE
teqc 1999Jul19 19991123 03:21:04UTC                         PGM / RUN BY / DATE
                                                            COMMENT
Original Marker Name: LOMA                                  COMMENT
Campaign Name: HPGN 1991                                    COMMENT
4-Character Station Name: LOMA                              COMMENT
6-Character Antenna Code: TRMSST                            COMMENT
Vertical Measurement Point: BPA                             COMMENT
Vertical Offset to Rinex Ref. Point: 0.0000                 COMMENT
Radial Measurement Point: RRP                               COMMENT
Radial Offset to Rinex Ref. Point: 0.0000                   COMMENT
Antenna Height from Field Measurement: 2.2200 m             COMMENT
Original XYZ: -2687369.1489 -4326824.2865 3827901.1375      COMMENT
New XYZ position is based on association with SCEC monument COMMENT
E1F6T8Y3+0011. Position of that monument is believed to be  COMMENT
valid to within 1 m horizontally; vertical accuracy         COMMENT
should be no worse than 3-times this value.                 COMMENT
                                                            COMMENT
Revised Rinex header created by UCSD GPS archive for        COMMENT
GSAC on 11-Feb-2000 (2000:042) 01:16:17 GMT                 COMMENT
For assistance contact dagnew@ucsd.edu or hjohnson@ucsd.edu COMMENT
                                                            COMMENT
LOMA PRIETA RESET                                           MARKER NAME
LOMA                                                        MARKER NUMBER
-Unknown- CALIF DEPT TRANSPORTATION                         OBSERVER / AGENCY
621 TRIMBLE 4000 SST NP 4.30 / SP 4.20                      REC # / TYPE / VERS
9 TR 4000SST L1/L2 GEO                                      ANT # / TYPE
  6378137.0000        0.0000       -0.0000                  APPROX POSITION XYZ
        2.2200        0.0000        0.0000                  ANTENNA: DELTA H/E/N
     1     1     0                                          WAVELENGTH FACT L1/2
     5    C1    L1    L2    S1    S2                        # / TYPES OF OBSERV
     0                                                      INTERVAL
  1991     5    15    18    12   45.000000                  TIME OF FIRST OBS
  1991     5    16     0    19   45.000000                  TIME OF LAST OBS
                                                            END OF HEADER
 91  5 15 18 12 45.0000000  0  4G19G18G 2G11
  20733600.656          -0.23017                        22.250
  20615689.359          -0.12217                        25.750
  24237220.617          -0.90916                        12.000
  24427649.852          -0.20514                         6.250
 91  5 15 18 13  0.0000000  0  4G19G18G 2G11
  20731215.461      -12546.755 7        -0.02831        20.750           0.375
  20616953.594        6635.707 7                        26.000
  24225685.625      -60573.342 5                        10.750
  24418495.844      -48123.152 4                         7.250
 91  5 15 18 13 15.0000000  0  4G19G18G 2G11
  20728835.859      -25031.474 7     -9728.37721        22.250           1.063
  20618236.969       13386.343 7                        26.500
  24214176.414     -121104.909 5                        11.750
  24409355.508      -96172.160 4                         7.250
 91  5 15 18 13 30.0000000  0  4G19G18G 2G11
  20726475.672      -37450.601 6                        16.250
  20619543.063       20255.461 7                        21.250
  24202662.672     -181591.437 5                         8.250
  24400228.125     -144142.921 3                         5.500
 91  5 15 18 13 45.0000000  0  4G19G18G 2G11
  20724121.883      -49802.007 7                        21.500
  20620873.852       27245.255 7                        25.500
  24191159.938     -242030.743 5                        10.000
  24391112.773     -192032.777 3                         6.000
 91  5 15 18 14  0.0000000  0  4G19G18G 2G11
  20721788.352      -62095.897 7                        21.000
  20622223.922       34345.464 7                        27.000
  24179670.281     -302432.673 5                        11.250
  24382017.406     -239851.615 5                         8.000
 91  5 15 18 14 15.0000000  0  4G19G18G 2G11
  20719454.969      -74330.471 7        -0.18131        21.750           1.031
  20623596.406       41557.996 7        -0.41732        26.750           1.500
  24168185.641     -362795.208 6        -0.18231        12.000           0.188
  24372928.836     -287597.157 5                         9.250
 91  5 15 18 14 30.0000000  0  4G19G18G 2G11
  20717138.984      -86503.918 7     -9486.00722        20.000           1.719
  20624992.125       48884.585 8      5708.59823        28.000           2.500
  24156699.727     -423116.078 5    -47003.31221        10.000           0.438
  24363855.438     -335267.160 5        -0.01331         9.000           0.031
 91  5 15 18 14 45.0000000  0  4G19G18G 2G11
  20714835.930      -98609.930 7    -18919.29221        20.250           0.656
  20626410.328       56331.758 7     11511.56521        26.250           1.031
  24145232.164     -483388.734 5    -93968.90921         8.750           0.125
  24354799.945     -382854.762 5    -37080.99821         8.250           0.125
 91  5 15 18 15  0.0000000  0  4G19G18G 2G11
  20712548.141     -110650.266 7    -28301.35421        22.250           1.250
  20627848.711       63897.473 7     17406.93222        26.500           2.313
  24133771.422     -543614.708 5   -140898.07721        10.250           0.313
  24345759.750     -430361.311 5    -74099.00121         8.750           0.063
 91  5 15 18 15 15.0000000  0  4G19G18G 2G11
  20710265.219     -122622.253 7    -37630.17121        22.250           1.313
  20629313.406       71584.748 7     23397.00122        27.250           2.438
  24122322.148     -603791.270 5   -187788.77521        11.000           0.313
  24336740.234     -477783.814 5   -111051.47421         9.000           0.125
 91  5 15 18 15 30.0000000  0  4G19G18G 2G11
  20708002.586     -134528.330 6    -46907.63621        19.750           1.219
  20630798.508       79391.029 8     29479.80522        28.000           2.344
  24110883.922     -663920.530 5   -234642.60421        11.500           0.344
  24327733.172     -525124.072 5   -147939.84721         8.750           0.156
 91  5 15 18 15 45.0000000  0  4G19G18G 2G11
  20705746.180     -146366.652 5                        11.250
  20632306.938       87318.344 6                        14.000
  24099445.992     -724000.343 3                         5.500
  24318733.383     -572379.758 2                         3.750
 91  5 15 18 16  0.0000000  0  4G19G18G 2G11
  20703507.539     -158147.189 5                        10.000
  20633835.945       95356.690 6                        13.000
  24088023.188     -784040.505 3                         5.250
  24309761.570     -619560.517 2                         3.750
 91  5 15 18 16 15.0000000  0  4G19G18G 2G11
  20701280.563     -169857.007 7                        20.500
  20635389.813      103519.174 7                        26.500
  24076608.016     -844027.804 5                         9.250
  24300800.633     -666652.754 5                         8.500
 91  5 15 18 16 30.0000000  0  4G19G18G 2G11
  20699062.984     -181501.429 7                        20.750
  20636964.828      111800.470 7                        26.750
  24065196.906     -903967.420 5                         9.250
  24291846.367     -713661.483 4                         7.250
 91  5 15 18 16 45.0000000  0  4G19G18G 2G11
  20696856.016     -193081.902 7                        22.250
  20638562.695      120198.913 7                        26.000
  24053788.555     -963860.481 5                         7.500
  24282918.828     -760587.737 5                         8.000
 91  5 15 18 17  0.0000000  0  4G19G18G 2G11
  20694668.609     -204599.960 7        -0.44132        23.000           1.719
  20640182.719      128713.192 7        -0.44133        25.000           2.500
  24042405.156    -1023708.331 4                         7.250
  24274007.680     -807432.674 5                         9.500
 91  5 15 18 17 15.0000000  0  4G19G18G 2G11
  20692488.523     -216052.033 7     -8924.13121        24.250           1.250
  20641824.453      137346.983 7      6727.17522        23.250           1.938
  24031024.906    -1083506.968 4        -0.02131         7.250           0.469
  24265103.203     -854192.099 5                         8.000
 91  5 15 18 17 30.0000000  0  4G19G18G 2G11
  20690322.852     -227436.540 7    -17795.17921        22.500           1.281
  20643488.930      146101.716 7     13549.02022        23.250           1.719
  24019650.344    -1143254.579 4    -46556.48021         7.000           0.375
  24256230.023     -900864.062 5        -0.45931         9.750           0.281
 91  5 15 18 17 45.0000000  0  4G19G18G 2G11
  20688163.430     -238756.666 7    -26616.06821        23.250           1.250
  20645180.141      154974.482 7     20462.83922        25.000           1.656
  24008289.977    -1202953.994 4    -93075.35121         6.750           0.438
  24247363.914     -947451.211 5    -36302.04921         8.750           0.313
 91  5 15 18 18  0.0000000  0  4G19G18G 2G11
  20686028.266     -250007.239 7    -35382.75421        22.250           0.438
  20646894.289      163970.345 7     27472.58021        24.250           0.688
  23996943.016    -1262599.877 5   -139552.56521         7.500           0.219
  24238519.719     -993947.883 5    -72533.14521         8.000           0.031
 91  5 15 18 18 15.0000000  0  4G19G18G 2G11
  20683896.781     -261191.599 7    -44097.83321        23.500           1.156
  20648627.547      173085.889 7     34575.59422        24.750           1.781
  23985609.547    -1322195.506 5   -185990.56721        10.000           0.313
  24229682.695    -1040357.122 5   -108696.11421         8.000           0.125
 91  5 15 18 18 30.0000000  0  4G19G18G 2G11
  20681787.047     -272311.565 6    -52762.72221        19.750           0.031
  20650384.313      182319.174 7     41770.35421        25.500           0.094
  23974281.523    -1381742.471 5   -232390.66921        10.750           0.031
  24220866.883    -1086680.440 5   -144792.04821         7.500           0.094
 91  5 15 18 18 45.0000000  0  4G19G18G 2G11
  20679674.508     -283365.986 6    -61376.57321        19.500           0.500
  20652164.250      191671.706 7     49058.00821        26.000           0.906
  23962957.391    -1441239.212 5   -278751.62821        10.250           0.125
  24212066.758    -1132916.097 5   -180819.76221         8.750           0.094
 91  5 15 18 19  0.0000000  0  4G19G18G 2G11
  20677589.844     -294352.815 6    -69937.78221        19.500           0.375
  20653967.359      201145.327 7     56440.00121        25.750           0.750
  23951642.680    -1500683.443 5   -325071.67921         9.500           0.125
  24203282.156    -1179061.598 5                         8.500
 91  5 15 18 19 15.0000000  0  4G19G18G 2G11
  20675508.844     -305275.459 7    -78448.90521        22.000           0.594
  20655791.984      210736.808 7     63913.86721        25.500           0.813
  23940336.266    -1560078.313 5   -371353.22821         8.750           0.094
  24194519.930    -1225119.869 5                         9.500
 91  5 15 18 19 30.0000000  0  4G19G18G 2G11
  20673445.375     -316131.564 6    -86908.19521        17.000           0.156
  20657639.859      220448.493 7     71481.36821        23.250           0.250
  23929042.906    -1619421.280 5                         7.750
  24185771.422    -1271088.161 5        -0.00231         8.000           0.125
 91  5 15 18 19 45.0000000  0  4G19G18G 2G11
  20671386.125     -326926.603 7    -95319.90021        20.000           1.313
  20659510.734      230275.034 8     79138.40922        28.750           1.844
  23917768.164    -1678717.482 5                        10.250
  24177041.633    -1316971.474 5    -35753.09121         9.000           0.375
 91  5 15 18 20  0.0000000  0  4G19G18G 2G11
  20669347.914     -337653.817 7   -103678.78821        21.250           1.344
  20661403.828      240222.941 8     86889.97922        28.000           1.719
  23906494.984    -1737959.993 5                        10.500
  24168332.727    -1362762.520 5    -71434.34821        10.250           0.531
 91  5 15 18 20 15.0000000  0  4G19G18G 2G11
  20667317.945     -348315.567 7                        21.500
  20663317.438      250290.380 7     94734.69521        25.750           0.094
  23895228.828    -1797150.765 5                         9.750
  24159636.352    -1408463.115 5   -107045.20021         9.250           0.094
 91  5 15 18 20 30.0000000  0  5G19G16G18G 2G11
  20665306.703     -358906.137 7                        20.000
  24256258.656          -0.54415                         9.250
  20665258.188      260482.592 7    102676.64921        26.000           1.313
  23883975.766    -1856283.934 5                        10.500
  24150958.313    -1454067.389 5   -142580.84321         9.500           0.250
 91  5 15 18 20 45.0000000  0  5G19G16G18G 2G11
  20663297.563     -369438.497 7                        21.250
  24247787.742      -44558.604 5                         9.750
  20667218.367      270786.651 7    110705.76421        26.500           1.375
  23872727.430    -1915372.539 5                         9.750
  24142296.203    -1499587.816 5   -178051.24521        10.750           0.281
 91  5 15 18 21  0.0000000  0  5G19G16G18G 2G11
  20661309.086     -379907.411 7        -0.16031        20.750           1.094
  24239315.688      -89001.660 5                         8.250
  20669201.945      281207.869 7    118826.16121        24.250           1.094
  23861490.219    -1974410.810 5                         8.000
  24133647.211    -1545018.558 5   -213451.72221         9.750           0.219
 91  5 15 18 21 15.0000000  0  5G19G16G18G 2G11
  20659327.555     -390314.640 7     -8109.68921        24.250           1.344
  24230887.859     -133331.482 5                         8.250
  20671207.328      291744.627 7    127036.59022        24.750           1.938
  23850268.680    -2033400.394 5                        10.000
  24125016.516    -1590361.048 5   -248783.43821        10.750           0.281
 91  5 15 18 21 30.0000000  0  5G19G16G18G 2G11
  20657362.328     -400653.674 7    -16166.06821        22.000           1.219
  24222466.039     -177541.272 5                         8.000
  20673236.477      302403.534 7    135342.22122        25.000           1.844
  23839057.508    -2092334.389 5                        11.000
  24116406.758    -1635608.271 5   -284040.92221        10.750           0.406
 91  5 15 18 21 45.0000000  0  5G19G16G18G 2G11
  20655399.977     -410929.041 7                        20.000
  24214093.133     -221635.187 5                         8.000
  20675287.148      313179.772 7                        24.750
  23827849.195    -2151217.256 5                        10.000
  24107814.148    -1680764.476 5                        11.000
 91  5 15 18 22  0.0000000  0  5G19G16G18G 2G11
  20653464.469     -421139.319 6                        18.500
  24205692.852     -265611.392 3                         6.000
  20677359.156      324074.907 7                        26.000
  23816656.906    -2210047.192 5                        10.250
  24099236.570    -1725827.675 5                        10.000
 91  5 15 18 22 15.0000000  0  5G19G16G18G 2G11
  20651530.445     -431284.412 6        -0.19931        19.500           0.594
  24197356.570     -309469.245 3                         6.000
  20679456.305      335088.917 7        -0.24031        24.750           0.875
  23805473.172    -2268823.857 5                        10.000
  24090679.961    -1770797.324 5                         8.750
 91  5 15 18 22 30.0000000  0  5G19G16G18G 2G11
  20649616.367     -441365.213 6     -7855.36021        18.250           0.688
  24189029.375     -353209.628 3        -0.09731         5.750           0.156
  20681574.484      346221.126 7      8674.17321        25.500           0.969
  23794300.164    -2327548.129 5                        10.500
  24082141.195    -1815673.806 5        -0.43331         8.750           0.250
 91  5 15 18 22 45.0000000  0  5G19G16G18G 2G11
  20647707.109     -451379.705 7    -15658.85221        21.000           1.406
  24180726.359     -396830.283 4    -33990.17621         6.500           0.281
  20683716.773      357473.478 8     17442.21922        28.000           1.969
  23783129.469    -2386217.869 5                        11.000
  24073622.992    -1860454.902 5    -34894.71621        10.000           0.469
 91  5 15 18 23  0.0000000  0  5G19G16G18G 2G11
  20645816.273     -461332.427 6    -23414.23021        19.250           1.406
  24172452.375     -440335.504 4    -67890.31521         7.000           0.281
  20685879.219      368841.443 8     26300.33122        29.250           2.031
  23771979.086    -2444837.096 5        -0.16831        11.500           0.563
  24065110.836    -1905144.571 5    -69717.78121         8.500           0.500
 91  5 15 18 23 15.0000000  0  5G19G16G18G 2G11
  20643930.156     -471224.269 7    -31122.16321        21.750           1.469
  24164198.398     -483725.824 5   -101700.90221         7.750           0.219
  20688063.398      380324.110 8     35247.82722        28.500           2.219
  23760831.211    -2503406.395 5    -45638.47821        10.250           0.656
  24056628.766    -1949743.391 5   -104470.03921         9.250           0.656
 91  5 15 18 23 30.0000000  0  5G19G16G18G 2G11
  20642062.469     -481048.923 7    -38777.73922        20.500           1.500
  24155970.781     -526994.268 5   -135416.55921         9.000           0.281
  20690272.945      391928.011 8     44289.80022        28.750           2.406
  23749692.344    -2561919.142 5    -91232.69321         9.250           0.531
  24048159.633    -1994244.452 5   -139146.15721        10.250           0.656
 91  5 15 18 23 45.0000000  0  5G19G16G18G 2G11
  20640202.109     -490811.502 6    -46384.96721        14.250           0.688
  24147764.000     -570146.045 4   -169041.28221         6.500           0.125
  20692502.563      403647.924 6     53422.15521        18.750           0.875
  23738573.438    -2620380.063 5   -136786.53621         7.500           0.219
  24039713.008    -2038652.465 5   -173749.71321         8.000           0.219
 91  5 15 18 24  0.0000000  0  5G19G16G18G 2G11
  20638359.188     -500514.416 6    -53945.67721        17.750           0.563
  24139571.516     -613183.092 5                         9.750
  20694753.781      415481.385 7     62643.01721        25.250           0.781
  23727460.578    -2678791.460 5   -182301.75921        11.750           0.219
  24031275.336    -2082969.366 5   -208282.29421        11.750           0.219
 91  5 15 18 24 15.0000000  0  5G19G16G18G 2G11
  20636521.164     -510153.928 7    -61456.99721        20.500           0.781
  24131400.914     -656101.432 5                         9.750
  20697027.836      427432.000 7     71955.15921        24.000           1.094
  23716351.156    -2737149.546 5   -227775.44521        11.750           0.281
  24022860.000    -2127191.038 5   -242740.64921        11.250           0.250
 91  5 15 18 24 30.0000000  0  5G19G16G18G 2G11
  20634701.719     -519733.261 7    -68921.41321        21.000           1.344
  24123265.867     -698903.938 5                        10.750
  20699324.031      439496.640 7     81356.16922        24.750           1.750
  23705257.445    -2795457.382 6   -273210.01121        13.750           0.594
  24014459.805    -2171320.298 5   -277126.99921        11.250           0.250
 91  5 15 18 24 45.0000000  0  5G19G16G18G 2G11
  20632885.984     -529249.032 7    -76336.30021        21.250           1.344
  24115144.125     -741587.149 5        -0.10431        10.750           0.219
  20701641.273      451678.576 7     90848.55022        24.500           1.563
  23694172.617    -2853711.382 6   -318602.59621        13.750           0.438
  24006081.875    -2215353.335 5   -311438.37421        11.500           0.219
 91  5 15 18 25  0.0000000  0  5G19G16G18G 2G11
  20631094.133     -538694.427 6    -83696.36421        19.000           1.188
  24107040.008     -784143.571 5    -33160.93421         9.750           0.188
  20703984.633      463984.708 7    100437.71021        26.000           1.438
  23683100.688    -2911904.360 6   -363947.66121        14.500           0.438
  23997728.242    -2259282.830 6   -345669.07621        12.500           0.188
 91  5 15 18 25 15.0000000  0  5G19G16G18G 2G11
  20629304.055     -548077.941 7    -91008.20421        21.000           1.219
  24098963.391     -826581.643 5    -66229.53521         9.500           0.156
  20706346.898      476406.741 7    110117.19222        25.000           1.500
  23672036.352    -2970044.493 6   -409251.51221        13.750           0.500
  23989377.023    -2303116.846 5   -379825.35521        10.000           0.250
 91  5 15 18 25 30.0000000  0  5G19G16G18G 2G11
  20627530.586     -557408.385 7    -98278.68321        20.500           1.031
  24090908.672     -868909.917 5    -99212.61521         9.500           0.156
  20708732.391      488935.749 7    119880.02121        25.250           1.469
  23660979.148    -3028140.315 6   -454520.86021        12.750           0.469
  23981062.367    -2346863.791 6   -413913.82221        12.750           0.188
 91  5 15 18 25 45.0000000  0  5G19G16G18G 2G11
  20625765.570     -566679.629 7   -105503.02621        21.750           1.000
  24082888.563     -911122.074 5   -132105.16921        10.500           0.156
  20711137.406      501577.982 7    129731.07322        25.500           1.594
  23649928.039    -3086185.608 5   -499750.84421        11.750           0.406
  23972756.531    -2390517.204 6   -447929.40421        12.000           0.313
 91  5 15 18 26  0.0000000  0  5G19G16G18G 2G11
  20624014.891     -575889.108 7   -112679.24721        20.000           1.188
  24074865.828     -953215.241 5   -164904.95921         9.250           0.219
  20713563.930      514335.489 7    139671.97822        25.250           1.813
  23638891.750    -3144177.748 6   -544939.41021        12.000           0.438
  23964467.992    -2434074.191 6   -481869.83121        12.500           0.375
 91  5 15 18 26 15.0000000  0  5G19G16G18G 2G11
  20622272.313     -585041.307 7   -119810.83921        20.750           1.094
  24066872.961     -995193.385 5   -197615.20021         8.500           0.125
  20716014.719      527204.215 7    149699.52222        25.750           1.625
  23627871.039    -3202120.628 6   -590089.57721        12.500           0.344
  23956196.141    -2477538.634 6   -515738.16421        12.500           0.344
 91  5 15 18 26 30.0000000  0  5G19G16G18G 2G11
  20620544.852     -594138.091 6   -126899.25921        19.250           1.156
  24058911.852    -1037058.519 5   -230237.34521         8.000           0.219
  20718485.086      540181.942 7    159812.00922        26.250           1.625
  23616853.695    -3260016.073 6   -635202.78621        13.500           0.188
  23947940.367    -2520912.036 6   -549535.53921        12.000           0.438
 91  5 15 18 26 45.0000000  0  5G19G16G18G 2G11
  20618817.898     -603178.377 7   -133943.64921        21.000           1.125
  24050958.547    -1078808.952 5   -262770.13521         8.750           0.344
  20720974.922      553270.110 7    170010.54822        26.000           1.688
  23605844.711    -3317862.634 6   -680277.88221        12.750           0.188
  23939705.164    -2564192.885 6   -583260.79521        12.500           0.438
 91  5 15 18 27  0.0000000  0  5G19G16G18G 2G11
  20617112.711     -612158.113 7   -140940.84421        20.000           1.188
  24043050.203    -1120440.312 5   -295210.09821         9.250           0.188
  20723488.305      566472.770 7    180298.31322        25.250           1.844
  23594846.789    -3375655.903 6   -725311.45921        12.500           0.250
  23931485.000    -2607376.665 6   -616910.40421        12.750           0.438
 91  5 15 18 27 15.0000000  0  5G19G16G18G 2G11
  20615409.734     -621093.393 7   -147903.41321        20.250           0.625
  24035129.945    -1161968.211 5   -327569.48821         8.500           0.031
  20726018.289      579773.673 7    190662.62421        23.500           0.875
  23583853.961    -3433412.053 5   -770316.12121        11.000           0.156
  23923281.664    -2650479.066 6   -650496.61921        12.750           0.219
 91  5 15 18 27 30.0000000  0  5G19G16G18G 2G11
  20613723.813     -629962.091 6   -154814.10321        19.500           0.094
  24027266.672    -1203370.243 5   -359830.79321         9.250           0.031
  20728571.766      593195.072 7    201120.82221        22.500           0.094
  23572876.047    -3491108.750 5   -815274.46521        11.000           0.031
  23915100.797    -2693477.586 6   -684001.86321        13.500           0.094
 91  5 15 18 27 45.0000000  0  5G19G16G18G 2G11
  20612048.469     -638772.787 7   -161679.60221        22.250           0.625
  24019397.352    -1244655.113 5   -392000.77721         8.250           0.125
  20731146.953      606728.167 7    211666.05421        24.000           1.000
  23561907.328    -3548754.427 5   -860193.07621        11.500           0.156
  23906939.906    -2736380.295 6   -717432.47321        15.750           0.219
 91  5 15 18 28  0.0000000  0  5G19G16G18G 2G11
  20610384.984     -647528.229 7   -168502.00722        21.000           1.656
  24011573.180    -1285825.577 5   -424081.67021         9.750           0.313
  20733742.797      620370.063 7    222296.10522        24.750           2.281
  23550945.461    -3606351.746 5   -905073.91621        10.500           0.344
  23898792.867    -2779189.713 6   -750790.35621        14.000           0.563
 91  5 15 18 28 15.0000000  0  5G19G16G18G 2G11
  20608725.445     -656217.515 7   -175272.88921        20.750           1.438
  24003759.641    -1326870.130 5   -456064.39421         9.000           0.250
  20736362.641      634131.703 7    233019.42022        26.500           1.938
  23539992.719    -3663889.425 5   -949908.35921        10.000           0.344
  23890669.945    -2821894.392 6   -784066.62521        15.750           0.469
 91  5 15 18 28 30.0000000  0  5G19G16G18G 2G11
  20607087.594     -664844.624 7   -181995.32621        20.250           0.625
  23995970.563    -1367792.504 5   -487951.93121         9.000           0.156
  20739001.961      648009.078 7    243832.92421        25.250           0.844
  23529057.609    -3721371.131 5   -994699.20621        10.000           0.188
  23882555.172    -2864497.957 6   -817264.18221        13.250           0.219
 91  5 15 18 28 45.0000000  0  5G19G16G18G 2G11
  20605451.789     -673419.336 7   -188676.91221        20.500           1.250
  23988212.516    -1408601.997 5   -519751.51421         9.500           0.281
  20741667.094      661992.529 7    254729.07922        27.000           1.750
  23518129.555    -3778806.365 5  -1039453.83221        10.750           0.531
  23874470.719    -2907009.825 6   -850390.20821        16.000           0.406
 91  5 15 18 29  0.0000000  0  5G19G16G18G 2G11
  20603843.156     -681891.087 7   -195278.28521        20.500           1.469
  23980474.203    -1449247.903 5   -551423.60821         9.250           0.375
  20744355.281      676132.721 7    265747.38422        25.250           1.656
  23507216.266    -3836144.383 5  -1084132.67121        10.750           0.563
  23866409.469    -2949378.906 6   -883405.02221        16.250           0.500
 91  5 15 18 29 15.0000000  0  5G19G16G18G 2G11
  20602244.578     -690286.249 7   -201819.97821        22.000           0.844
  23972776.422    -1489756.072 5   -582988.39621         8.750           0.125
  20747071.094      690403.070 7    276867.10521        25.500           1.031
  23496321.398    -3893411.297 5  -1128756.11021        11.250           0.344
  23858365.891    -2991631.207 6   -916328.79821        16.250           0.281
 91  5 15 18 29 30.0000000  0  5G19G16G18G 2G11
  20600658.922     -698628.038 7   -208320.07622        20.750           1.625
  23965072.328    -1530149.661 5   -614463.89521         7.500           0.250
  20749808.055      704780.354 7    288070.15322        26.500           2.063
  23485429.219    -3950629.900 5  -1173341.86821        11.000           0.531
  23850343.242    -3033789.412 6   -949179.25021        14.500           0.469
 91  5 15 18 29 45.0000000  0  5G19G16G18G 2G11
  20599078.313     -706918.503 6   -214780.22221        19.500           0.563
  23957415.570    -1570430.422 4                         6.500
  20752563.031      719262.641 7    299355.01421        25.250           0.875
  23474551.914    -4007802.187 5  -1217891.60521        11.500           0.188
  23842341.141    -3075855.087 6   -981957.62521        15.500           0.188
 91  5 15 18 30  0.0000000  0  5G19G16G18G 2G11
  20597511.555     -715159.192 6   -221201.53721        18.250           0.500
  23949763.234    -1610599.574 4                         6.500
  20755340.305      733848.290 7    310720.42221        26.250           0.781
  23463681.344    -4064929.417 5  -1262406.18921        11.250           0.219
  23834350.430    -3117829.472 6  -1014664.87121        14.250           0.156
 91  5 15 18 30 15.0000000  0  5G19G16G18G 2G11
  20595953.633     -723336.112 6   -227573.16421        19.500           0.469
  23942157.398    -1650642.888 4                         7.250
  20758136.516      748551.377 7    322177.35521        26.500           0.844
  23452823.930    -4121997.558 5  -1306874.74221        11.750           0.250
  23826384.430    -3159698.194 6  -1047289.74921        16.500           0.188
 91  5 15 18 30 30.0000000  0  5G19G16G18G 2G11
  20594410.703     -731468.713 6   -233910.23521        19.750           0.438
  23934532.820    -1690579.581 3                         6.000
  20760952.953      763352.335 7    333710.56921        26.250           0.813
  23441964.195    -4179025.730 5  -1351312.15721        10.500           0.125
  23818432.680    -3201480.470 6  -1079847.24421        16.000           0.188
 91  5 15 18 30 45.0000000  0  5G19G16G18G 2G11
  20592870.453     -739542.700 6   -240201.66321        19.750           1.250
  23926974.031    -1730394.990 4                         7.000
  20763790.594      778265.297 7    345331.02422        27.000           1.844
  23431131.117    -4235999.284 6  -1395706.99121        12.750           0.313
  23810501.031    -3243161.280 6  -1112325.70821        14.500           0.469
 91  5 15 18 31  0.0000000  0  5G19G16G18G 2G11
  20591348.445     -747560.444 6   -246449.28021        16.250           0.500
  23919411.289    -1770091.385 4                         7.000
  20766649.641      793287.943 7    357036.93721        24.250           0.719
  23420297.547    -4292920.616 6  -1440061.15321        13.000           0.125
  23802585.625    -3284742.668 6  -1144726.72021        12.000           0.188
 91  5 15 18 31 15.0000000  0  5G19G16G18G 2G11
  20589827.289     -755529.641 7   -252659.03521        20.500           1.281
  23911889.703    -1809676.283 5        -0.14831         8.000           0.219
  20769527.617      808412.572 7    368822.35422        25.750           1.938
  23409474.820    -4349797.077 6  -1484380.32021        15.250           0.469
  23794689.359    -3326231.970 6  -1177055.94221        12.250           0.344
 91  5 15 18 31 30.0000000  0  5G19G16G18G 2G11
  20588327.227     -763446.659 7   -258828.15321        20.250           1.375
  23904368.063    -1849145.592 5    -30755.42421         8.250           0.156
  20772425.625      823642.819 7    380690.04022        24.750           1.938
  23398662.000    -4406624.800 6  -1528661.53721        15.500           0.563
  23786816.742    -3367625.065 6  -1209310.21321        12.000           0.281
 91  5 15 18 31 45.0000000  0  5G19G16G18G 2G11
  20586825.391     -771312.210 7   -264957.14221        21.000           1.063
  23896891.516    -1888499.953 5    -61421.13021         8.500           0.156
  20775344.125      838977.909 7    392639.42321        24.000           1.375
  23387854.805    -4463404.267 6  -1572905.13821        15.750           0.438
  23778955.414    -3408922.409 5  -1241489.85821        11.750           0.219
 91  5 15 18 32  0.0000000  0  5G19G16G18G 2G11
  20585339.867     -779127.838 7   -271047.25022        20.000           1.750
  23889414.250    -1927740.290 5    -91998.01121         9.250           0.250
  20778281.383      854416.243 7    404669.27722        23.750           2.094
  23377057.383    -4520136.852 6  -1617112.22721        15.250           0.688
  23771116.594    -3450124.990 6  -1273595.64021        12.250           0.438
 91  5 15 18 32 14.9990000  0  5G19G16G18G 2G11
  20583857.480     -786899.030 7   -277102.73322        20.500           1.531
  23881968.315    -1966869.669 5   -122488.42321         9.000           0.281
  20781235.792      869950.849 7    416774.13522        22.750           1.750
  23366271.784    -4576824.672 6  -1661284.43221        15.500           0.594
  23763294.058    -3491235.614 5  -1305629.82521        11.500           0.344
 91  5 15 18 32 29.9990000  0  5G19G16G18G 2G11
  20582388.237     -794624.515 6   -283122.64421        19.500           0.469
  23874557.433    -2005891.083 5   -152894.77721        10.250           0.063
  20784213.120      885585.950 7    428957.27021        22.500           0.531
  23355493.081    -4633472.745 6  -1705425.68521        15.500           0.156
  23755483.909    -3532257.329 5  -1337594.72721         9.750           0.125
 91  5 15 18 32 44.9990000  0  5G19G16G18G 2G11
  20580928.769     -802302.263 7   -289105.29421        21.000           0.469
  23867132.925    -2044800.164 5                         9.000
  20787206.987      901322.096 7    441219.18521        23.250           0.500
  23344718.034    -4690075.352 6  -1749531.49921        14.500           0.125
  23747699.308    -3573185.423 5                        11.000
 91  5 15 18 32 59.9990000  0  5G19G16G18G 2G11
  20579479.776     -809936.263 6   -295053.85421        18.750           0.469
  23859768.714    -2083600.636 5                         9.750
  20790219.847      917155.084 7    453556.56621        24.250           0.500
  23333957.206    -4746636.502 6  -1793605.01221        14.500           0.188
  23739925.901    -3614023.544 5                        11.250
 91  5 15 18 33 14.9990000  0  5G19G16G18G 2G11
  20578031.284     -817521.484 7   -300964.43321        20.000           0.375
  23852392.495    -2122287.114 5                         9.500
  20793252.722      933089.655 7    465973.06121        26.500           0.563
  23323199.472    -4803150.984 6  -1837642.12621        12.750           0.125
  23732175.214    -3654766.274 6                        12.750
 91  5 15 18 33 29.9990000  0  5G19G16G18G 2G11
  20576597.370     -825058.900 6   -306837.73821        19.250           0.313
  23845066.292    -2160860.644 5                        10.000
  20796306.690      949125.016 7    478468.11621        26.500           0.594
  23312452.878    -4859619.446 5  -1881643.45221        11.000           0.063
  23724438.675    -3695414.111 6        -0.04331        12.750           0.094
 91  5 15 18 33 44.9990000  0  5G19G16G18G 2G11
  20575170.870     -832548.576 7   -312673.86221        20.750           0.406
  23837741.440    -2199320.754 5                         9.750
  20799374.605      965261.252 7    491041.77021        25.250           0.469
  23301715.964    -4916041.693 5  -1925608.73021        11.500           0.094
  23716720.097    -3735966.746 6    -31599.39421        12.000           0.094
 91  5 15 18 33 59.9990000  0  5G19G16G18G 2G11
  20573759.605     -839989.509 7   -318471.98321        20.750           0.313
  23830445.683    -2237666.085 5                        10.000
  20802461.792      981499.319 7    503694.77121        25.000           0.469
  23290989.659    -4972416.470 6                        13.000
  23709024.815    -3776422.687 6    -63123.42021        13.250           0.188
 91  5 15 18 34 14.9990000  0  5G19G16G18G 2G11
  20572348.839     -847388.952 7   -324237.78221        21.250           1.156
  23823165.425    -2275904.003 5                         9.750
  20805573.870      997831.774 7    516421.32422        25.500           1.531
  23280269.308    -5028750.995 6                        13.000
  23701341.698    -3816788.931 6    -94577.56921        13.250           0.219
 91  5 15 18 34 29.9990000  0  5G19G16G18G 2G11
  20570955.019     -854737.615 6   -329963.99321        19.500           1.063
  23815914.722    -2314024.698 5                        10.500
  20808700.839     1014267.999 7    529228.76522        25.000           1.500
  23269559.480    -5085035.675 6                        14.750
  23693678.323    -3857055.627 6   -125954.08121        13.250           0.313
 91  5 15 18 34 44.9990000  0  5G19G16G18G 2G11
  20569559.769     -862040.220 6   -335654.34521        18.250           0.031
  23808684.894    -2352032.793 5                         9.500
  20811847.034     1030803.007 7                        21.250
  23258857.128    -5141275.054 6                        13.750
  23686034.581    -3897227.158 6                        12.750
 91  5 15 18 34 59.9990000  0  5G19G16G18G 2G11
  20568183.144     -869301.690 6   -341312.64821        19.500           0.594
  23801465.558    -2389932.563 5                        10.000
  20815011.409     1047431.962 7                        23.750
  23248162.761    -5197473.645 6                        15.750
  23678407.159    -3937307.966 6                        13.750
 91  5 15 18 35 14.9990000  0  5G19G16G18G 2G11
  20566803.136     -876522.524 7   -346939.29121        21.000           1.219
  23794281.175    -2427724.393 5                        11.000
  20818194.175     1064154.463 7                        23.500
  23237476.714    -5253631.881 6                        15.750
  23670799.073    -3977298.190 6                        15.500
 91  5 15 18 35 29.9990000  0  5G19G16G18G 2G11
  20565442.690     -883700.208 6   -352532.29921        17.750           0.781
  23787108.519    -2465405.824 5                        10.000
  20821392.690     1080972.706 7        -0.20031        22.000           0.813
  23226798.550    -5309747.043 6                        14.000
  23663205.136    -4017194.975 6                        13.750
 91  5 15 18 35 44.9990000  0  5G19G16G18G 2G11
  20564082.550     -890833.977 7   -358091.09321        20.000           0.094
  23779957.214    -2502975.770 5        -0.17431        10.500           0.031
  20824613.347     1097887.539 7                        25.000
  23216130.065    -5365818.332 6                        15.250
  23655633.386    -4056997.294 6        -0.37831        14.750           0.094
 91  5 15 18 35 59.9990000  0  5G19G16G18G 2G11
  20562733.362     -897929.619 6                        16.750
  23772828.315    -2540439.844 5                         9.500
  20827850.065     1114893.093 7                        23.500
  23205469.292    -5421851.114 6                        13.000
  23648071.503    -4096710.371 5                        10.500
 91  5 15 18 36 14.9990000  0  5G19G16G18G 2G11
  20561387.440     -904981.599 6                        16.750
  23765716.144    -2577792.059 5                         9.250
  20831103.589     1131994.837 7                        23.250
  23194811.753    -5477839.639 6                        12.000
  23640539.675    -4136328.346 6                        12.000
 91  5 15 18 36 29.9990000  0  5G19G16G18G 2G11
  20560061.425     -911989.232 6                        16.000
  23758626.362    -2615031.490 5                         9.500
  20834375.901     1149193.571 7        -0.23531        23.000           0.344
  23184166.581    -5533783.062 5        -0.00131        11.500           0.094
  23633016.855    -4175850.133 5                        11.250
 91  5 15 18 36 44.9990000  0  5G19G16G18G 2G11
  20558726.214     -918964.238 6        -0.28731        19.250           0.094
  23751565.659    -2652169.924 5                        11.250
  20837665.128     1166477.436 7     13467.66021        24.250           0.250
  23173525.081    -5589693.035 6    -43566.14421        13.000           0.094
  23625512.386    -4215287.216 6                        13.000
 91  5 15 18 36 59.9990000  0  5G19G16G18G 2G11
  20557411.776     -925893.029 6     -5399.34621        17.250           0.219
  23744513.378    -2689193.501 5                         9.750
  20840973.222     1183859.663 7     27012.22621        21.750           0.250
  23162892.683    -5645556.041 6    -87095.62721        12.500           0.031
  23618025.980    -4254625.692 5        -0.08531        10.750           0.156
 91  5 15 18 37 14.9990000  0  5G19G16G18G 2G11
  20556098.011     -932784.927 6    -10769.66821        17.000           0.188
  23737497.651    -2726111.371 5                        10.000
  20844298.308     1201331.294 7     40626.42621        20.500           0.281
  23152272.370    -5701380.803 6   -130595.34321        12.500           0.031
  23610552.808    -4293874.372 5    -30583.43421         8.750           0.031
 91  5 15 18 37 29.9990000  0  5G19G16G18G 2G11
  20554796.183     -939640.311 6                        17.000
  23730479.526    -2762923.411 5                         9.000
  20847639.800     1218891.469 7                        22.250
  23141656.300    -5757167.368 6                        13.500
  23603103.331    -4333033.138 5    -61096.67921        10.000           0.063
 91  5 15 18 37 44.9990000  0  5G19G16G18G 2G11
  20553496.261     -946447.778 6                        18.250
  23723511.698    -2799618.140 5                        10.000
  20851001.190     1236551.599 7                        22.750
  23131046.073    -5812904.445 6                        12.250
  23595668.815    -4372090.291 5    -91530.79321        10.000           0.094
 91  5 15 18 37 59.9990000  0  5G19G16G18G 2G11
  20552213.097     -953218.562 6                        17.000
  23716536.667    -2836206.669 5                         8.000
  20854377.730     1254300.431 7                        20.250
  23120452.487    -5868602.914 5                        11.500
  23588255.605    -4411056.831 5   -121894.20421        11.250           0.125
 91  5 15 18 38 14.9990000  0  5G19G16G18G 2G11
  20550928.901     -959953.173 6        -0.22531        17.000           0.281
  23709610.386    -2872689.240 5                         8.750
  20857771.042     1272137.607 7        -0.46431        20.000           0.344
  23109859.315    -5924263.095 5                        10.500
  23580859.808    -4449932.873 5   -152187.11721        11.500           0.094
 91  5 15 18 38 29.9990000  0  5G19G16G18G 2G11
  20549657.112     -966648.732 6     -5217.58621        16.250           0.188
  23702668.894    -2909062.404 5                         7.750
  20861183.933     1290065.721 7     13969.46021        21.500           0.281
  23099278.800    -5979881.850 6        -0.16131        12.500           0.063
  23573482.519    -4488715.004 6   -182406.91221        14.250           0.094
 91  5 15 18 38 44.9990000  0  6G19G16G18G 2G 6G11
  20548385.862     -973305.451 6    -10404.60421        17.750           0.250
  23695786.065    -2945326.092 5                         8.750
  20864613.886     1308084.748 7     28010.22121        24.000           0.500
  23088701.323    -6035458.961 6    -43306.92921        13.250           0.219
  24294908.573          -0.91313                         5.250
  23566113.269    -4527403.016 6   -212553.32721        12.750           0.125
 91  5 15 18 38 59.9990000  0  6G19G16G18G 2G 6G11
  20547129.206     -979920.036 6                        13.250
  23688895.581    -2981477.032 4                         6.500
  20868057.284     1326197.929 6                        17.750
  23078130.730    -6090991.182 5                        10.250
  24286173.581      -45880.726 1                         3.500
  23558773.737    -4565993.156 5                        10.750
 91  5 15 18 39 14.9990000  0  6G19G16G18G 2G 6G11
  20545875.480     -986501.770 6                        19.000
  23682039.401    -3017523.991 5                         8.250
  20871522.651     1344395.887 7                        22.750
  23067569.401    -6146487.697 6                        12.000
  24277463.237      -91755.132 3                         5.000
  23551443.464    -4604494.465 6                        12.250
 91  5 15 18 39 29.9990000  0  6G19G16G18G 2G 6G11
  20544634.386     -993041.958 6                        18.500
  23675207.073    -3053458.394 5                         9.250
  20875004.737     1362687.212 7                        24.250
  23057019.948    -6201939.337 6                        13.000
  24268720.831     -137615.336 2                         4.000
  23544138.503    -4642897.957 6                        13.750
 91  5 15 18 39 44.9990000  0  6G19G16G18G 2G 6G11
  20543394.456     -999547.730 6        -0.14231        19.500           0.313
  23668379.370    -3089287.297 5                         8.250
  20878499.964     1381064.671 7        -0.43631        24.000           0.531
  23046473.245    -6257353.275 6                        13.250
  24259997.409     -183468.618 2                         4.750
  23536845.011    -4681210.277 6                        14.000
 91  5 15 18 39 59.9990000  0  6G19G16G18G 2G 6G11
  20542162.776    -1006023.264 6     -5046.02721        18.000           1.000
  23661585.948    -3125014.687 5        -0.32731         9.750           0.156
  20882013.081     1399523.669 7     14383.15921        24.000           1.031
  23035936.839    -6312733.658 6        -0.17631        13.500           0.313
  24251281.526     -229319.032 3                         6.000
  23529573.042    -4719435.490 6                        13.500
 91  5 15 18 40 14.9990000  0  6G19G16G18G 2G 6G11
  20540935.909    -1012457.833 7    -10059.97721        20.250           1.156
  23654815.370    -3160629.757 5    -27752.28321         9.500           0.250
  20885543.831     1418075.010 7     28838.73922        23.250           1.719
  23025407.003    -6368069.448 6    -43118.87021        13.750           0.531
  24242542.394     -275156.142 3                         5.000
  23522318.745    -4757562.469 6                        14.250
 91  5 15 18 40 29.9990000  0  6G19G16G18G 2G 6G11
  20539724.761    -1018860.009 7    -15048.68521        20.250           1.156
  23648047.487    -3196140.336 5    -55422.87921         9.500           0.188
  20889089.355     1436710.168 7     43359.60722        23.000           1.500
  23014882.128    -6423369.100 6    -86209.44121        14.000           0.594
  24233833.425     -320988.382 3                         5.500
  23515080.050    -4795599.322 6        -0.44231        13.250           0.281
 91  5 15 18 40 44.9990000  0  6G19G16G18G 2G 6G11
  20538507.956    -1025231.410 7    -20013.41721        21.750           0.938
  23641322.456    -3231548.028 5    -83013.25821         9.250           0.156
  20892651.300     1455427.447 7     57944.46421        22.750           1.344
  23004364.753    -6478633.949 6   -129272.87121        13.500           0.656
  24225113.409     -366817.216 3        -0.12331         5.750           0.219
  23507861.261    -4833547.222 6    -29570.13821        13.750           0.281
 91  5 15 18 40 59.9990000  0  6G19G16G18G 2G 6G11
  20537300.472    -1031567.190 6    -24950.43721        19.250           0.188
  23634596.550    -3266847.720 5   -110519.54121         9.000           0.094
  20896230.026     1474231.459 7                        23.750
  22993859.831    -6533859.015 6   -172305.35021        14.500           0.156
  24216387.776     -412637.999 4                         6.250
  23500655.261    -4871401.200 6                        13.000
 91  5 15 18 41 14.9990000  0  6G19G16G18G 2G 6G11
  20536100.401    -1037865.437 6                        19.750
  23627901.651    -3302037.198 5                         8.000
  20899824.542     1493124.363 7                        23.000
  22983354.659    -6589042.035 6                        13.250
  24207673.909     -458448.656 3                         6.000
  23493471.065    -4909158.771 6                        13.750
 91  5 15 18 41 29.9990000  0  6G19G16G18G 2G 6G11
  20534910.237    -1044132.836 6                        19.250
  23621222.722    -3337123.101 5                         7.500
  20903434.933     1512099.320 7                        23.000
  22972857.261    -6644189.515 6                        13.000
  24198952.730     -504256.019 2                         4.750
  23486302.503    -4946826.310 6                        14.000
 91  5 15 18 41 44.9990000  0  6G19G16G18G 2G 6G11
  20533724.894    -1050359.517 7                        21.750
  23614566.706    -3372095.367 4                         7.250
  20907064.550     1531165.811 7                        23.500
  22962377.323    -6699291.441 6                        15.000
  24190236.776     -550050.306 2                         4.750
  23479153.565    -4984393.536 6                        15.000
 91  5 15 18 41 59.9990000  0  6G19G16G18G 2G 6G11
  20532547.230    -1056552.227 7        -0.28931        20.250           1.406
  23607940.144    -3406960.423 5        -0.11831         8.500           0.375
  20910708.011     1550317.355 7        -0.06332        25.000           1.531
  22951895.737    -6754354.297 6                        14.250
  24181534.190     -595837.950 3        -0.37931         5.500           0.125
  23472020.058    -5021866.778 6        -0.33931        15.500           0.500
 91  5 15 18 42 14.9990000  0  6G19G16G18G 2G 6G11
  20531372.308    -1062715.486 6     -4802.83622        19.000           1.563
  23601316.386    -3441722.833 5    -27087.69521         8.500           0.281
  20914368.980     1569549.230 7     14985.77722        25.500           1.781
  22941425.948    -6809382.400 6        -0.41531        15.500           0.469
  24172807.909     -641623.641 3    -35677.42221         5.250           0.188
  23464906.565    -5059250.176 6    -29130.19021        15.250           0.438
 91  5 15 18 42 29.9990000  0  6G19G16G18G 2G 6G11
  20530207.183    -1068847.180 6     -9580.81621        17.500           0.781
  23594722.940    -3476380.017 5    -54093.27521         8.000           0.156
  20918045.401     1588863.747 7     30036.01821        24.500           0.750
  22930961.909    -6864373.514 6    -42850.52921        15.750           0.250
  24164100.230     -687405.286 3    -71351.38821         5.500           0.156
  23457809.230    -5096541.337 6    -58188.18221        14.250           0.219
 91  5 15 18 42 44.9990000  0  6G19G16G18G 2G 6G11
  20529045.433    -1074947.700 6    -14334.49121        19.750           0.406
  23588146.534    -3510932.237 5    -81017.08221         9.000           0.125
  20921734.800     1608260.109 7     45150.02421        24.250           0.563
  22920506.987    -6919327.816 6    -85671.97621        15.750           0.313
  24155393.706     -733183.293 3                         6.000
  23450728.245    -5133740.376 6    -87174.38821        13.500           0.188
 91  5 15 18 42 59.9990000  0  6G19G16G18G 2G 6G11
  20527892.894    -1081013.730 7    -19061.27621        20.250           0.969
  23581597.933    -3545376.075 5   -107856.39921         8.500           0.219
  20925441.644     1627741.599 7     60330.37221        23.750           1.125
  22910053.105    -6974241.756 6   -128461.96521        13.250           0.375
  24146691.690     -778954.517 4                         7.000
  23443670.487    -5170843.615 6   -116085.91121        13.750           0.281
 91  5 15 18 43 14.9990000  0  6G19G16G18G 2G 6G11
  20526745.925    -1087043.222 6                        13.500
  23575061.198    -3579709.327 3                         6.000
  20929163.222     1647310.007 6                        14.750
  22899610.815    -7029113.082 5                         8.000
  24137972.776     -824716.756 2                         4.500
  23436629.956    -5207848.677 5                         9.250
 91  5 15 18 43 29.9990000  0  6G19G16G18G 2G 6G11
  20525606.745    -1093044.017 6                        18.000
  23568548.269    -3613939.478 5                         8.500
  20932905.464     1666957.341 7                        24.500
  22889180.690    -7083949.649 6                        13.000
  24129267.276     -870477.873 4                         7.000
  23429604.511    -5244762.961 6                        15.250
 91  5 15 18 43 44.9990000  0  6G19G16G18G 2G 6G11
  20524464.917    -1099007.990 7                        20.000
  23562038.433    -3648058.139 5                         7.500
  20936660.855     1686692.052 7                        23.750
  22878749.862    -7138743.087 6                        12.750
  24120564.378     -916229.806 4                         6.500
  23422599.581    -5281578.139 6                        15.500
 91  5 15 18 43 59.9990000  0  5G19G16G18G 2G11
  20523344.214    -1104933.723 7                        20.250
  23555585.230    -3682063.874 5                         8.250
  20940432.980     1706515.393 7        -0.11531        24.250           0.063
  22868334.097    -7193491.786 6                        15.000
  23415611.378    -5318292.269 6                        15.000
 91  5 15 18 44 14.9990000  0  5G19G16G18G 2G11
  20522218.815    -1110824.978 7        -0.35531        22.000           1.250
  23549118.128    -3715960.205 4                         7.000
  20944220.151     1726423.246 7     15512.47221        22.250           1.344
  22857925.206    -7248199.252 6                        17.250
  23408641.831    -5354908.921 6                        14.000
 91  5 15 18 44 29.9990000  0  5G19G16G18G 2G11
  20521107.628    -1116683.903 6     -4565.75221        18.750           0.625
  23542708.831    -3749749.107 5        -0.06731         7.750           0.125
  20948024.433     1746413.416 7     31089.16021        21.750           0.906
  22847520.534    -7302867.463 6                        15.500
  23401694.042    -5391429.896 6                        13.250
 91  5 15 18 44 44.9990000  0  5G19G16G18G 2G11
  20519995.573    -1122502.101 6     -9099.42121        19.000           0.500
  23536288.105    -3783421.936 5    -26238.56521         7.750           0.188
  20951845.909     1766494.317 7     46736.57021        23.250           0.656
  22837123.190    -7357487.878 6                        15.500
  23394765.800    -5427846.303 6        -0.36531        15.500           0.125
 91  5 15 18 44 59.9990000  0  6G19G16G18G 2G 6G11
  20518901.214    -1128277.435 6                        19.750
  23529910.339    -3816976.395 5                         9.000
  20955684.940     1786668.466 7                        24.000
  22826738.503    -7412058.181 6                        16.250
  24077058.995          -0.82314                         6.500
  23387854.519    -5464155.559 6    -28293.25921        15.250           0.156
 91  5 15 18 45 14.9990000  0  6G19G16G18G 2G 6G11
  20517806.597    -1134012.000 7                        20.750
  23523542.698    -3850414.303 5                         8.000
  20959541.714     1806933.286 7                        23.750
  22816359.761    -7466580.143 6                        14.500
  24068359.722      -45689.191 4                         6.500
  23380964.636    -5500359.596 6                        15.500
 91  5 15 18 45 29.9990000  0  6G19G16G18G 2G 6G11
  20516727.581    -1139706.951 6                        17.000
  23517205.503    -3883736.840 5                         7.500
  20963414.737     1827287.268 7                        20.000
  22805994.347    -7521054.981 6                        12.000
  24059672.190      -91365.771 4                         6.750
  23374094.245    -5536459.382 6                        12.500
 91  5 15 18 45 44.9990000  0  6G19G16G18G 2G 6G11
  20515644.269    -1145365.255 6                        16.750
  23510881.190    -3916946.963 4                         7.250
  20967304.175     1847727.329 7                        20.000
  22795638.206    -7575485.482 6                        12.000
  24050974.823     -137033.582 4                         6.250
  23367242.862    -5572457.593 5                        11.500
 91  5 15 18 45 59.9990000  0  6G19G16G18G 2G 6G11
  20514579.667    -1150975.131 6                        18.750
  23504591.651    -3950032.239 5                         9.000
  20971211.589     1868265.585 7                        25.250
  22785292.565    -7629859.323 6                        14.500
  24042301.698     -182680.634 5                         8.000
  23360415.276    -5608341.755 6                        13.250
 91  5 15 18 46 14.9990000  0  6G19G16G18G 2G 6G11
  20513516.269    -1156538.193 6                        19.250
  23498309.222    -3982994.230 5                         9.500
  20975138.511     1888899.915 7                        24.750
  22774954.011    -7684178.206 6                        14.250
  24033606.745     -228308.761 4                         7.250
  23353611.198    -5644113.372 6                        14.500
 91  5 15 18 46 29.9990000  0  6G19G16G18G 2G 6G11
  20512469.886    -1162058.891 7        -0.47731        20.250           1.313
  23492058.417    -4015837.340 5                         8.500
  20979083.159     1909625.899 7        -0.07131        24.750           1.469
  22764627.394    -7738446.447 6        -0.45931        13.750           0.656
  24024923.284     -273922.354 4                         6.750
  23346826.987    -5679776.449 6        -0.05431        14.750           0.313
 91  5 15 18 46 44.9990000  0  6G19G16G18G 2G 6G11
  20511428.276    -1167530.914 7     -4264.38322        22.250           1.656
  23485834.862    -4048554.978 5        -0.15931         9.500           0.250
  20983046.237     1930449.727 7     16226.26121        24.000           1.344
  22754311.815    -7792657.615 6    -42242.83521        13.500           0.719
  24016257.526     -319515.102 4        -0.37531         7.250           0.313
  23340063.448    -5715324.288 6    -27699.59521        15.250           0.250
 91  5 15 18 46 59.9990000  0  6G19G16G18G 2G 6G11
  20510401.448    -1172957.063 7     -8492.56821        21.250           1.438
  23479628.722    -4081149.646 5    -25398.56721         8.500           0.156
  20987027.448     1951368.641 7     32526.65822        25.000           1.625
  22744002.823    -7846814.168 6    -84442.66021        13.750           0.781
  24007581.925     -365089.749 4    -35512.98421         7.000           0.156
  23333318.706    -5750759.572 6    -55311.42421        16.000           0.281
 91  5 15 18 47 14.9990000  0  6G19G16G18G 2G 6G11
  20509373.206    -1178327.500 7    -12677.35021        20.750           0.531
  23473461.972    -4113611.463 5                         9.250
  20991028.222     1972392.302 7     48908.65321        25.000           0.656
  22733712.909    -7900906.169 6   -126592.18021        13.750           0.281
  23998906.753     -410636.597 3                         5.750
  23326598.597    -5786072.108 6    -82827.64621        15.250           0.125
 91  5 15 18 47 29.9990000  0  6G19G16G18G 2G 6G11
  20508367.331    -1183640.446 6                        17.750
  23467307.206    -4145938.543 5                         9.000
  20995048.917     1993522.107 7     65373.37421        25.000           0.781
  22723435.886    -7954931.502 6                        15.500
  23990256.784     -456153.788 4                         7.000
  23319904.636    -5821259.643 6   -110246.39821        16.500           0.219
 91  5 15 18 47 44.9990000  0  6G19G16G18G 2G 6G11
  20507361.081    -1188903.557 6                        16.750
  23461178.714    -4178138.083 5                         8.250
  20999088.394     2014750.607 7                        23.000
  22713166.159    -8008897.674 6                        13.750
  23981603.761     -501648.948 4                         6.250
  23313227.612    -5856329.470 6                        12.250
 91  5 15 18 47 59.9990000  0  6G19G16G18G 2G 6G11
  20506374.784    -1194100.722 6                        18.750
  23455078.136    -4210194.198 5                         8.750
  21003148.058     2036093.746 7                        23.750
  22702911.894    -8062788.549 6                        17.000
  23972937.667     -547106.066 4                         6.500
  23306582.526    -5891265.258 6                        15.250
 91  5 15 18 48 14.9990000  0  6G19G16G18G 2G 6G11
  20505397.370    -1199223.063 7        -0.13831        21.250           0.656
  23449011.386    -4242097.579 5                         9.000
  21007234.730     2057560.418 7                        23.000
  22692671.269    -8116595.144 6                        16.000
  23964307.847     -592516.393 4                         6.750
  23299961.542    -5926057.762 6                        13.750
 91  5 15 18 48 29.9990000  0  6G19G16G18G 2G 6G11
  20504439.487    -1204260.491 6     -3925.39821        19.750           0.906
  23442972.378    -4273838.166 5                         9.500
  21011343.886     2079160.466 7        -0.07531        23.750           1.156
  22682448.362    -8170307.085 6        -0.02931        14.750           0.531
  23955681.706     -637869.731 5                         8.250
  23293368.292    -5960696.714 6                        13.500
 91  5 15 18 48 44.9990000  0  6G19G16G18G 2G 6G11
  20503496.753    -1209217.613 6     -7788.10021        19.250           0.219
  23436963.581    -4305420.194 5                         9.750
  21015480.136     2100889.150 7     16931.29921        24.750           0.188
  22672245.284    -8223928.815 6    -41783.12321        13.750           0.125
  23947047.230     -683170.762 4                         6.500
  23286803.245    -5995186.362 6                        12.250
 91  5 15 18 48 59.9990000  0  6G19G16G18G 2G 6G11
  20502568.034    -1214096.189 6    -11589.61621        13.250           0.313
  23430982.839    -4336845.326 5                         8.000
  21019638.105     2122744.883 6     33961.70921        18.500           0.438
  22662054.355    -8277461.849 5    -83497.06521        10.000           0.219
  23938443.347     -728421.144 3                         5.250
  23280267.112    -6029528.043 5        -0.05531         9.250           0.188
 91  5 15 18 49 14.9990000  0  6G19G16G18G 2G 6G11
  20501659.581    -1218876.372 6    -15314.45921        17.000           0.469
  23425031.190    -4368093.875 5                         8.250
  21023827.823     2144747.207 7     51106.33021        21.250           0.438
  22651891.956    -8330886.238 5   -125126.40421        11.750           0.313
  23929852.651     -773601.307 4                         6.500
  23273763.550    -6063701.689 5    -26628.79721         9.500           0.188
 91  5 15 18 49 29.9990000  0  6G19G16G18G 2G 6G11
  20500767.933    -1223554.997 6    -18960.11321        19.000           0.938
  23419128.237    -4399162.192 5                        11.000
  21028040.433     2166899.217 7     68367.63221        24.000           1.219
  22641743.831    -8384198.606 6   -166668.41521        14.750           0.563
  23921264.120     -818707.839 4                         7.250
  23267292.136    -6097703.601 5    -53123.69821        10.750           0.313
 91  5 15 18 49 44.9990000  0  6G19G16G18G 2G 6G11
  20499898.995    -1228126.281 7    -22522.16721        20.250           1.469
  23413234.058    -4430044.246 5                         9.250
  21032286.847     2189206.520 7     85749.87822        25.250           1.531
  22631623.112    -8437393.190 6   -208118.67621        16.000           0.906
  23912693.206     -863735.108 4                         6.500
  23260857.722    -6131527.840 5    -79480.17621        11.500           0.563
 91  5 15 18 49 59.9990000  0  6G19G16G18G 2G 6G11
  20499049.331    -1232589.139 6    -25999.73121        18.250           1.469
  23407411.737    -4460739.036 5                        11.250
  21036560.565     2211669.920 7    103253.78722        25.000           1.813
  22621523.253    -8490468.876 6   -249476.26821        17.000           1.094
  23904122.534     -908682.232 3        -0.13931         5.000           0.188
  23254456.519    -6165173.033 6   -105697.15021        12.500           0.563
 91  5 15 18 50 14.9990000  0  6G19G16G18G 2G 6G11
  20498220.120    -1236937.692 6    -29388.23321        19.000           1.406
  23401597.019    -4491240.397 5                        10.000
  21040869.667     2234295.292 7    120883.88322        25.500           1.906
  22611450.839    -8543419.281 6   -290736.24721        17.250           1.031
  23895607.151     -953543.170 3    -34956.59321         5.250           0.219
  23248090.323    -6198632.942 6   -131769.74621        13.750           0.438
 91  5 15 18 50 29.9990000  0  6G19G16G18G 2G 6G11
  20497418.394    -1241154.829 6    -32674.32621        18.000           1.094
  23395843.948    -4521531.326 5                        11.000
  21045205.222     2257099.574 7    138653.39721        24.500           1.250
  22601401.526    -8596227.152 6   -331885.15721        16.500           0.625
  23887081.026     -998300.748 2    -69832.59721         4.500           0.063
  23241757.190    -6231890.280 6   -157684.52321        13.250           0.469
 91  5 15 18 50 44.9990000  0  5G19G16G18G 2G11
  20496642.651    -1245229.688 6                        16.750
  23390116.183    -4551600.675 5                         9.000
  21049581.167     2280093.437 7                        21.250
  22591380.065    -8648881.641 6                        13.250
  23235472.730    -6264933.801 6                        12.750
 91  5 15 18 50 59.9990000  0  6G19G16G18G 2G 6G11
  20495898.323    -1249158.142 6                        17.500
  23384440.714    -4581443.891 5                         9.750
  21053993.433     2303280.887 7                        23.500
  22581391.503    -8701378.474 6                        13.250
  23870114.659          -0.82013                         5.750
  23229225.565    -6297759.064 6                        12.750
 91  5 15 18 51 14.9990000  0  6G19G16G18G 2G 6G11
  20495175.651    -1252922.215 6                        18.500
  23378803.167    -4611043.343 5                        10.250
  21058447.315     2326679.905 7                        22.750
  22571430.237    -8753699.501 5                        11.250
  23861667.034      -44390.157 3                         6.000
  23223025.222    -6330347.881 6                        13.250
 91  5 15 18 51 29.9990000  0  6G19G16G18G 2G 6G11
  20494500.855    -1256516.460 6        -0.47432        16.750           1.531
  23373224.565    -4640393.044 5                         9.500
  21062940.464     2350295.963 7        -0.24632        23.750           1.656
  22561509.245    -8805839.113 5        -0.35431        11.750           0.844
  23853246.737      -88638.088 3                         6.000
  23216868.128    -6362694.462 5                        11.250
 91  5 15 18 51 44.9990000  0  6G19G16G18G 2G 6G11
  20493841.190    -1259938.649 6     -2667.12621        17.000           0.969
  23367681.175    -4669490.519 5        -0.31831        10.000           0.250
  21067477.745     2374130.942 7     18572.42121        23.500           1.375
  22551622.909    -8857794.580 6    -40485.06221        12.750           0.500
  23844842.003     -132742.116 3                         5.750
  23210761.886    -6394796.111 5        -0.40331        11.250           0.563
 91  5 15 18 51 59.9990000  0  6G19G16G18G 2G 6G11
  20493232.769    -1263168.183 6     -5183.65021        16.250           1.031
  23362200.019    -4698314.883 5    -22460.82321        10.000           0.313
  21072057.815     2398205.455 7     37331.72722        22.250           1.563
  22541776.159    -8909545.230 6    -80810.16221        14.750           0.563
  23836494.894     -176681.711 4        -0.37431         6.750           0.281
  23204703.355    -6426631.876 5    -24807.44221        11.750           0.469
 91  5 15 18 52 14.9990000  0  2G19G18
  20492648.378                          -0.31916        14.750
  21076688.019                          -0.59417        21.500
 91  5 15 18 52 29.9990000  0  6G19G16G18G 2G 6G11
  20492120.722                       -2815.007 6        18.250
  23351389.964          -0.36115                         9.750
  21081364.425                       24582.378 7        23.750
  22522203.519      -51311.547 6                        16.750
  23819861.995          -0.60013                         6.000
  23192747.620          -0.62316                        14.250
 91  5 15 18 52 44.9990000  0  6G19G16G18G 2G 6G11
  20491624.784                       -5406.775 7        20.250
  23346072.831      -27945.995 5                        10.000
  21086094.480                       49434.680 7        24.500
  22512483.175     -102387.440 6                        16.750
  23811611.401      -43387.471 4                         7.250
  23186849.433      -30977.643 6                        13.250
 91  5 15 18 52 59.9990000  0  6G19G16G18G 2G 6G11
  20491182.042       -7761.549 6        -0.27731        16.750           0.750
  23340816.073      -55573.991 5                         9.750
  21090875.276       74570.008 7        -0.34431        21.500           0.906
  22502811.800     -153213.694 6        -0.46331        15.000           0.438
  23803397.073      -86565.766 3                         6.000
  23181012.776      -61643.394 6        -0.48831        12.500           0.219
 91  5 15 18 53 14.9990000  0  6G19G16G18G 2G 6G11
  20490771.073       -9882.377 6     -1652.88821        18.250           1.188
  23335623.878      -82887.306 5                        11.750
  21095713.558       99985.609 7     19803.96021        23.750           1.469
  22493186.089     -203793.083 6    -39412.89321        16.750           0.781
  23795218.425     -129538.668 3                         5.750
  23175237.097      -92000.716 6    -23655.50421        14.000           0.438
 91  5 15 18 53 29.9990000  0  6G19G16G18G 2G 6G11
  20490415.167      -11756.982 6     -3113.62721        16.750           1.031
  23330483.472     -109873.513 5                        11.000
  21100605.784      125693.428 7     39835.98321        24.500           1.469
  22483614.464     -254113.317 6    -78623.38621        17.000           0.781
  23787087.042     -172293.862 3                         6.000
  23169519.308     -122036.971 6    -47060.35421        13.750           0.438
 91  5 15 18 53 44.9990000  0  6G19G16G18G 2G 6G11
  20490110.714      -13366.918 6     -4368.13921        19.000           1.000
  23325418.597     -136513.880 5        -0.34931        11.250           0.250
  21105556.073      151711.788 7     60109.97422        22.000           1.656
  22474088.401     -304155.805 6   -117617.48221        15.750           0.719
  23778990.425     -214812.843 4         0.00031         6.750           0.156
  23163872.651     -151733.445 6    -70200.40821        16.250           0.375
 91  5 15 18 53 59.9990000  0  6G19G16G18G 2G 6G11
  20489856.823      -14714.188 6     -5417.96621        19.750           1.156
  23320415.292     -162810.375 5    -20491.09821        11.250           0.344
  21110564.464      178038.586 7     80624.29522        21.250           1.813
  22464621.151     -353922.378 6   -156396.57321        16.000           0.688
  23770936.690     -257097.719 4    -32949.20221         6.500           0.188
  23158284.628     -181091.826 6    -93077.05021        16.000           0.563
 91  5 15 18 54 14.9990000  0  6G19G16G18G 2G 6G11
  20489649.886      -15792.870 7     -6258.50321        21.250           1.469
  23315468.581     -188756.645 5    -40708.98721        10.250           0.313
  21115636.503      204679.860 7    101383.70022        21.500           1.594
  22455204.050     -403406.872 6   -194955.85121        15.500           0.750
  23762951.933     -299142.467 5                         8.250
  23152764.565     -210105.859 6   -115685.34821        17.500           0.469
 91  5 15 18 54 29.9990000  0  6G19G16G18G 2G 6G11
  20489493.362      -16605.748 6     -6891.91322        19.250           1.500
  23310610.636     -214355.872 5    -60656.42321        11.500           0.313
  21120762.698      231632.050 7    122385.36422        20.500           1.563
  22445839.026     -452612.014 6   -233297.42321        16.000           0.719
  23754998.237     -340950.147 5                         8.750
  23147306.409     -238778.188 6   -138027.37121        17.000           0.500
 91  5 15 18 54 44.9990000  0  6G19G16G18G 2G 6G11
  20489386.776      -17151.670 6     -7317.32721        18.750           1.406
  23305789.808     -239606.341 5    -80332.11421        10.500           0.313
  21125952.784      258896.575 7    143630.38321        22.000           1.469
  22436528.276     -501536.439 6   -271420.30121        15.750           0.625
  23747077.714     -382519.354 5                         8.000
  23141914.925     -267107.173 6   -160101.88321        16.500           0.469
 91  5 15 18 54 59.9990000  0  6G19G16G18G 2G 6G11
  20489334.503      -17443.895 6     -7545.06622        17.500           1.500
  23301062.190     -264521.307 5    -99746.35821        11.250           0.375
  21131198.409      286460.146 7    165108.43222        22.000           1.813
  22427266.995     -550193.312 6   -309334.68521        15.500           0.906
  23739206.987     -423863.570 4        -0.26231         7.250           0.219
  23136586.120     -295105.850 6   -181919.00921        14.750           0.594
 91  5 15 18 55 14.9990000  0  6G19G16G18G 2G 6G11
  20489323.464      -17491.398 6                        18.750
  23296371.597     -289109.774 5   -118906.15921        10.500           0.344
  21136497.862      314313.622 7    186812.36922        22.500           1.500
  22418062.065     -598591.626 6   -347047.57421        17.250           0.688
  23731379.690     -464991.773 4    -32048.13321         6.750           0.188
  23131321.190     -322783.036 6   -203485.61721        14.250           0.625
 91  5 15 18 55 29.9990000  0  6G19G16G18G 2G 6G11
  20489362.519      -17297.017 6                        19.000
  23291760.714     -313374.582 5   -137813.83421        11.250           0.094
  21141852.808      342453.773 7    208739.71721        22.250           1.031
  22408896.878     -646734.002 6   -384561.04221        16.750           0.438
  23723598.917     -505906.973 4    -63930.00021         6.250           0.156
  23126118.675     -350141.378 6   -224803.78421        14.000           0.406
 91  5 15 18 55 44.9990000  0  6G19G16G18G 2G 6G11
  20489437.956      -16877.160 6                        14.250
  23287197.722     -337331.585 5                         8.000
  21147259.839      370864.206 6                        17.250
  22399785.542     -694636.493 6                        13.250
  23715842.901     -546625.382 2                         4.750
  23120966.690     -377196.885 5                         9.750
 91  5 15 18 55 59.9990000  0  6G19G16G18G 2G 6G11
  20489566.784      -16242.549 6                        13.000
  23282699.214     -360991.402 5                         9.000
  21152715.480      399534.027 6                        18.500
  22390707.698     -742309.649 6                        12.750
  23708128.980     -587157.734 2                         4.750
  23115871.675     -403959.785 5                         9.500
 91  5 15 18 56 14.9990000  0  6G19G16G18G 2G 6G11
  20489718.487      -15415.255 6                        12.000
  23278245.128     -384376.592 4                         7.250
  21158217.120      428441.092 6                        16.000
  22381680.253     -789775.585 5                        11.500
  23700435.105     -627526.189 2                         3.750
  23110832.089     -430452.041 5                         8.750
 91  5 15 18 56 29.9990000  0  6G19G16G18G 2G 6G11
  20489913.167      -14412.557 6                        15.500
  23273849.433     -407504.083 5                        10.750
  21163759.269      457568.224 6                        19.750
  22372679.495     -837051.190 6                        14.500
  23692796.276     -667747.953 3                         5.500
  23105838.948     -456690.602 6                        12.250
 91  5 15 18 56 44.9990000  0  6G19G16G18G 2G 6G11
  20490132.050      -13255.567 6                        16.250
  23269484.253     -430394.511 5                         9.000
  21169339.214      486893.833 6                        18.000
  22363715.245     -884157.556 6                        13.250
  23685172.761     -707844.227 3                         6.000
  23100888.636     -482696.220 5                        11.500
 91  5 15 18 56 59.9990000  0  6G19G16G18G 2G 6G11
  20490377.315      -11957.353 6                        16.750
  23265183.034     -453060.910 5                        10.250
  21174954.261      516405.096 6                        19.750
  22354785.347     -931107.656 6                        16.000
  23677556.995     -747828.215 4                         6.500
  23095982.355     -508481.794 6                        13.500
 91  5 15 18 57 14.9990000  0  6G19G16G18G 2G 6G11
  20490645.714      -10538.558 6                        15.500
  23260893.089     -475523.721 5                         8.750
  21180601.081      546080.823 6                        16.750
  22345876.230     -977921.966 6                        15.500
  23669972.136     -787720.464 3                         6.000
  23091116.315     -534067.769 6                        13.250
 91  5 15 18 57 29.9990000  0  6G19G16G18G 2G 6G11
  20490935.917       -9008.935 5                        10.500
  23256666.355     -497793.058 4                         6.750
  21186278.605      575911.035 6                        13.500
  22336990.651    -1024610.177 5                        11.500
  23662394.839     -827530.907 2                         4.500
  23086280.448     -559463.505 5                         9.250
 91  5 15 18 57 44.9990000  0  6G19G16G18G 2G 6G11
  20491244.565       -7392.173 6                        18.250
  23252451.964     -519892.301 5                        10.500
  21191979.894      605872.066 7                        22.000
  22328126.761    -1071195.761 6                        18.250
  23654827.003     -867283.097 4                         7.250
  23081482.714     -584692.379 6                        16.250
 91  5 15 18 57 59.9990000  0  6G19G16G18G 2G 6G11
  20491574.480       -5690.577 6                        17.750
  23248285.511     -541823.585 5                        10.500
  21197705.003      635961.393 7                        20.500
  22319280.800    -1117680.910 6                        18.000
  23647273.558     -906979.535 5                         8.250
  23076709.925     -609756.727 6                        15.250
 91  5 15 18 58 14.9990000  0  6G19G16G18G 2G 6G11
  20491906.964       -3925.591 6                        17.250
  23244135.605     -563608.053 5                         9.500
  21203450.620      666157.703 6                        18.500
  22310446.847    -1164086.644 6                        15.000
  23639737.901     -946641.507 5                         8.250
  23071968.769     -634677.448 6                        14.000
 91  5 15 18 58 29.9990000  0  6G19G16G18G 2G 6G11
  20492254.112       -2097.051 6                        18.000
  23240023.980     -585245.710 5                        11.250
  21209217.730      696460.781 7                        20.500
  22301631.636    -1210412.913 6                        16.500
  23632196.159     -986269.028 5                         9.000
  23067257.206     -659454.289 6                        16.500
 91  5 15 18 58 44.9990000  0  6G19G16G18G 2G 6G11
  20492608.315        -228.492 5                        11.000
  23235926.198     -606759.916 4                         6.750
  21215000.792      726846.784 6                        13.000
  22292830.495    -1256683.139 5                        10.000
  23624654.987    -1025885.597 3                         5.500
  23062561.323     -684110.399 5                         9.250
 91  5 15 18 58 59.9990000  0  6G19G16G18G 2G 6G11
  20492973.300        1678.594 6                        17.750
  23231856.823     -628152.012 6                        12.000
  21220799.948      757314.276 7                        23.250
  22284029.839    -1302898.667 6                        15.250
  23617111.151    -1065492.807 5                         7.750
  23057896.206     -708647.153 6                        15.750
 91  5 15 18 59 14.9990000  0  6G19G16G18G 2G 6G11
  20493344.698        3624.904 6                        19.500
  23227809.370     -649421.345 6                        12.000
  21226612.323      787863.939 7                        21.500
  22275251.815    -1349058.599 6                        17.500
  23609588.987    -1105089.976 4                         7.000
  23053247.237     -733063.524 6                        14.500
 91  5 15 18 59 29.9990000  0  6G19G16G18G 2G 6G11
  20493721.230        5591.818 6        -0.38231        16.000           0.813
  23223779.964     -670586.329 5                        11.750
  21232438.394      818476.765 6        -0.12731        19.500           1.094
  22266472.230    -1395181.387 6        -0.31531        15.750           0.500
  23602046.026    -1144695.719 4                         7.250
  23048620.292     -757377.931 6        -0.08931        13.000           0.438
 91  5 15 18 59 44.9990000  0  6G19G16G18G 2G 6G11
  20494096.456        7580.863 6                        13.750
  23219776.495     -691645.398 5                        10.000
  21238277.784      849154.267 6                        17.500
  22257706.612    -1441265.580 6                        14.250
  23594495.339    -1184308.603 3                         5.250
  23044012.581     -781588.576 5                        11.750
 91  5 15 18 59 59.9990000  0  6G19G16G18G 2G 6G11
  20494481.409        9587.634 6                        13.000
  23215788.456     -712603.043 5                        10.750
  21244124.300      879891.696 6                        18.000
  22248938.815    -1487315.447 6                        14.000
  23586955.667    -1223933.145 3                         5.250
  23039424.261     -805699.564 6                        12.500
 91  5 15 19  0 14.9990000  0  6G19G16G18G 2G 6G11
  20494861.339       11609.390 6                        16.250
  23211816.058     -733461.616 5                        11.500
  21249986.589      910685.942 6                        19.750
  22240182.737    -1533333.456 6                        15.250
  23579417.792    -1263572.074 4                         6.250
  23034854.792     -829713.478 6                        14.500
 91  5 15 19  0 29.9990000  0  6G19G16G18G 2G 6G11
  20495253.128       13641.125 6                        17.500
  23207869.597     -754226.367 6                        13.000
  21255854.362      941532.018 7                        22.000
  22231429.956    -1579324.670 6                        17.750
  23571871.542    -1303230.503 4                         6.750
  23030300.901     -853635.128 6                        16.750
 91  5 15 19  0 44.9990000  0  6G19G16G18G 2G 6G11
  20495635.808       15678.045 6                        15.000
  23203924.839     -774901.721 5                         9.500
  21261733.690      972425.357 6                        18.500
  22222684.323    -1625293.539 6                        15.500
  23564315.675    -1342913.070 3                         5.500
  23025766.269     -877468.897 6                        14.750
 91  5 15 19  0 59.9990000  0  6G19G16G18G 2G 6G11
  20496027.464       17718.788 6                        17.250
  23200016.448     -795489.146 6                        12.250
  21267619.800     1003364.100 7                        22.250
  22213942.331    -1671241.288 7                        20.000
  23556758.261    -1382621.181 4                         7.000
  23021246.190     -901215.884 6                        17.500
 91  5 15 19  1 14.9990000  0  6G19G16G18G 2G 6G11
  20496410.011       19760.971 6                        16.500
  23196101.269     -815990.733 5                        10.000
  21273518.019     1034345.780 6                        19.750
  22205201.237    -1717170.260 6                        19.250
  23549197.448    -1422357.367 4                         7.000
  23016743.245     -924878.276 6                        17.500
 91  5 15 19  1 29.9990000  0  6G19G16G18G 2G 6G11
  20496807.269       21808.457 6        -0.13531        16.250           0.625
  23192226.589     -836402.435 5                        11.000
  21279421.698     1065374.055 7        -0.07431        20.000           0.656
  22196466.292    -1763076.349 6        -0.26831        19.750           0.344
  23541638.464    -1462117.747 5        -0.20531         7.750           0.156
  23012259.019     -948452.048 6        -0.22631        17.250           0.250
 91  5 15 19  1 44.9990000  0  6G19G16G18G 2G 6G11
  20497191.573       23850.218 6      1590.82921        18.750           0.656
  23188356.839     -856735.376 5        -0.35931        10.750           0.125
  21285334.151     1096437.589 7     24205.20821        20.250           0.719
  22187731.026    -1808970.604 6    -35761.96821        17.750           0.500
  23534068.948    -1501913.469 5    -31009.75721         8.000           0.063
  23007784.222     -971947.916 6    -18308.70521        15.500           0.250
 91  5 15 19  1 59.9990000  0  6G19G16G18G 2G 6G11
  20497581.214       25888.376 6      3178.99721        18.500           0.594
  23184503.347     -876987.263 6    -15781.03721        12.000           0.219
  21291251.675     1127538.355 7     48439.51321        20.250           0.688
  22179000.534    -1854850.640 6    -71512.57221        17.750           0.406
  23526489.690    -1541742.341 5    -62045.11121         8.250           0.094
  23003331.956     -995363.537 6    -36554.56821        15.750           0.250
 91  5 15 19  2 14.9990000  0  6G19G16G18G 2G 6G11
  20497965.495       27922.001 6      4763.63121        17.000           0.750
  23180666.480     -897158.995 5    -31499.28921        11.250           0.094
  21297177.683     1158675.485 7     72702.13421        20.750           0.719
  22170272.690    -1900717.313 6   -107252.77121        16.500           0.469
  23518902.722    -1581605.468 5    -93107.23721         7.500           0.156
  22998886.417    -1018699.656 6    -54738.52421        12.500           0.281
 91  5 15 19  2 29.9990000  0  6G19G16G18G 2G 6G11
  20498355.026       29953.310 6      6346.43521        16.000           0.781
  23176841.706     -917248.558 5    -47153.51321        11.750           0.063
  21303108.214     1189850.997 7     96994.68321        21.250           0.781
  22161548.284    -1946568.155 6   -142980.64521        17.250           0.469
  23511308.112    -1621500.570 5   -124194.23121         7.500           0.063
  22994462.784    -1041953.813 6    -72858.61221        13.250           0.375
 91  5 15 19  2 44.9990000  0  6G19G16G18G 2G 6G11
  20498740.237       31982.803 6      7927.83221        17.750           0.625
  23173034.573     -937255.107 6    -62743.06821        12.000           0.063
  21309048.987     1221065.297 7    121317.44121        22.250           0.531
  22152825.605    -1992402.513 6   -178695.68821        17.250           0.375
  23503713.308    -1661427.206 5   -155305.83421         7.500           0.219
  22990056.128    -1065125.333 6    -90914.29321        15.250           0.375
 91  5 15 19  2 59.9990000  0  6G19G16G18G 2G 6G11
  20499124.964       34010.518 6      9507.85521        16.500           0.875
  23169246.050     -957179.010 5    -78268.15521        10.750           0.063
  21314998.980     1252318.015 7    145670.13621        24.500           0.750
  22144102.948    -2038220.483 6   -214397.92321        16.000           0.531
  23496110.847    -1701385.382 5   -186442.01821         7.500           0.094
  22985660.901    -1088213.974 6   -108905.40421        14.500           0.469
 91  5 15 19  3 14.9990000  0  6G19G16G18G 2G 6G11
  20499512.909       36043.000 6     11091.59521        19.250           0.656
  23165466.417     -977013.107 5    -93723.34821        10.500           0.125
  21320951.956     1283615.539 7    170057.73521        23.250           0.750
  22135390.761    -2084015.498 6   -250082.27921        16.500           0.438
  23488494.159    -1741368.588 4   -217597.71021         7.250           0.188
  22981283.909    -1111212.743 6   -126826.47221        15.250           0.281
 91  5 15 19  3 29.9990000  0  6G19G16G18G 2G 6G11
  20499900.550       38071.875 6                        15.500
  23161713.269     -996765.861 5                         9.500
  21326914.261     1314949.383 6                        19.750
  22126681.683    -2129795.571 6                        16.000
  23480869.386    -1781385.101 3                         5.750
  22976927.151    -1134129.882 6                        15.000
 91  5 15 19  3 44.9990000  0  6G19G16G18G 2G 6G11
  20500284.722       40103.370 6                        18.750
  23157959.784    -1016431.196 5                         9.750
  21332884.620     1346325.372 7                        23.000
  22117971.894    -2175554.440 6                        17.000
  23473260.565    -1821428.935 5                         8.000
  22972579.409    -1156959.036 6                        15.500
 91  5 15 19  3 59.9990000  0  6G19G16G18G 2G 6G11
  20500673.964       42137.185 6                        16.000
  23154245.300    -1036009.034 5                        10.250
  21338864.823     1377743.180 7                        22.000
  22109267.253    -2221292.195 6                        15.750
  23465639.308    -1861500.357 5                         8.000
  22968251.519    -1179700.108 6                        14.000
 91  5 15 19  4 14.9990000  0  6G19G16G18G 2G 6G11
  20501060.972       44175.820 6                        13.000
  23150528.050    -1055496.621 4                         6.750
  21344850.901     1409205.285 6                        14.250
  22100567.714    -2267006.159 5                        11.750
  23457994.230    -1901596.765 3                         5.000
  22963944.136    -1202350.487 5                        10.500
 91  5 15 19  4 29.9990000  0  6G19G16G18G 2G 6G11
  20501452.698       46226.127 6                        14.500
  23146849.292    -1074887.443 5                         8.500
  21350846.628     1440718.306 6                        16.000
  22091874.558    -2312689.427 6                        13.500
  23450363.815    -1941711.473 3                         5.500
  22959649.081    -1224903.183 5                        11.000
 91  5 15 19  4 44.9990000  0  6G19G16G18G 2G 6G11
  20501838.198       48272.535 6                        19.750
  23143168.464    -1094196.787 5                        10.750
  21356850.159     1472266.566 7                        21.000
  22083183.870    -2358357.483 6                        17.500
  23442733.292    -1981860.117 5                         7.500
  22955374.620    -1247373.393 6                        14.500
 91  5 15 19  4 59.9990000  0  6G19G16G18G 2G 6G11
  20502230.300       50323.191 6                        16.250
  23139516.675    -1113416.479 5                        10.500
  21362861.597     1503858.103 6                        19.250
  22074497.573    -2404002.000 6                        14.750
  23435090.300    -2022034.382 4                         7.000
  22951118.253    -1269752.743 6                        14.500
 91  5 15 19  5 14.9990000  0  6G19G16G18G 2G 6G11
  20502620.386       52388.764 6                        18.000
  23135873.276    -1132536.141 5                        10.750
  21368885.925     1535503.278 7                        21.500
  22065816.886    -2449612.320 6                        16.000
  23427444.870    -2062223.920 5                         8.750
  22946876.940    -1292030.472 6                        16.000
 91  5 15 19  5 29.9990000  0  6G19G16G18G 2G 6G11
  20503055.089       54639.067 6                        16.750
  23132288.511    -1151385.630 5                        11.250
  21374951.112     1567371.755 7                        23.250
  22057178.776    -2495018.409 6                        17.500
  23419819.167    -2102258.837 5                         7.500
  22942689.190    -1314036.354 6                        18.000
 91  5 15 19  5 44.9990000  0  6G19G16G18G 2G 6G11
  20503500.089       57004.490 6                        16.750
  23128739.690    -1170034.327 5                         9.750
  21381043.690     1599393.785 6                        19.750
  22048564.722    -2540289.591 6                        15.750
  23412218.370    -2142208.665 4                         6.250
  22938539.417    -1335839.815 6                        17.250
 91  5 15 19  5 59.9990000  0  6G19G16G18G 2G 6G11
  20503953.948       59378.232 6        -0.22831        17.250           0.750
  23125206.472    -1188588.943 5                         9.250
  21387146.855     1631462.244 7                        21.250
  22039954.417    -2585532.619 6        -0.16231        16.500           0.688
  23404612.190    -2182180.311 4        -0.49131         7.000           0.313
  22934409.792    -1357547.543 6        -0.33931        19.250           0.313
 91  5 15 19  6 14.9990000  0  6G19G16G18G 2G 6G11
  20504403.511       61757.872 6      1854.01121        19.000           0.844
  23121698.347    -1207052.186 5                        10.000
  21393256.823     1663574.799 7        -0.36831        21.250           0.969
  22031352.175    -2630749.919 6    -35234.38821        17.750           0.656
  23397002.901    -2222176.231 4    -31166.13021         6.250           0.344
  22930298.081    -1379161.757 7    -16842.56421        20.500           0.344
 91  5 15 19  6 29.9990000  0  6G19G16G18G 2G 6G11
  20504860.605       64144.712 6      3713.88021        16.750           0.750
  23118194.784    -1225422.413 5        -0.18231         9.000           0.156
  21399375.940     1695732.229 6     25057.29221        19.500           0.844
  22022750.519    -2675940.182 6    -70447.52321        16.250           0.594
  23389390.222    -2262195.164 4    -62349.70821         6.250           0.188
  22926204.722    -1400680.936 6    -33610.72421        19.750           0.406
 91  5 15 19  6 44.9990000  0  6G19G16G18G 2G 6G11
  20505314.167       66535.508 6      5576.81421        18.250           0.719
  23114724.722    -1243702.938 5    -14244.75921        10.000           0.188
  21405501.081     1727931.270 6     50147.39721        19.500           0.844
  22014154.315    -2721106.480 6   -105641.98321        16.750           0.656
  23381761.315    -2302240.483 4    -93553.77721         7.250           0.156
  22922123.855    -1422108.110 6    -50307.21721        17.750           0.344
 91  5 15 19  6 59.9990000  0  6G19G16G18G 2G 6G11
  20505774.245       68940.703 6      7450.97821        18.250           0.563
  23111256.136    -1261882.995 5    -28411.05221         9.750           0.250
  21411639.011     1760182.440 6     75278.08221        19.500           0.750
  22005569.542    -2766237.924 6   -140809.28721        17.500           0.500
  23374130.737    -2342301.625 5   -124770.15021         7.750           0.125
  22918065.394    -1443432.579 6    -66923.64621        15.500           0.281
 91  5 15 19  7 14.9990000  0  6G19G16G18G 2G 6G11
  20506233.511       71362.503 6      9338.08621        19.250           0.688
  23107827.120    -1279960.579 5    -42497.49621        10.000           0.250
  21417786.940     1792487.466 7    100450.75921        20.250           0.594
  21996985.315    -2811332.525 6   -175947.87221        15.750           0.375
  23366514.448    -2382376.606 5   -155997.41421         8.500           0.094
  22914028.628    -1464652.060 6    -83458.27921        15.250           0.313
 91  5 15 19  7 29.9990000  0  6G19G16G18G 2G 6G11
  20506699.144       73794.872 6     11233.44421        17.500           0.813
  23104397.386    -1297942.081 5    -56509.05421         9.250           0.125
  21423942.933     1824839.935 6    125660.43921        19.750           0.688
  21988409.980    -2856396.276 6   -211062.44321        15.000           0.531
  23358889.909    -2422471.472 5   -187240.07721         8.750           0.125
  22910010.769    -1485772.432 6    -99915.66921        14.750           0.313
 91  5 15 19  7 44.9990000  0  6G19G16G18G 2G 6G11
  20507160.894       76238.022 6     13137.19121        18.500           0.969
  23101003.722    -1315826.995 5    -70445.38621        10.500           0.250
  21430109.081     1857239.977 7    150907.14821        21.250           0.844
  21979838.823    -2901428.902 6   -246152.75021        16.750           0.594
  23351252.386    -2462586.163 5   -218498.18821         8.750           0.156
  22906008.925    -1506793.352 6   -116295.58721        16.500           0.344
 91  5 15 19  7 59.9990000  0  6G19G16G18G 2G 6G11
  20507634.589       78723.632 6     15073.99921        17.500           0.813
  23097613.706    -1333583.621 5    -84281.72621         9.000           0.094
  21436291.550     1889719.078 7    176215.44421        21.750           0.656
  21971283.300    -2946398.476 6   -281193.93921        17.000           0.438
  23343624.464    -2502688.777 5   -249746.92421         8.000           0.188
  22902035.823    -1527682.808 6   -132573.07421        18.250           0.250
 91  5 15 19  8 14.9990000  0  6G19G16G18G 2G 6G11
  20508109.847       81230.942 6     17027.74121        17.750           0.781
  23094264.753    -1351232.584 5    -98034.17521         9.500           0.156
  21442482.987     1922256.560 7    201569.25721        21.000           0.594
  21962737.573    -2991325.329 6   -316201.81721        19.250           0.500
  23335986.558    -2542800.155 5   -281002.50321         7.750           0.188
  22898082.362    -1548461.316 6   -148764.09621        19.000           0.219
 91  5 15 19  8 29.9990000  0  6G19G16G18G 2G 6G11
  20508595.784       83749.419 6                        16.000
  23090911.480    -1368784.379 5                         8.000
  21448682.870     1954841.435 7                        20.000
  21954193.167    -3036220.208 7                        20.500
  23328337.401    -2582930.913 4                         6.500
  22894145.878    -1569139.137 6                        18.750
 91  5 15 19  8 44.9990000  0  6G19G16G18G 2G 6G11
  20509077.183       86295.807 6                        17.000
  23087602.347    -1386222.245 5                         8.500
  21454894.331     1987490.351 6                        17.500
  21945662.026    -3081066.334 7                        20.750
  23320710.339    -2623064.464 4                         6.500
  22890231.636    -1589699.528 6                        16.750
 91  5 15 19  8 59.9990000  0  6G19G16G18G 2G 6G11
  20509564.980       88867.699 6        -0.05531        13.500           0.500
  23084305.183    -1403548.695 5                         8.500
  21461120.081     2020200.897 6        -0.19331        16.250           0.438
  21937137.136    -3125865.906 6        -0.44131        19.250           0.500
  23313072.198    -2663203.089 4        -0.34831         6.500           0.031
  22886344.370    -1610144.606 6                        15.500
 91  5 15 19  9 14.9990000  0  6G19G16G18G 2G 6G11
  20510058.401       91463.827 6      2022.88121        17.500           0.781
  23081027.159    -1420764.673 5                        10.250
  21467357.550     2052971.338 7     25535.15621        21.750           0.656
  21928616.909    -3170620.026 7    -34873.74021        20.000           0.531
  23305440.417    -2703348.122 5                         8.750
  22882472.667    -1630475.475 6                        15.500
 91  5 15 19  9 29.9990000  0  6G19G16G18G 2G 6G11
  20510556.862       94076.339 6      4058.59821        17.000           0.844
  23077769.737    -1437878.405 6                        12.000
  21473602.394     2085793.697 7     51110.93921        20.500           0.594
  21920107.050    -3215336.498 6    -69717.71421        19.500           0.531
  23297799.206    -2743507.533 5                         9.500
  22878624.573    -1650699.768 6                        14.500
 91  5 15 19  9 44.9990000  0  6G19G16G18G 2G 6G11
  20511055.386       96704.733 6      6106.67321        18.250           0.844
  23074535.300    -1454890.074 6        -0.26831        12.000           0.094
  21479857.925     2118667.208 6     76726.60221        18.750           0.625
  21911601.581    -3260015.704 6   -104532.64421        17.500           0.688
  23290144.917    -2783681.826 5        -0.29531         9.500           0.188
  22874795.222    -1670817.812 6        -0.17431        14.500           0.281
 91  5 15 19  9 59.9990000  0  6G19G16G18G 2G 6G11
  20511559.034       99353.959 6      8170.99821        16.750           0.813
  23071319.511    -1471794.828 6    -13172.81121        12.750           0.094
  21486124.526     2151596.655 6    102385.83721        19.500           0.625
  21903105.206    -3304652.609 6   -139314.60821        16.000           0.625
  23282505.612    -2823866.092 5    -31312.62821         9.750           0.031
  22870988.331    -1690824.649 6    -15589.86421        15.000           0.219
 91  5 15 19 10 14.9990000  0  6G19G16G18G 2G 6G11
  20512068.425      102026.293 6     10253.32121        17.750           0.781
  23068119.862    -1488590.416 6    -26260.27721        12.250           0.281
  21492400.347     2184584.040 6    128090.22121        19.250           0.656
  21894623.480    -3349244.880 6   -174061.80121        16.750           0.563
  23274859.956    -2864058.114 5    -62631.01721        10.000           0.156
  22867203.183    -1710717.682 6    -31090.89721        16.000           0.375
 91  5 15 19 10 29.9990000  0  6G19G16G18G 2G 6G11
  20512584.159      104720.249 6     12352.50221        15.750           0.781
  23064949.409    -1505277.934 6    -39263.57321        12.500           0.156
  21498688.831     2217627.931 7    153838.67121        20.250           0.750
  21886145.628    -3393794.013 6   -208775.37521        17.750           0.500
  23267201.417    -2904259.354 5    -93956.62021         8.250           0.063
  22863440.026    -1730498.165 6    -46504.26221        18.000           0.313
 91  5 15 19 10 44.9990000  0  6G19G16G18G 2G 6G11
  20513099.940      107445.129 6     14475.77321        18.500           0.813
  23061791.862    -1521848.068 6    -52175.38221        13.000           0.156
  21504989.722     2250737.508 7    179638.24921        20.250           0.688
  21877681.448    -3438290.381 6   -243447.81321        18.750           0.625
  23259557.433    -2944460.537 5   -125282.16721         9.000           0.188
  22859700.440    -1750156.559 6    -61822.48921        19.000           0.250
 91  5 15 19 10 59.9990000  0  6G19G16G18G 2G 6G11
  20513621.855      110198.434 6     16621.17721        18.000           0.781
  23058659.683    -1538303.752 6    -64997.98621        12.250           0.125
  21511301.808     2283909.858 6    205486.74021        19.750           0.656
  21869221.714    -3482736.201 6   -278080.88421        18.500           0.500
  23251899.456    -2984664.375 5   -156609.80221         8.500           0.125
  22855981.940    -1769695.455 6    -77047.60321        18.000           0.281
 91  5 15 19 11 14.9990000  0  6G19G16G18G 2G 6G11
  20514152.112      112976.547 7     18785.92221        20.500           0.875
  23055553.448    -1554648.179 6    -77733.93321        13.000           0.281
  21517628.542     2317140.994 7    231381.07121        22.750           0.625
  21860774.034    -3527135.241 6   -312677.49421        17.750           0.625
  23244239.823    -3024874.444 5   -187942.27121         7.750           0.156
  22852282.698    -1789118.255 6    -92182.23721        15.500           0.313
 91  5 15 19 11 29.9990000  0  6G19G16G18G 2G 6G11
  20514688.456      115786.668 6     20975.61921        19.500           0.719
  23052462.706    -1570874.228 5    -90377.58521        11.750           0.188
  21523964.878     2350438.100 7    257326.78521        21.000           0.563
  21852336.284    -3571480.074 6   -347231.86821        17.000           0.563
  23236599.542    -3065083.511 5   -219273.96021         8.000           0.156
  22848610.667    -1808417.387 6   -107220.51821        13.500           0.250
 91  5 15 19 11 44.9990000  0  6G19G16G18G 2G 6G11
  20515227.605      118627.848 7     23189.50221        21.250           0.500
  23049400.151    -1586983.277 6   -102930.08121        13.000           0.188
  21530312.831     2383800.218 7    283323.16521        20.750           0.531
  21843904.081    -3615771.632 6   -381744.74921        17.250           0.531
  23228946.026    -3105292.625 5   -250605.69221         8.250           0.031
  22844963.550    -1827593.681 6   -122163.07921        14.250           0.313
 91  5 15 19 11 59.9990000  0  6G19G16G18G 2G 6G11
  20515778.761      121496.811 6     25425.05221        19.500           0.813
  23046356.495    -1602978.314 6   -115393.77721        13.000           0.281
  21536671.128     2417223.511 6    309367.21121        19.000           0.688
  21835488.972    -3660013.189 6   -416218.65221        18.500           0.813
  23221296.761    -3145505.113 5   -281940.12321        10.000           0.188
  22841337.065    -1846650.288 6   -137012.32421        15.000           0.500
 91  5 15 19 12 14.9990000  0  6G19G16G18G 2G 6G11
  20516324.581      124392.290 7     27681.24921        21.250           0.813
  23043331.472    -1618860.866 5   -127769.80021        11.500           0.313
  21543043.550     2450706.554 7    335457.79221        21.000           0.656
  21827075.855    -3704205.945 6   -450654.52521        17.500           0.750
  23213651.003    -3185722.302 5   -313278.10921        10.750           0.156
  22837731.425    -1865588.264 6   -151769.18621        14.750           0.344
 91  5 15 19 12 29.9990000  0  6G19G16G18G 2G 6G11
  20516887.636      127320.070 6     29962.61621        19.750           0.719
  23040330.862    -1634624.859 5   -140053.42821        11.000           0.125
  21549428.776     2484255.149 7    361599.48721        21.500           0.688
  21818679.237    -3748343.856 6   -485047.66621        18.500           0.719
  23205987.495    -3225938.436 5   -344615.28921         9.000           0.219
  22834151.605    -1884401.715 6   -166429.00021        15.500           0.344
 91  5 15 19 12 44.9990000  0  6G19G16G18G 2G 6G11
  20517442.065      130273.534 7     32263.98821        21.500           0.656
  23037349.620    -1650276.801 5   -152249.76821        10.750           0.188
  21555821.159     2517862.268 6    387786.76821        19.750           0.531
  21810290.526    -3792433.653 6   -519403.31521        19.500           0.500
  23198331.042    -3266160.196 5   -375956.83821         8.750           0.063
  22830597.815    -1903097.304 6   -180997.00821        16.500           0.188
 91  5 15 19 12 59.9990000  0  6G19G16G18G 2G 6G11
  20518014.433      133255.501 6     34587.59221        19.250           0.688
  23034397.683    -1665813.978 5   -164356.67421        11.250           0.219
  21562228.425     2551530.585 7    414021.75521        20.250           0.656
  21801908.745    -3836472.369 6   -553719.15121        19.750           0.781
  23190682.534    -3306384.820 5   -407300.71621         9.000           0.156
  22827059.355    -1921671.843 6   -195470.66921        15.500           0.281
 91  5 15 19 13 14.9990000  0  6G19G16G18G 2G 6G11
  20518582.737      136269.558 6                        18.250
  23031460.784    -1681232.810 5                        11.500
  21568647.995     2585263.686 7                        20.250
  21793540.128    -3880456.198 7                        20.000
  23183028.230    -3346608.609 5                         8.000
  22823547.972    -1940121.509 6                        14.750
 91  5 15 19 13 29.9990000  0  6G19G16G18G 2G 6G11
  20519165.972      139318.656 6                        17.750
  23028552.964    -1696530.219 5                        11.500
  21575079.534     2619064.227 6                        19.500
  21785178.628    -3924382.215 6                        19.250
  23175377.503    -3386828.646 5                         8.500
  22820065.870    -1958443.218 6                        15.750
 91  5 15 19 13 44.9990000  0  6G19G16G18G 2G 6G11
  20519750.065      142395.416 6        -0.46731        19.750           0.406
  23025664.659    -1711713.664 6                        12.250
  21581524.058     2652924.305 6                        18.750
  21776829.690    -3968257.654 6                        19.250
  23167718.245    -3427052.370 5                         7.750
  22816601.222    -1976644.158 6        -0.19531        15.500           0.094
 91  5 15 19 13 59.9990000  0  6G19G16G18G 2G 6G11
  20520346.433      145500.632 6      2419.17621        18.500           0.594
  23022792.862    -1726782.343 5                        11.250
  21587979.605     2686844.851 6        -0.28931        19.500           0.500
  21768491.526    -4012081.347 6        -0.15731        19.000           0.750
  23160066.659    -3467279.057 5                         8.000
  22813158.300    -1994723.325 6    -14087.83121        15.000           0.125
 91  5 15 19 14 14.9990000  0  6G19G16G18G 2G 6G11
  20520936.503      148636.016 6      4862.27221        18.250           0.469
  23019950.386    -1741734.738 5                        10.750
  21594447.245     2720827.375 6                        17.750
  21760158.823    -4055851.730 6                        17.500
  23152401.714    -3507507.045 5                         7.750
  22809743.355    -2012678.930 6                        15.000
 91  5 15 19 14 29.9990000  0  6G19G16G18G 2G 6G11
  20521544.730      151811.405 6      7336.62621        18.750           0.313
  23017124.183    -1756560.715 5                        11.000
  21600926.058     2754881.229 6                        18.500
  21751844.472    -4099559.082 6                        19.250
  23144751.058    -3547726.712 5                         8.500
  22806354.698    -2030501.288 6                        16.750
 91  5 15 19 14 44.9990000  0  6G19G16G18G 2G 6G11
  20522151.730      155021.605 6      9838.06021        19.000           0.563
  23014332.151    -1771265.864 5                        10.750
  21607420.339     2789001.182 7                        21.000
  21743538.683    -4143208.334 6                        18.250
  23137104.058    -3587943.255 5                         9.500
  22802982.112    -2048195.281 6                        14.500
 91  5 15 19 14 59.9990000  0  6G19G16G18G 2G 6G11
  20522773.050      158261.251 6     12362.44021        18.250           0.594
  23011546.761    -1785855.069 5                        10.000
  21613922.667     2823181.625 6        -0.20631        19.000           0.625
  21735239.300    -4186804.814 6        -0.16131        18.000           0.500
  23129453.136    -3628161.963 5                         8.500
  22799638.597    -2065766.082 6        -0.27331        14.500           0.250
 91  5 15 19 15 14.9990000  0  6G19G16G18G 2G 6G11
  20523393.222      161536.994 6     14914.94221        19.000           0.531
  23008802.425    -1800322.114 5                        11.000
  21620439.315     2857429.168 6     26686.10221        19.750           0.688
  21726956.792    -4230341.723 6    -33925.00721        18.500           0.469
  23121797.128    -3668376.176 5        -0.49631         7.750           0.094
  22796321.808    -2083206.976 6    -13590.56921        15.000           0.281
 91  5 15 19 15 29.9990000  0  6G19G16G18G 2G 6G11
  20524024.980      164838.630 6     17487.63221        19.500           0.469
  23006061.847    -1814677.196 5                        10.250
  21626969.972     2891733.095 7     53416.34521        21.250           0.656
  21718681.331    -4273829.219 6    -67811.31021        19.500           0.500
  23114147.073    -3708596.373 5    -31340.93321         9.000           0.188
  22793029.081    -2100528.019 6    -27087.45921        15.500           0.250
 91  5 15 19 15 44.9990000  0  6G19G16G18G 2G 6G11
  20524656.534      168179.218 6     20090.66421        19.250           0.719
  23003365.339    -1828907.257 6        -0.01631        12.500           0.188
  21633511.323     2926106.193 6     80200.50221        19.500           0.656
  21710417.269    -4317254.232 7   -101648.96621        20.750           0.531
  23106491.026    -3748809.456 5    -62675.73121         8.500           0.156
  22789754.284    -2117715.913 6    -40480.61821        14.250           0.250
 91  5 15 19 15 59.9990000  0  6G19G16G18G 2G 6G11
  20525299.847      171548.549 6     22716.11321        17.750           0.688
  23000670.081    -1843022.563 5    -10998.95021        10.750           0.219
  21640064.026     2960538.284 7    107030.62121        20.250           0.688
  21702162.323    -4360626.845 7   -135445.76721        21.250           0.563
  23098837.855    -3789025.526 5    -94012.83721         9.000           0.094
  22786504.800    -2134780.757 6    -53777.88421        14.000           0.188
 91  5 15 19 16 14.9990000  0  6G19G16G18G 2G 6G11
  20525946.261      174958.635 6     25373.28821        19.250           0.813
  22998012.698    -1857010.746 5    -21898.89321        11.250           0.219
  21646629.761     2995041.103 7    133915.85121        21.250           0.719
  21693924.831    -4403934.994 7   -169192.33021        21.500           0.656
  23091188.245    -3829232.798 5   -125343.14121        10.000           0.188
  22783287.245    -2151710.449 6    -66969.84621        14.250           0.188
 91  5 15 19 16 29.9990000  0  6G19G16G18G 2G 6G11
  20526606.370      178406.937 6     28060.24521        17.500           0.094
  22995369.823    -1870874.457 5    -32701.72721        10.000           0.156
  21653208.206     3029611.805 7    160853.96421        24.250           0.094
  21685692.151    -4447181.040 6   -202890.49921        19.250           0.031
  23083541.230    -3869433.790 5   -156668.53021         9.500           0.094
  22780090.659    -2168507.337 6    -80058.29421        14.250           0.188
 91  5 15 19 16 44.9990000  0  6G19G16G18G 2G 6G11
  20527266.034      181889.367 6     30773.83221        19.500           0.656
  22992762.073    -1884617.971 5    -43411.06621        10.250           0.156
  21659798.487     3064246.148 7    187841.72121        24.500           0.531
  21677476.464    -4490368.944 6   -236543.37021        18.000           0.656
  23075883.706    -3909632.543 5   -187992.12621         7.500           0.188
  22776917.347    -2185175.328 6                        13.750
 91  5 15 19 16 59.9990000  0  6G19G16G18G 2G 6G11
  20527938.214      185410.723 6     33517.71721        18.750           0.625
  22990165.253    -1898236.682 5    -54023.02821        10.500           0.156
  21666400.034     3098948.922 7    214882.76121        22.250           0.438
  21669268.956    -4533493.840 6   -270147.13621        17.750           0.656
  23068233.862    -3949824.283 5   -219310.32821         8.250           0.250
  22773770.878    -2201709.520 6                        14.250
 91  5 15 19 17 14.9990000  0  6G19G16G18G 2G 6G11
  20528611.409      188966.467 6     36288.40521        19.250           0.563
  22987600.847    -1911734.958 5    -64541.21021        10.500           0.156
  21673016.597     3133715.153 7    241973.27621        21.000           0.375
  21661072.144    -4576560.227 6   -303705.33021        18.750           0.563
  23060583.909    -3990013.678 5   -250626.73721         9.500           0.156
  22770650.480    -2218114.391 6        -0.16231        14.750           0.281
 91  5 15 19 17 29.9980000  0  6G19G16G18G 2G 6G11
  20529300.272      192563.914 6     39091.60321        19.000           0.656
  22985053.600    -1925104.341 5    -74958.94321        10.750           0.125
  21679644.795     3168549.894 6    269117.14721        19.500           0.438
  21652893.279    -4619557.544 7   -337209.68221        20.000           0.719
  23052942.990    -4030190.555 5   -281933.31721         9.000           0.188
  22767554.795    -2234381.131 6    -12675.53221        13.750           0.250
 91  5 15 19 17 44.9980000  0  6G19G16G18G 2G 6G11
  20529985.568      196194.494 7     41920.60921        20.500           0.688
  22982529.443    -1938356.055 5    -85284.93921         9.750           0.156
  21686286.889     3203448.496 6    296310.74121        18.250           0.438
  21644721.967    -4662500.665 7   -370671.79921        21.750           0.688
  23045296.701    -4070369.251 5   -313241.33521         8.750           0.219
  22764481.631    -2250520.799 6    -25251.87821        13.500           0.344
 91  5 15 19 17 59.9980000  0  6G19G16G18G 2G 6G11
  20530691.951      199862.243 6     44778.57921        19.250           0.813
  22980029.756    -1951484.442 5    -95514.87721         8.750           0.188
  21692939.561     3238412.813 6    323555.55821        17.250           0.563
  21636562.389    -4705382.246 7   -404085.98121        21.750           0.688
  23037654.006    -4110542.866 5   -344545.38721         9.500           0.281
  22761437.326    -2266527.828 6    -37724.89921        13.500           0.406
 91  5 15 19 18 14.9980000  0  6G19G16G18G 2G 6G11
  20531392.553      203573.446 7     47670.40921        21.500           0.688
  22977556.772    -1964483.640 5   -105644.16521         9.500           0.188
  21699606.279     3273448.730 6    350856.22521        17.750           0.438
  21628414.404    -4748196.066 7   -437447.34621        21.500           0.500
  23030006.701    -4150705.275 5   -375840.71421         9.250           0.094
  22758418.467    -2282396.107 6    -50089.75921        15.250           0.219
 91  5 15 19 18 29.9980000  0  6G19G16G18G 2G 6G11
  20532104.623      207317.703 6     50587.99921        19.000           0.719
  22975104.389    -1977363.776 5   -115680.62821         8.250           0.156
  21706284.061     3308545.745 6    378204.47721        17.000           0.594
  21620276.373    -4790952.258 7   -470763.82321        21.250           0.625
  23022371.787    -4190866.865 5   -407135.45621        10.000           0.156
  22755420.561    -2298135.683 6    -62354.37721        15.000           0.313
 91  5 15 19 18 44.9980000  0  6G19G16G18G 2G 6G11
  20532823.092      211094.469 6     53530.90521        18.250           0.875
  22972677.420    -1990125.494 5   -125624.85421         9.250           0.281
  21712977.100     3343702.867 6    405599.54621        19.250           0.375
  21612151.857    -4833651.358 6   -504035.80821        18.750           0.688
  23014733.482    -4231028.210 5   -438429.91621        11.000           0.188
  22752448.756    -2313746.975 6    -74519.02621        14.750           0.281
 91  5 15 19 18 59.9980000  0  6G19G16G18G 2G 6G11
  20533550.826      214912.885 6     56506.26421        17.750           0.625
  22970271.740    -2002759.908 5   -135469.83421         9.750           0.250
  21719680.232     3378929.179 7    433048.54021        21.000           0.469
  21604036.920    -4876284.036 6   -537256.02321        18.000           0.656
  23007089.014    -4271180.223 5   -469717.15421        10.750           0.156
  22749508.225    -2329220.718 6    -86576.45921        16.500           0.281
 91  5 15 19 19 14.9980000  0  6G19G16G18G 2G 6G11
  20534283.654      218773.657 6     59514.63821        19.000           0.469
  22967897.264    -2015266.082 5   -145214.93721        10.250           0.063
  21726395.553     3414225.325 6    460551.91921        18.500           0.438
  21595937.287    -4918849.521 6   -570423.90021        18.250           0.594
  22999454.365    -4311322.199 5   -500996.57421        11.250           0.094
  22746589.045    -2344556.221 6    -98526.19021        16.500           0.250
 91  5 15 19 19 29.9980000  0  6G19G16G18G 2G 6G11
  20535029.272      222679.707 6     62558.30021        19.000           0.563
  22965539.373    -2027641.042 5   -154857.75621        11.250           0.156
  21733127.764     3449593.925 6    488111.80421        19.500           0.594
  21587853.068    -4961344.883 6   -603537.12021        19.750           0.688
  22991810.240    -4351451.238 5   -532265.90221        11.500           0.031
  22743697.303    -2359750.289 6   -110365.72621        15.750           0.313
 91  5 15 19 19 44.9980000  0  6G19G16G18G 2G 6G11
  20535775.772      226627.746 6     65634.67021        19.000           0.531
  22963215.779    -2039888.144 5   -164400.96221        11.500           0.219
  21739871.303     3485031.418 7    515725.34121        20.250           0.563
  21579778.123    -5003773.203 6   -636598.11821        19.250           0.594
  22984176.779    -4391570.688 5   -563527.75421        11.000           0.125
  22740832.959    -2374806.217 6   -122097.61221        15.250           0.219
 91  5 15 19 19 59.9980000  0  6G19G16G18G 2G 6G11
  20536538.381      230612.206 6     68739.44521        18.250           0.469
  22960903.576    -2052013.254 6   -173849.15421        12.000           0.125
  21746626.647     3520531.758 7    543387.84921        20.250           0.594
  21571713.186    -5046140.207 6   -669611.33421        18.500           0.625
  22976546.522    -4431686.308 5   -594786.63621        11.000           0.031
  22737994.295    -2389729.517 6   -133726.10521        15.500           0.094
 91  5 15 19 20 14.9980000  0  6G19G16G18G 2G 6G11
  20537304.147      234637.105 6     71875.70221        19.500           0.469
  22958627.662    -2064012.259 6   -183199.03321        13.250           0.094
  21753394.436     3556099.088 6    571102.57021        18.500           0.500
  21563664.529    -5088441.733 6   -702573.50521        19.000           0.656
  22968907.256    -4471793.959 5   -626039.24221        10.000           0.125
  22735177.326    -2404515.998 6   -145248.01021        15.000           0.188
 91  5 15 19 20 29.9980000  0  6G19G16G18G 2G 6G11
  20538076.272      238701.831 6                        17.750
  22956359.951    -2075885.844 5                        11.500
  21760175.857     3591732.421 6                        19.750
  21555625.209    -5130678.341 6                        18.500
  22961277.201    -4511894.307 5                        10.250
  22732389.537    -2419166.168 6                        15.000
 91  5 15 19 20 44.9980000  0  6G19G16G18G 2G 6G11
  20538857.576      242805.204 6                        18.750
  22954130.381    -2087635.602 6                        12.750
  21766968.686     3627430.328 7                        20.750
  21547599.654    -5172851.291 6                        17.000
  22953655.279    -4551988.796 5                        10.000
  22729626.365    -2433681.181 6                        15.000
 91  5 15 19 20 59.9980000  0  6G19G16G18G 2G 6G11
  20539653.818      246948.085 6                        17.500
  22951906.201    -2099260.627 5                        10.000
  21773776.170     3663193.218 7                        20.750
  21539588.045    -5214959.659 6                        17.750
  22946022.647    -4592076.486 5                         9.250
  22726892.920    -2448060.088 6                        16.250
 91  5 15 19 21 14.9980000  0  6G19G16G18G 2G 6G11
  20540441.092      251129.856 7        -0.38932        21.000           1.625
  22949724.990    -2110761.359 5                        11.000
  21780591.092     3699020.384 6        -0.03731        19.500           1.250
  21531590.756    -5257003.826 6                        19.250
  22938398.131    -4632157.806 5                        11.750
  22724181.295    -2462303.289 6                        16.750
 91  5 15 19 21 29.9980000  0  6G19G16G18G 2G 6G11
  20541250.467      255354.328 6      3291.38621        19.250           0.531
  22947560.881    -2122133.954 5                        10.250
  21787423.436     3734915.612 6     27970.18821        17.750           0.375
  21523603.342    -5298979.929 6        -0.01931        19.250           0.656
  22930772.154    -4672229.203 5        -0.40731        10.500           0.063
  22721498.600    -2476406.805 6        -0.27431        15.500           0.125
 91  5 15 19 21 44.9980000  0  6G19G16G18G 2G 6G11
  20542057.865      259625.730 6      6619.74121        19.500           0.719
  22945418.897    -2133374.424 5        -0.14331         8.500           0.125
  21794268.014     3770882.859 6     55996.52021        19.500           0.375
  21515627.592    -5340883.552 6    -32652.14121        19.250           0.688
  22923140.443    -4712286.481 5    -31213.79821         9.000           0.156
  22718843.404    -2490366.482 6    -10877.94621        15.250           0.250
 91  5 15 19 21 59.9980000  0  6G19G16G18G 2G 6G11
  20542881.522      263935.839 6      9978.25521        17.750           0.625
  22943306.920    -2144490.882 5     -8662.30921        10.750           0.250
  21801123.779     3806913.531 6     84072.28621        19.000           0.500
  21507663.256    -5382722.920 6    -65254.20021        19.000           0.969
  22915524.365    -4752337.811 5    -62422.58021         9.250           0.250
  22716210.193    -2504190.409 6    -21649.78321        14.750           0.344
 91  5 15 19 22 14.9980000  0  6G19G16G18G 2G 6G11
  20543707.717      268287.345 6     13369.02121        18.500           0.531
  22941218.154    -2155480.858 5    -17225.94821        11.250           0.219
  21807992.279     3843010.141 7    112199.41221        20.250           0.500
  21499714.264    -5424495.257 6    -97804.04421        18.500           0.688
  22907903.842    -4792380.680 5    -93624.82921         8.000           0.188
  22713606.647    -2517875.834 6    -32313.72421        15.500           0.281
 91  5 15 19 22 29.9980000  0  6G19G16G18G 2G 6G11
  20544547.248      272688.495 6     16798.47221        19.250           0.656
  22939148.857    -2166336.547 5    -25684.96621        11.000           0.125
  21814875.037     3879180.482 6    140383.99821        18.000           0.625
  21491780.553    -5466192.586 6   -130295.43121        18.750           0.844
  22900291.506    -4832407.095 5   -124814.25821         9.500           0.250
  22711028.373    -2531414.678 6    -42863.44221        16.500           0.344
 91  5 15 19 22 44.9980000  0  6G19G16G18G 2G 6G11
  20545390.568      277131.007 7     20260.14821        21.000           0.563
  22937117.397    -2177065.866 6    -34045.48821        12.500           0.125
  21821770.936     3915416.037 6    168619.45721        16.250           0.438
  21483854.967    -5507822.912 6   -162734.60121        16.750           0.750
  22892675.725    -4872425.162 5   -155997.15921        11.000           0.094
  22708480.467    -2544814.945 6    -53305.19521        18.000           0.406
 91  5 15 19 22 59.9980000  0  6G19G16G18G 2G 6G11
  20546249.936      281618.317 6     23756.74321        19.750           0.594
  22935089.467    -2187665.278 5    -42304.73821        10.250           0.281
  21828682.193     3951720.369 6    196908.45321        16.500           0.469
  21475950.561    -5549382.615 6   -195118.75021        18.250           0.781
  22885057.670    -4912431.354 5   -187170.78821        10.250           0.156
  22705960.951    -2558072.949 6    -63636.09021        19.250           0.438
 91  5 15 19 23 14.9980000  0  6G19G16G18G 2G 6G11
  20547108.889      286153.812 7     27290.83621        20.750           0.125
  22933099.607    -2198131.630 5                        11.250
  21835602.186     3988096.629 6    225253.46321        16.250           0.063
  21468056.389    -5590868.169 6   -227445.11821        18.250           0.250
  22877450.772    -4952422.217 5                        11.000
  22703463.748    -2571185.200 6    -73853.44621        17.500           0.156
 91  5 15 19 23 29.9980000  0  6G19G16G18G 2G 6G11
  20547978.357      290727.571 6     30854.83021        19.000           0.688
  22931131.397    -2208475.080 5                        11.250
  21842535.857     4024534.602 6    253646.62721        15.250           0.313
  21460175.154    -5632289.540 7   -259721.45121        20.000           0.688
  22869841.287    -4992407.848 6                        12.000
  22700992.373    -2584161.514 6    -83964.80921        15.000           0.281
 91  5 15 19 23 44.9980000  0  6G19G16G18G 2G 6G11
  20548853.865      295346.810 6     34454.22121        19.500           0.594
  22929192.256    -2218688.126 5                        11.500
  21849481.045     4061041.296 6    282093.31621        15.500           0.188
  21452304.350    -5673639.460 7   -291942.13821        20.750           0.594
  22862230.701    -5032381.090 5                        11.250
  22698548.482    -2596994.664 6    -93964.68121        15.000           0.250
 91  5 15 19 23 59.9980000  0  6G19G16G18G 2G 6G11
  20549745.100      300009.675 6     38087.60621        18.250           0.750
  22927270.076    -2228772.916 6        -0.30731        12.000           0.250
  21856441.967     4097614.303 6    310591.66721        15.750           0.313
  21444448.295    -5714920.008 7   -324108.74821        20.500           0.813
  22854633.084    -5072344.074 5        -0.36131        11.250           0.188
  22696136.631    -2609686.601 6   -103854.45021        15.500           0.250
 91  5 15 19 24 14.9980000  0  6G19G16G18G 2G 6G11
  20550639.732      304721.191 6     41758.89421        18.250           0.813
  22925382.662    -2238724.445 5     -7754.74921        11.750           0.250
  21863413.428     4134258.336 6    339145.37321        13.750           0.438
  21436606.850    -5756125.682 7   -356217.03421        20.000           0.906
  22847026.529    -5112291.428 5    -31128.12621        10.750           0.219
  22693751.006    -2622231.945 6   -113630.02821        17.250           0.375
 91  5 15 19 24 29.9980000  0  6G19G16G18G 2G 6G11
  20551549.350      309479.235 6     45466.43821        16.500           0.781
  22923510.600    -2248544.707 5    -15406.93521        11.250           0.281
  21870402.725     4170971.500 6    367752.91421        12.750           0.344
  21428781.951    -5797258.643 7   -388268.66821        20.750           0.844
  22839420.295    -5152225.270 5    -62245.37621         9.500           0.250
  22691389.740    -2634632.693 6   -123292.93921        17.500           0.313
 91  5 15 19 24 44.9980000  0  6G19G16G18G 2G 6G11
  20552459.201      314283.007 6     49209.61421        17.500           0.094
  22921666.943    -2258234.849 6    -22957.71721        12.250           0.063
  21877401.701     4207752.680 5    396413.50321        10.500           0.031
  21420970.256    -5838319.563 7   -420264.17421        20.500           0.094
  22831825.459    -5192146.709 5    -93352.94221         9.500           0.125
  22689054.568    -2646889.662 6   -132843.86521        16.250           0.031
 91  5 15 19 24 59.9980000  0  6G19G16G18G 2G 6G11
  20553388.350      319133.068 6     52988.87221        17.250           0.719
  22919845.959    -2267794.597 5    -30406.85521        10.250           0.219
  21884414.639     4244602.171 5    425127.31921        11.500           0.281
  21413166.115    -5879307.979 6   -452203.15321        19.000           0.781
  22824239.123    -5232055.169 5   -124450.36521        11.250           0.219
  22686754.272    -2659002.361 6   -142282.28921        15.750           0.281
 91  5 15 19 25 14.9980000  0  6G19G16G18G 2G 6G11
  20554313.943      324031.579 6     56805.86721        19.250           0.719
  22918059.139    -2277221.624 5    -37752.64721        11.500           0.250
  21891441.912     4281521.612 6    453895.65421        12.500           0.250
  21405382.670    -5920221.760 7   -484083.97121        20.000           0.625
  22816652.022    -5271948.569 5   -155536.11121        11.000           0.219
  22684476.912    -2670968.668 6   -151606.63621        14.500           0.250
 91  5 15 19 25 29.9980000  0  6G19G16G18G 2G 6G11
  20555263.475      328978.916 7     60660.92321        20.500           0.844
  22916280.873    -2286515.717 5    -44994.81421        10.750           0.188
  21898482.443     4318511.090 6    482718.55721        12.250           0.188
  21397612.998    -5961060.551 7   -515906.37121        23.250           0.781
  22809057.912    -5311826.745 5   -186609.97421         9.750           0.156
  22682222.303    -2682788.152 6   -160816.59221        14.250           0.375
 91  5 15 19 25 44.9980000  0  6G19G16G18G 2G 6G11
  20556206.701      333972.491 7     64552.03121        21.750           0.750
  22914546.068    -2295679.592 6    -52135.52521        12.000           0.219
  21905532.920     4355568.027 6    511594.00021        12.000           0.188
  21389853.717    -6001826.743 7   -547672.19021        22.250           0.688
  22801476.607    -5351692.137 5   -217673.84521        11.250           0.156
  22679998.576    -2694463.310 6   -169914.11221        14.750           0.219
 91  5 15 19 25 59.9980000  0  6G19G16G18G 2G 6G11
  20557171.178      339014.494 7     68480.84421        20.500           0.969
  22912820.014    -2304710.988 5    -59172.97021        11.750           0.125
  21912594.920     4392694.417 5    540523.54421        11.750           0.281
  21382108.209    -6042517.952 7   -579379.59021        21.750           0.813
  22793886.545    -5391542.472 5   -248726.00521         9.750           0.219
  22677805.498    -2705991.611 6   -178897.18821        16.250           0.281
 91  5 15 19 26 14.9980000  0  6G19G16G18G 2G 6G11
  20558133.412      344098.084 7     72442.05421        20.000           0.688
  22911131.482    -2313617.005 5    -66112.71021        11.750           0.063
  21919674.147     4429882.935 5    569501.48721        11.750           0.156
  21374377.420    -6083140.956 7   -611033.83921        21.250           0.750
  22786301.412    -5431384.765 5   -279771.92121         8.000           0.094
  22675642.397    -2717380.010 6   -187771.24121        18.250           0.219
 91  5 15 19 26 29.9980000  0  6G19G16G18G 2G 6G11
  20559115.576      349225.870 6     76437.70121        17.500           0.500
  22909452.451    -2322394.880 5                        10.500
  21926764.029     4467136.125 5                        11.500
  21366664.107    -6123693.161 7   -642632.92921        21.250           0.563
  22778733.647    -5471216.481 5   -310809.60821        10.500           0.094
  22673502.076    -2728625.803 6   -196534.22321        17.500           0.125
 91  5 15 19 26 44.9980000  0  6G19G16G18G 2G 6G11
  20560093.678      354399.635 7     80469.18521        20.250           0.813
  22907811.037    -2331043.122 5                        11.250
  21933857.740     4504455.529 5                         9.750
  21358959.717    -6164172.656 7   -674175.34621        20.750           0.781
  22771149.936    -5511035.663 5   -341837.50021        10.500           0.125
  22671389.061    -2739727.055 6   -205184.52621        15.000           0.344
 91  5 15 19 26 59.9980000  0  6G19G16G18G 2G 6G11
  20561089.451      359623.972 6     84540.08721        19.000           0.656
  22906181.764    -2339557.466 5        -0.02731        10.000           0.156
  21940976.123     4541845.393 5                         9.250
  21351270.404    -6204574.939 7   -705657.58921        22.000           0.781
  22763572.428    -5550837.999 5   -372852.26121         9.500           0.219
  22669300.365    -2750679.276 6   -213718.69421        12.500           0.281
 91  5 15 19 27 14.9980000  0  6G19G16G18G 2G 6G11
  20562090.217      364900.812 7     88651.88921        20.000           0.625
  22904599.451    -2347935.972 5     -6528.76521        11.500           0.156
  21948106.365     4579307.499 5                         7.750
  21343599.318    -6244898.122 7   -737078.22321        23.250           0.719
  22756003.287    -5590621.604 5   -403852.43121        10.750           0.125
  22667243.904    -2761480.585 6                        13.250
 91  5 15 19 27 29.9980000  0  6G19G16G18G 2G 6G11
  20563109.764      370229.350 6                        19.250
  22903018.365    -2356179.058 5                        10.000
  21955250.545     4616840.993 5                         8.000
  21335939.592    -6285142.818 7                        23.000
  22748437.654    -5630387.177 5                        10.500
  22665220.350    -2772131.506 6                        14.250
 91  5 15 19 27 44.9980000  0  6G19G16G18G 2G 6G11
  20564127.639      375601.806 7                        20.250
  22901482.678    -2364294.806 5                        11.250
  21962404.725     4654437.587 5                         9.750
  21328294.365    -6325316.777 7                        23.250
  22740871.029    -5670142.565 5                        10.000
  22663221.381    -2782639.921 6                        16.250
 91  5 15 19 27 59.9980000  0  6G19G16G18G 2G 6G11
  20565163.326      381028.101 6        -0.43331        19.500           0.250
  22899956.912    -2372273.531 5                        10.000
  21969577.600     4692106.761 5                        10.750
  21320666.225    -6365410.205 7                        22.750
  22733302.912    -5709878.058 5        -0.36031         8.750           0.125
  22661250.279    -2792995.935 6                        16.250
 91  5 15 19 28 14.9980000  0  6G19G16G18G 2G 6G11
  20566200.459      386498.798 6      4262.44621        19.250           0.781
  22898464.006    -2380124.508 5        -0.33831         9.750           0.313
  21976754.561     4729839.000 5                        10.000
  21313049.779    -6405432.406 7        -0.17231        23.250           0.938
  22725749.318    -5749602.923 5    -30954.77321        11.000           0.219
  22659303.881    -2803208.833 6                        14.500
 91  5 15 19 28 29.9980000  0  6G19G16G18G 2G 6G11
  20567256.170      392015.857 6      8561.40321        18.500           0.656
  22896992.912    -2387846.215 5     -6017.27321         9.250           0.094
  21983946.186     4767635.928 5                        11.250
  21305447.318    -6445381.330 7    -31129.19821        23.250           0.906
  22718198.787    -5789315.447 6    -61899.50121        12.250           0.188
  22657388.967    -2813276.602 6                        14.000
 91  5 15 19 28 44.9980000  0  6G19G16G18G 2G 6G11
  20568311.568      397583.815 6                        18.750
  22895542.318    -2395434.062 5                         8.000
  21991153.639     4805501.979 6                        12.750
  21297858.318    -6485252.354 7                        22.750
  22710642.826    -5829010.943 5                        11.250
  22655502.193    -2823194.527 6                        14.750
 91  5 15 19 28 59.9980000  0  6G19G16G18G 2G 6G11
  20569383.990      403198.644 6                        18.000
  22894132.373    -2402892.311 5                         9.500
  21998369.131     4843433.001 5                        11.250
  21290287.303    -6525049.464 7                        23.750
  22703089.326    -5868693.573 5                        10.500
  22653646.584    -2832966.582 6                        17.250
 91  5 15 19 29 14.9980000  0  6G19G16G18G 2G 6G11
  20570459.709      408863.589 7                        20.250
  22892738.115    -2410217.632 5                         9.500
  22005601.022     4881431.592 5                         9.000
  21282729.522    -6564769.524 7                        23.000
  22695536.607    -5908360.146 5                         9.000
  22651814.397    -2842589.757 6                        19.000
 91  5 15 19 29 29.9980000  0  6G19G16G18G 2G 6G11
  20571548.037      414581.044 6        -0.39731        19.250           0.719
  22891373.490    -2417407.927 5        -0.49431        10.000           0.188
  22012849.357     4919500.100 5        -0.41331         8.750           0.156
  21275185.873    -6604409.915 7                        23.250
  22687994.279    -5948008.289 5                         9.500
  22650014.561    -2852061.447 7        -0.21131        20.000           0.281
 91  5 15 19 29 44.9980000  0  6G19G16G18G 2G 6G11
  20572642.100      420348.878 7      4493.99821        20.000           0.844
  22890026.373    -2424465.432 5     -5499.91021        10.750           0.156
  22020102.889     4957636.230 5                         7.750
  21267656.772    -6643972.699 7        -0.01431        23.500           1.000
  22680436.522    -5987640.111 5   -150868.98921         8.000           0.313
  22648237.873    -2861383.799 6     -7264.40621        18.250           0.281
 91  5 15 19 29 59.9980000  0  6G19G16G18G 2G 6G11
  20573752.803      426167.398 6      9027.89421        19.250           0.656
  22888713.662    -2431389.905 5    -10895.63421        11.000           0.219
  22027363.631     4995839.829 3                         5.250
  21260145.045    -6683457.503 7    -30767.36021        24.000           0.750
  22672902.936    -6027255.294 5   -181737.96921         9.500           0.094
  22646491.326    -2870556.460 6    -14411.92621        16.750           0.219
 91  5 15 19 30 14.9980000  0  6G19G16G18G 2G 6G11
  20574868.225      432034.142 6     13599.36821        19.750           0.781
  22887413.631    -2438184.052 5    -16189.82721        10.500           0.125
  22034649.428     5034108.132 4                         6.250
  21252643.006    -6722866.919 7    -61475.95421        21.750           0.719
  22665382.357    -6066856.491 6   -212595.94221        13.000           0.219
  22644774.631    -2879581.961 6    -21444.74121        16.250           0.188
 91  5 15 19 30 29.9980000  0  6G19G16G18G 2G 6G11
  20575997.482      437950.674 6     18209.65121        16.750           0.844
  22886154.795    -2444846.208 6    -21381.14421        12.000           0.156
  22041942.725     5072442.819 4                         6.250
  21245160.100    -6762199.205 7    -92124.45921        22.750           0.844
  22657847.529    -6106442.071 6   -243441.78221        12.000           0.094
  22643087.654    -2888458.502 6    -28361.50621        18.750           0.250
 91  5 15 19 30 44.9980000  0  6G19G16G18G 2G 6G11
  20577129.201      443917.146 6     22858.82621        16.750           0.406
  22884904.600    -2451376.179 5    -26469.47721         9.750           0.031
  22049255.428     5110843.411 4                         7.250
  21237689.647    -6801454.320 7   -122712.82821        20.750           0.406
  22650317.264    -6146012.043 5   -274275.49521        10.250           0.031
  22641427.920    -2897186.023 6    -35162.17021        18.500           0.094
 91  5 15 19 30 59.9980000  0  6G19G16G18G 2G 6G11
  20578272.506      449925.813 6     27540.88821        16.750           0.781
  22883692.389    -2457782.172 5    -31461.23721        11.000           0.125
  22056575.795     5149302.262 5                         8.750
  21230233.162    -6840639.893 7   -153247.01521        22.750           0.844
  22642784.725    -6185574.028 5   -305102.97721        11.500           0.156
  22639791.787    -2905772.248 7    -41852.74821        20.000           0.219
 91  5 15 19 31 14.9980000  0  6G19G16G18G 2G 6G11
  20579425.561      455985.913 6     32263.01121        19.000           0.719
  22882496.154    -2464055.161 5    -36349.29721        11.250           0.063
  22063901.904     5187827.994 5                         7.500
  21222791.404    -6879746.764 7   -183719.85521        24.000           0.906
  22635261.975    -6225119.045 5   -335917.25921        11.750           0.156
  22638185.076    -2914208.005 6    -48426.06721        17.750           0.281
 91  5 15 19 31 29.9980000  0  6G19G16G18G 2G 6G11
  20580588.779      462092.264 6     37021.18221        18.750           0.781
  22881325.107    -2470200.496 5    -41137.93421        10.000           0.125
  22071249.600     5226415.108 5                         7.750
  21215364.803    -6918780.012 7   -214135.32821        23.750           0.813
  22627741.709    -6264652.266 6   -366722.31621        12.000           0.188
  22636609.420    -2922498.565 6    -54886.24121        14.750           0.219
 91  5 15 19 31 44.9980000  0  6G19G16G18G 2G 6G11
  20581759.615      468246.221 7     41816.44821        21.000           0.781
  22880185.514    -2476216.668 5    -45825.91221        11.000           0.156
  22078606.139     5265064.912 5                         7.500
  21207949.967    -6957738.139 7   -244492.27321        23.000           0.813
  22620220.178    -6304172.205 6   -397517.02621        12.000           0.219
  22635058.365    -2930642.338 6    -61232.02821        14.500           0.125
 91  5 15 19 31 59.9980000  0  6G19G16G18G 2G 6G11
  20582942.006      474445.634 7     46647.13921        20.000           1.000
  22879064.576    -2482105.913 5    -50414.98421        11.500           0.188
  22085972.029     5303775.228 4                         7.000
  21200549.170    -6996623.194 7   -274792.28321        21.250           0.938
  22612699.365    -6343681.054 6   -428303.12221        12.500           0.219
  22633539.717    -2938641.399 6    -67465.04221        17.000           0.313
 91  5 15 19 32 14.9980000  0  6G19G16G18G 2G 6G11
  20584128.982      480696.353 7     51517.81721        20.750           0.781
  22877972.107    -2487862.291 5    -54900.49521        11.500           0.156
  22093351.381     5342551.456 4                         6.750
  21193162.436    -7035429.298 6   -305030.76721        19.250           0.813
  22605186.943    -6383173.058 6   -459076.05721        12.500           0.281
  22632044.662    -2946489.869 6    -73580.73221        18.250           0.219
 91  5 15 19 32 29.9980000  0  6G19G16G18G 2G 6G11
  20585329.553      486993.224 7     56424.44921        20.750           0.719
  22876900.506    -2493491.576 6    -59286.98121        13.000           0.156
  22100739.772     5381388.218 4                         6.750
  21185792.209    -7074161.702 6   -335211.83021        19.000           0.719
  22597670.975    -6422653.529 6   -489840.01421        13.250           0.250
  22630576.826    -2954193.039 6    -79583.24021        19.000           0.219
 91  5 15 19 32 44.9980000  0  6G19G16G18G 2G 6G11
  20586531.545      493335.775 6     61366.67521        18.500           0.438
  22875854.920    -2498994.178 5    -63574.77921        11.250           0.156
  22108141.404     5420284.626 4                         6.250
  21178437.225    -7112820.863 6   -365335.81721        18.750           0.563
  22590169.022    -6462122.918 6                        12.000
  22629139.389    -2961751.375 6    -85472.86421        15.750           0.156
 91  5 15 19 32 59.9980000  0  6G19G16G18G 2G 6G11
  20587751.022      499729.709 6     66348.94321        18.250           0.094
  22874827.826    -2504364.524 5                        10.250
  22115554.576     5459246.007 4                         6.500
  21171098.240    -7151400.947 7   -395398.20621        20.750           0.031
  22582655.037    -6501575.455 5                        10.750
  22627728.397    -2969159.041 6                        14.250
 91  5 15 19 33 14.9980000  0  6G19G16G18G 2G 6G11
  20588977.264      506175.530 7     71371.64221        20.500           0.688
  22873837.006    -2509602.256 5                        11.750
  22122980.357     5498272.993 4                         7.250
  21163770.584    -7189901.436 7   -425398.52221        22.500           0.688
  22575155.631    -6541010.601 5                        11.500
  22626351.311    -2976415.465 6                        15.750
 91  5 15 19 33 29.9980000  0  6G19G16G18G 2G 6G11
  20590218.373      512672.061 6     76433.84921        18.750           0.719
  22872859.147    -2514708.800 5                        11.000
  22130424.998     5537364.192 5                         9.000
  21156456.607    -7228323.663 7   -455337.88721        22.750           0.781
  22567647.193    -6580429.766 5        -0.40831        10.500           0.250
  22624997.061    -2983522.039 6                        16.250
 91  5 15 19 33 44.9980000  0  6G19G16G18G 2G 6G11
  20591460.037      519219.867 7     81536.02221        21.500           0.875
  22871914.592    -2519683.650 5                        10.750
  22137865.873     5576519.425 4                         6.750
  21149163.139    -7266666.923 7   -485215.71721        23.000           0.719
  22560147.514    -6619832.414 5    -30703.72021         9.500           0.250
  22623673.490    -2990478.158 6        -0.36531        16.750           0.313
 91  5 15 19 33 59.9980000  0  6G19G16G18G 2G 6G11
  20592716.842      525817.395 6     86676.94221        19.750           0.844
  22870988.764    -2524528.597 5                        10.500
  22145332.037     5615737.184 4                         7.000
  21141879.990    -7304932.693 7   -515033.15921        22.500           0.906
  22552653.201    -6659220.053 5    -61395.34221        10.250           0.156
  22622373.490    -2997285.306 6     -5304.62921        16.250           0.313
 91  5 15 19 34 14.9980000  0  6G19G16G18G 2G 6G11
  20593978.350      532463.592 7     91855.76921        23.000           0.938
  22870090.803    -2529244.744 5                        11.250
  22152811.037     5655016.070 5        -0.17331         9.250           0.094
  21134610.123    -7343122.262 7   -544791.22421        22.000           0.969
  22545164.654    -6698593.962 5    -92076.33021        11.500           0.156
  22621106.639    -3003944.655 6    -10493.76721        16.000           0.250
 91  5 15 19 34 29.9980000  0  6G19G16G18G 2G 6G11
  20595255.772      539162.337 7     97075.55721        20.750           1.000
  22869219.678    -2533828.517 5                        10.750
  22160294.084     5694359.578 5     30657.06121         9.250           0.094
  21127359.256    -7381231.461 7   -574486.67321        21.250           0.938
  22537672.100    -6737950.178 5   -122743.45121        11.250           0.188
  22619869.522    -3010452.234 6    -15564.60521        14.750           0.188
 91  5 15 19 34 44.9980000  0  6G19G16G18G 2G 6G11
  20596538.928      545914.925 7    102337.28721        21.250           0.938
  22868372.709    -2538278.394 5                        11.000
  22167797.811     5733768.909 5     61365.52121        10.250           0.250
  21120125.662    -7419258.872 7   -604118.39121        22.750           0.813
  22530186.373    -6777287.312 5   -153395.71721        11.250           0.188
  22618662.522    -3016806.724 6    -20516.14321        15.250           0.250
 91  5 15 19 34 59.9980000  0  6G19G16G18G 2G 6G11
  20597834.654      552711.633 7    107633.38621        20.250           0.906
  22867553.287    -2542604.328 5        -0.05931        11.000           0.188
  22175307.295     5773234.042 5     92117.38021         9.500           0.125
  21112900.779    -7457214.377 7   -633694.07421        22.500           0.719
  22522699.287    -6816615.255 5   -184040.84621        11.500           0.031
  22617480.498    -3023017.957 6    -25356.06721        16.000           0.188
 91  5 15 19 35 14.9980000  0  6G19G16G18G 2G 6G11
  20599136.061      559558.362 7    112968.47821        20.000           0.906
  22866746.865    -2546800.542 5     -3269.84621        10.000           0.094
  22182828.381     5812760.724 5    122917.31721         9.000           0.125
  21105693.568    -7495091.970 7   -663209.03421        24.250           0.719
  22515222.428    -6855928.058 6   -214674.19921        12.000           0.156
  22616325.748    -3029079.872 6    -30079.65421        16.750           0.250
 91  5 15 19 35 29.9980000  0  6G19G16G18G 2G 6G11
  20600454.256      566451.139 6    118339.44521        19.000           0.750
  22865982.373    -2550871.294 5     -6441.89721        10.750           0.125
  22190361.764     5852344.576 5    153761.82821         9.750           0.094
  21098500.147    -7532895.478 7   -692666.27621        24.250           0.750
  22507740.615    -6895229.604 5   -245298.71921        11.750           0.156
  22615201.139    -3034996.369 6    -34689.91021        16.250           0.250
 91  5 15 19 35 44.9980000  0  6G19G16G18G 2G 6G11
  20601766.443      573393.778 6                        19.750
  22865221.826    -2554812.777 5     -9513.18421         9.750           0.219
  22197906.678     5891989.258 5                        10.500
  21091319.818    -7570621.113 7                        22.000
  22500265.287    -6934516.323 5                        11.250
  22614103.662    -3040763.895 6                        15.000
 91  5 15 19 35 59.9980000  0  6G19G16G18G 2G 6G11
  20603099.076      580381.775 7                        20.750
  22864505.967    -2558629.756 5    -12487.49221         9.750           0.313
  22205456.256     5931689.758 5                         9.250
  21084156.053    -7608273.441 7                        21.750
  22492792.553    -6973792.826 5                        11.250
  22613035.061    -3046386.963 6                        14.750
 91  5 15 19 36 14.9980000  0  6G19G16G18G 2G 6G11
  20604436.842      587418.459 7        -0.42431        22.500           0.781
  22863792.639    -2562319.315 5    -15362.50021        10.000           0.250
  22213025.865     5971449.272 5                        10.000
  21077004.522    -7645849.154 7        -0.03931        21.000           0.844
  22485320.248    -7013055.710 5                        11.250
  22611990.928    -3051862.221 6                        13.750
 91  5 15 19 36 29.9980000  0  6G19G16G18G 2G 6G11
  20605788.920      594513.714 7      5528.33321        21.500           0.688
  22863128.647    -2565871.442 5    -18130.42021        10.250           0.188
  22220601.303     6011277.500 5        -0.34331        10.000           0.125
  21069871.350    -7683338.217 7    -29212.27921        22.750           0.656
  22477848.701    -7052294.999 5        -0.22431        11.500           0.094
  22610977.428    -3057179.657 6        -0.06431        14.500           0.219
 91  5 15 19 36 44.9980000  0  6G19G16G18G 2G 6G11
  20607145.436      601657.171 6     11094.64021        19.750           0.813
  22862455.686    -2569296.671 5    -20799.47721         7.500           0.250
  22228195.014     6051163.586 5                         9.750
  21062752.193    -7720751.180 7    -58365.21921        21.500           0.719
  22470390.639    -7091521.357 5    -30566.18421        11.250           0.188
  22609994.350    -3062349.839 6     -4028.81921        14.750           0.063
 91  5 15 19 36 59.9980000  0  6G19G16G18G 2G 6G11
  20608515.967      608844.868 6     16695.42121        17.000           0.875
  22861846.568    -2572598.987 5    -23372.73321         9.000           0.219
  22235790.787     6091103.419 5                         9.250
  21055648.225    -7758091.745 7    -87461.71621        23.250           0.781
  22462926.842    -7130738.530 5    -61124.98421        11.000           0.188
  22609038.014    -3067376.511 6     -7945.72721        15.750           0.281
 91  5 15 19 37 14.9980000  0  6G19G16G18G 2G 6G11
  20609890.490      616077.756 6     22331.39521        19.750           0.844
  22861211.381    -2575777.918 4    -25849.83821         7.250           0.188
  22243408.475     6131097.739 5                         8.500
  21048556.982    -7795359.015 7   -116501.12221        25.750           0.594
  22455461.678    -7169945.794 5    -91676.08321        11.500           0.219
  22608110.139    -3072259.001 6    -11750.25721        16.500           0.250
 91  5 15 19 37 29.9980000  0  6G19G16G18G 2G 6G11
  20611282.404      623362.491 6     28007.78121        16.500           0.938
  22860645.740    -2578826.839 4    -28225.65021         6.750           0.219
  22251025.803     6171152.768 4                         7.000
  21041479.084    -7832546.554 7   -145478.39821        24.500           0.781
  22448005.467    -7209136.516 5   -122214.28721        10.750           0.344
  22607210.701    -3076990.689 6    -15437.28121        14.500           0.250
 91  5 15 19 37 44.9980000  0  6G19G16G18G 2G 6G11
  20612671.732      630701.422 6                        18.250
  22860086.576    -2581743.819 5                         7.500
  22258663.342     6211270.299 4                         6.750
  21034417.248    -7869651.787 7                        22.250
  22440548.732    -7248308.398 5                        10.000
  22606340.670    -3081569.245 6                        14.500
 91  5 15 19 37 59.9980000  0  6G19G16G18G 2G 6G11
  20614085.178      638090.811 6                        14.500
  22859562.717    -2584532.225 4                         7.000
  22266311.654     6251447.012 4                         6.250
  21027369.967    -7906678.312 6                        16.750
  22433103.647    -7287464.938 5                        10.000
  22605495.186    -3085998.236 6                        12.000
 91  5 15 19 38 14.9980000  0  6G19G16G18G 2G 6G11
  20615495.662      645529.547 6                        19.000
  22859061.506    -2587193.525 5                         8.000
  22273966.365     6291681.242 4                         6.750
  21020336.092    -7943627.399 6                        17.500
  22425653.178    -7326607.557 5                        10.750
  22604680.764    -3090278.881 6                        14.000
 91  5 15 19 38 29.9980000  0  6G19G16G18G 2G 6G11
  20616922.303      653019.978 6        -0.09231        19.500           0.625
  22858585.381    -2589725.590 5        -0.35531        11.000           0.188
  22281632.303     6331975.211 3                         5.500
  21013322.311    -7980496.504 6        -0.46331        19.250           0.969
  22418205.381    -7365733.822 5        -0.01931        11.000           0.344
  22603895.436    -3094408.793 6        -0.32231        15.500           0.219
 91  5 15 19 38 44.9980000  0  6G19G16G18G 2G 6G11
  20618354.490      660559.435 6      5874.80921        18.500           0.719
  22858132.639    -2592131.099 5     -1874.75321        10.250           0.281
  22289312.857     6372325.965 4        -0.41331         6.500           0.094
  21006321.795    -8017288.414 6    -28669.45921        19.250           1.094
  22410764.756    -7404846.368 5    -30477.26821        10.250           0.281
  22603136.717    -3098390.831 6     -3103.21121        13.250           0.281
 91  5 15 19 38 59.9980000  0  6G19G16G18G 2G 6G11
  20619804.436      668150.611 6     11789.99921        18.750           0.688
  22857695.857    -2594407.652 5     -3648.72621        10.750           0.250
  22297003.467     6412735.795 5     31487.66421         7.500           0.063
  20999338.381    -8054000.309 7    -57276.09021        23.250           1.125
  22403317.272    -7443942.535 5    -60941.77421         9.750           0.219
  22602408.279    -3102222.255 6     -6088.73521        15.250           0.438
 91  5 15 19 39 14.9980000  0  6G19G16G18G 2G 6G11
  20621253.068      675785.758 7     17739.42221        20.000           0.375
  22857288.397    -2596563.251 5                        11.500
  22304700.514     6453196.607 5                         8.500
  20992366.475    -8090639.876 7    -85826.40621        24.250           0.594
  22395887.365    -7483030.105 5    -91399.62821         9.750           0.188
  22601705.420    -3105910.659 6     -8962.82221        15.500           0.156
 91  5 15 19 39 29.9980000  0  6G19G16G18G 2G 6G11
  20622717.232      683472.146 6                        16.000
  22856894.568    -2598590.998 5                         9.500
  22312411.326     6493715.183 5                         8.500
  20985408.232    -8127200.181 7                        22.000
  22388449.772    -7522102.060 5                         9.500
  22601036.045    -3109449.138 6    -11720.07221        15.000           0.375
 91  5 15 19 39 44.9980000  0  4G19G 2G 6G11
  20624186.123      691207.552 6                        16.250
  20978466.811    -8163683.215 7                        22.000
  22381021.209    -7561160.501 5                         9.750
  22600389.350    -3112839.771 6    -14362.12221        14.250           0.156
 91  5 15 19 39 59.9980000  0  3G 2G 6G11
  20971534.865    -8200089.965 6                        13.750
  22373590.451    -7600206.422 4                         6.500
  22599766.248    -3116083.681 5                         8.750
 91  5 15 19 40 14.9980000  0  5G19G18G 2G 6G11
  20627159.764        7832.039 6                        17.250
  22335604.404          -0.26115                        10.750
  20964624.061    -8236418.947 7                        22.250
  22366164.857    -7639238.454 5                        11.500
  22599178.537    -3119179.463 6                        12.500
 91  5 15 19 40 29.9980000  0  6G19G16G18G 2G 6G11
  20628661.217       15718.775 6                        15.500
  22855587.287       -1523.136 5                         8.250
  22343359.600       40743.139 5                        11.500
  20957728.982    -8272666.041 7                        20.250
  22358743.256    -7678252.382 5                        11.500
  22598621.498    -3122122.949 6                        12.500
 91  5 15 19 40 44.9980000  0  6G19G16G18G 2G 6G11
  20630168.764       23648.392 6                        16.750
  22855324.607       -2926.570 5                         9.000
  22351121.936       81534.534 5                        11.250
  20950841.709    -8308842.026 6                        19.000
  22351314.350    -7717259.091 5        -0.49531        10.000           0.125
  22598090.959    -3124925.041 6                        13.000
 91  5 15 19 40 59.9980000  0  6G19G16G18G 2G 6G11
  20631692.498       31629.518 6                        16.250
  22855080.936       -4202.649 5                         9.750
  22358892.123      122382.745 5                        11.250
  20943971.404    -8344938.221 6                        19.500
  22343899.475    -7756249.994 5    -30382.97621        11.250           0.188
  22597587.225    -3127577.099 6                        14.000
 91  5 15 19 41 14.9980000  0  6G19G16G18G 2G 6G11
  20633217.529       39658.737 6        -0.11731        18.250           0.625
  22854863.545       -5355.106 5                         9.500
  22366679.568      163283.722 6        -0.35931        14.250           0.219
  20937119.545    -8380958.046 7        -0.04431        21.750           0.969
  22336482.209    -7795228.598 5    -60755.87021        11.750           0.188
  22597110.725    -3130082.805 6        -0.26231        15.500           0.281
 91  5 15 19 41 29.9980000  0  6G19G16G18G 2G 6G11
  20634759.318       47739.063 6      6296.22121        14.750           0.594
  22854669.232       -6381.031 5                        10.500
  22374474.475      204240.268 6     31913.69021        14.750           0.281
  20930278.865    -8416898.365 7    -28005.46521        22.000           0.969
  22329068.795    -7834191.685 6    -91116.69621        12.250           0.156
  22596658.803    -3132438.821 6     -1836.12421        15.000           0.250
 91  5 15 19 41 44.9980000  0  6G19G16G18G 2G 6G11
  20636300.115       55870.350 6     12632.27921        16.250           0.500
  22854502.912       -7280.941 5        -0.15031        10.500           0.125
  22382278.920      245252.055 6     63870.82321        15.750           0.281
  20923455.357    -8452759.438 7    -55949.12321        23.500           1.063
  22321655.967    -7873139.669 6   -121465.69921        12.750           0.281
  22596238.397    -3134645.579 6     -3555.71621        13.500           0.281
 91  5 15 19 41 59.9980000  0  6G19G16G18G 2G 6G11
  20637860.701       64047.579 6     19004.11721        16.500           0.531
  22854348.131       -8059.664 5      -606.98821         9.250           0.063
  22390093.584      286313.845 6     95866.90221        16.000           0.281
  20916645.420    -8488546.112 7    -83834.80921        25.500           1.031
  22314243.647    -7912077.408 6   -151806.77521        13.250           0.188
  22595841.772    -3136708.030 6     -5162.81421        13.750           0.313
 91  5 15 19 42 14.9980000  0  6G19G16G18G 2G 6G11
  20639422.412       72272.198 6     25412.89521        17.750           0.625
  22854222.264       -8716.217 5     -1118.68821        10.250           0.031
  22397914.514      327426.787 6    127902.84621        13.250           0.281
  20909850.732    -8524257.047 7   -111661.47821        23.250           1.031
  22306830.365    -7951003.591 6   -182138.79921        12.000           0.125
  22595478.787    -3138625.027 6     -6656.60021        14.500           0.250
 91  5 15 19 42 29.9980000  0  6G19G16G18G 2G 6G11
  20641001.967       80552.282 6     31864.87721        16.750           0.250
  22854123.240       -9242.587 5                        10.750
  22405748.928      368598.677 6    159984.72621        14.500           0.125
  20903067.584    -8559884.221 7   -139422.89721        21.000           0.344
  22299427.498    -7989910.131 6   -212455.55221        12.250           0.125
  22595144.889    -3140388.359 6     -8030.64121        14.500           0.188
 91  5 15 19 42 44.9980000  0  6G19G16G18G 2G 6G11
  20642583.748       88884.642 6     38357.58721        17.000           0.375
  22854051.779       -9642.225 5                         9.500
  22413593.326      409825.920 6    192109.71421        14.000           0.063
  20896305.795    -8595430.658 7   -167121.39021        20.500           0.406
  22292034.904    -8028800.251 6                        13.500
  22594840.545    -3142001.283 6     -9287.47621        13.500           0.156
 91  5 15 19 42 59.9980000  0  6G19G16G18G 2G 6G11
  20644184.936       97268.584 6                        15.250
  22853994.100       -9916.210 5                         9.500
  22421448.764      451107.839 6                        14.750
  20889555.990    -8630897.035 7                        22.000
  22284637.662    -8067674.686 6                        13.250
  22594561.404    -3143464.627 6                        13.250
 91  5 15 19 43 14.9980000  0  6G19G16G18G 2G 6G11
  20645783.397      105703.089 6                        17.500
  22853967.311      -10065.773 5                        10.250
  22429316.404      492442.825 6                        16.000
  20882820.912    -8666284.518 7                        24.000
  22277238.693    -8106534.504 6                        12.750
  22594310.701    -3144779.396 6                        14.250
 91  5 15 19 43 29.9980000  0  6G19G16G18G 2G 6G11
  20647402.717      114194.743 6                        17.000
  22853958.045      -10084.304 5                         7.500
  22437190.717      533837.190 6        -0.47331        14.250           0.563
  20876107.397    -8701586.534 7                        25.500
  22269841.240    -8145373.192 6                        12.250
  22594085.928    -3145939.059 6        -0.40431        14.500           0.750
 91  5 15 19 43 44.9980000  0  6G19G16G18G 2G 6G11
  20649025.131      122731.943 6        -0.49232        18.250           1.688
  22853981.811       -9983.268 5                         8.750
  22445079.381      575279.292 6     32291.93221        14.750           0.438
  20869402.826    -8736814.740 7        -0.17332        24.750           2.000
  22262455.061    -8184202.148 6        -0.26731        12.750           0.375
  22593892.420    -3146955.316 6      -792.36121        13.500           0.813
 91  5 15 19 43 59.9980000  0  6G19G16G18G 2G 6G11
  20650659.412      131320.183 6                        17.000
  22854028.272       -9757.881 5                         9.750
  22452973.709      616774.333 6     64625.60421        14.000           0.281
  20862711.451    -8771963.559 7    -27388.82422        24.250           1.594
  22255076.443    -8223016.025 6                        13.500
  22593726.342    -3147822.590 6     -1468.14221        12.750           0.750
 91  5 15 19 44 14.9980000  0  6G19G16G18G 2G 6G11
  20652303.350      139962.022 6                        18.250
  22854094.834       -9405.679 5                         9.750
  22460879.139      658324.265 6     97002.03621        12.750           0.469
  20856039.568    -8807030.473 7    -54713.67622        24.750           1.719
  22247687.865    -8261812.429 6                        12.250
  22593591.748    -3148538.641 6     -2026.10921        13.250           0.875
 91  5 15 19 44 29.9980000  0  6G19G16G18G 2G 6G11
  20653962.162      148655.751 6                        16.750
  22854181.147       -8928.510 5                         9.500
  22468797.365      699927.312 6    129419.84721        14.000           0.469
  20849381.670    -8842017.175 7    -81975.99022        24.000           2.281
  22240309.170    -8300593.018 5                        11.250
  22593487.670    -3149105.221 6     -2467.58521        15.000           1.031
 91  5 15 19 44 44.9980000  0  6G19G16G18G 2G 6G11
  20655623.506      157402.745 6        -0.36831        16.500           0.094
  22854302.756       -8325.445 5                        11.750
  22476724.342      741584.274 6    161879.63521        13.000           0.031
  20842738.811    -8876922.346 7   -109174.83821        23.000           0.031
  22232925.873    -8339356.534 5                        10.500
  22593408.240    -3149521.156 6     -2791.73321        16.500           0.219
 91  5 15 19 44 59.9980000  0  6G19G16G18G 2G 6G11
  20657299.006      166204.275 6                        15.000
  22854439.701       -7595.186 5                        10.750
  22484665.123      783296.325 6                        13.500
  20836109.537    -8911744.681 7                        22.750
  22225566.193    -8378101.594 6                        12.500
  22593362.022    -3149785.073 6                        16.750
 91  5 15 19 45 14.9980000  0  6G19G16G18G 2G 6G11
  20658980.357      175055.003 6                        15.750
  22854598.107       -6743.179 5                         9.750
  22492612.311      825058.026 6                        14.500
  20829500.209    -8946489.327 7                        24.000
  22218190.897    -8416833.485 6                        12.750
  22593335.842    -3149902.360 6                        15.000
 91  5 15 19 45 29.9980000  0  6G19G16G18G 2G 6G11
  20660677.654      183958.897 6                        13.750
  22854791.264       -5765.849 5                         9.500
  22500569.209      866872.953 6                        12.000
  20822905.568    -8981152.375 7        -0.46131        23.500           0.938
  22210828.381    -8455548.352 6                        12.750
  22593342.693    -3149869.200 6                        14.500
 91  5 15 19 45 59.9980000  0  6G19G16G18G 2G 6G11
  20664101.818        9010.315 6                        14.750
  22855233.295        1226.595 5                         8.250
  22516511.701       41921.357 6                        12.250
  20809763.732                      -34499.397 7        25.500
  22196091.912      -38680.008 5                        10.750
  22593439.365         333.277 6                        16.250
 91  5 15 19 46 14.9980000  0  6G19G16G18G 2G 6G11
  20665820.975       18074.514 6                        17.500
  22855483.889        2579.535 5                         8.750
  22524497.748       83895.226 6                        12.500
  20803213.686                      -68916.810 7        24.000
  22188744.420      -77343.065 6                        12.500
  22593537.193         818.209 6                        16.500
 91  5 15 19 46 29.9980000  0  6G19G16G18G 2G 6G11
  20667558.334       27194.205 6                        15.250
  22855773.732        4059.282 5                        10.000
  22532499.006      125923.500 6        -0.32931        14.250           0.500
  20796676.553     -103250.521 7        -0.48732        22.750           1.906
  22181392.100     -115986.923 6        -0.23731        12.750           0.625
  22593656.959        1455.540 6                        16.250
 91  5 15 19 46 44.9980000  0  6G19G16G18G 2G 6G11
  20669301.545       36366.045 6        -0.19832        16.750           1.813
  22856073.842        5662.160 5        -0.22131         9.000           0.188
  22540506.256      168002.345 6     32788.25521        14.250           0.750
  20790158.850     -137503.730 7    -26691.29122        24.250           1.938
  22174039.748     -154614.938 6    -30099.93821        13.500           0.625
  22593805.217        2241.840 6        -0.23131        16.000           0.500
 91  5 15 19 46 59.9980000  0  6G19G16G18G 2G 6G11
  20671058.772       45589.760 6      7187.08422        15.000           1.500
  22856409.959        7387.910 5      1344.44021        10.250           0.250
  22548522.232      210131.355 6     65615.92521        13.500           0.469
  20783656.592     -171676.664 7    -53319.53222        24.750           1.688
  22166687.834     -193227.255 6    -60187.42021        13.500           0.500
  22593982.084        3176.838 6       728.31621        16.500           0.531
 91  5 15 19 47 14.9980000  0  6G19G16G18G 2G 6G11
  20672820.357       54867.114 6     14416.16522        16.000           1.781
  22856752.889        9238.022 5      2786.00821        10.250           0.344
  22556549.318      252312.102 6     98483.88721        13.750           0.594
  20777168.889     -205767.507 7    -79883.79622        24.250           2.219
  22159340.178     -231822.222 6    -90261.39621        12.500           0.719
  22594184.990        4262.184 6      1574.01821        17.250           0.656
 91  5 15 19 47 29.9980000  0  6G19G16G18G 2G 6G11
  20674598.772       64192.184 6     21682.41221        15.500           1.188
  22857139.975       11206.319 5      4319.63921        11.750           0.313
  22564583.014      294538.185 5    131387.18721        11.750           0.500
  20770696.998     -239782.287 7   -106388.80122        24.500           1.625
  22152004.045     -270405.903 6   -120326.55321        13.500           0.563
  22594418.740        5491.731 6      2532.07921        17.000           0.531
 91  5 15 19 47 44.9980000  0  6G19G16G18G 2G 6G11
  20676380.154       73570.482 6     28990.15121        16.500           1.094
  22857524.881       13298.026 5      5949.45621         9.500           0.344
  22572631.350      336815.024 6    164330.06621        12.750           0.500
  20764237.818     -273715.561 7   -132830.29222        24.000           1.719
  22144668.928     -308972.752 6   -150378.61021        14.250           0.500
  22594679.584        6870.897 6      3606.73321        16.750           0.594
 91  5 15 19 47 59.9980000  0  6G19G16G18G 2G 6G11
  20678179.459       83001.447 6     36338.94021        14.500           1.156
  22857957.420       15512.462 5      7674.91321        10.000           0.188
  22580684.318      379141.823 6    197311.82621        12.250           0.531
  20757795.459     -307567.942 7   -159208.74522        24.250           1.969
  22137333.006     -347523.321 6   -180417.97621        12.250           0.594
  22594974.967        8399.056 6      4797.50621        18.750           0.594
 91  5 15 19 48 14.9980000  0  6G19G16G18G 2G 6G11
  20679980.654       92480.508 6                        16.750
  22858384.115       17844.888 5                         8.000
  22588748.092      421513.536 5                        11.500
  20751369.139     -341343.934 7                        24.500
  22129994.967     -386062.238 5                        11.250
  22595293.303       10071.520 6                        18.750
 91  5 15 19 48 29.9980000  0  6G19G16G18G 2G 6G11
  20681794.529      102011.210 6                        15.750
  22858861.498       20298.324 5                         8.000
  22596821.178      463933.280 5                        11.000
  20744956.748     -375039.972 7                        24.000
  22122668.037     -424585.973 6                        12.500
  22595641.623       11891.726 6                        17.750
 91  5 15 19 48 44.9980000  0  6G19G16G18G 2G 6G11
  20683616.037      111596.579 6                        17.000
  22859339.311       22875.518 5                         7.750
  22604899.834      506404.081 5                         9.250
  20738557.615     -408653.162 7                        23.000
  22115328.592     -463091.533 5                        10.750
  22596015.170       13862.423 6                        18.000
 91  5 15 19 48 59.9980000  0  6G19G16G18G 2G 6G11
  20685452.936      121234.296 6                        16.250
  22859865.936       25574.312 5                         9.000
  22612992.193      548923.347 5                         9.000
  20732178.154     -442185.930 7                        22.250
  22108008.607     -501581.267 6                        12.750
  22596416.670       15981.392 6                        17.000
 91  5 15 19 49 14.9980000  0  6G19G16G18G 2G 6G11
  20687297.865      130932.851 6        -0.04931        17.500           0.219
  22860402.053       28403.124 5                         9.000
  22621092.818      591499.162 5                         8.500
  20725818.678     -475629.460 7        -0.20731        24.750           0.313
  22100691.522     -540046.568 6                        13.250
  22596852.131       18257.122 6                        17.250
 91  5 15 19 49 29.9980000  0  5G19G16G 2G 6G11
  20689158.443      140691.710 4                                         6.250
  22860970.045       31360.460 2                         4.500
  20719466.678     -508984.555 5                                        10.000
  22093373.037     -578488.191 2                         4.750
  22597313.912       20688.787 5                         7.500
 91  5 15 19 49 44.9980000  0  5G19G16G 2G 6G11
  20691017.420      150505.470 4                                         6.500
  22861548.818       34441.243 2                         4.500
  20713136.740     -542256.408 5                                        10.000
  22086056.092     -616911.243 2                         4.750
  22597805.279       23271.144 5                         8.000
 91  5 15 19 49 59.9980000  0  5G19G16G 2G 6G11
  20692904.857      160370.518 6                                        12.000
  22862163.842       37641.548 5                         8.750
  20706817.412     -575448.679 6                                        19.000
  22078749.061     -655319.549 5                         9.500
  22598324.014       26000.331 6                        15.500
 91  5 15 19 50 14.9980000  0  6G19G16G18G 2G 6G11
  20694783.740      170290.882 6                                        14.750
  22862787.998       40965.270 5                         9.000
  22653598.490       42777.584 5                        11.000
  20700519.904     -608557.361 7                                        24.000
  22071448.772     -693709.007 5                        11.500
  22598873.357       28880.346 6                        18.250
 91  5 15 19 50 29.9980000  0  6G19G16G18G 2G 6G11
  20696689.014      180264.368 6                                        12.500
  22863451.193       44410.041 5                         8.500
  22661750.732       85602.691 5                        11.500
  20694233.123     -641584.759 7                                        21.250
  22064146.193     -732081.847 5                        11.250
  22599449.701       31908.724 6                        16.250
 91  5 15 19 50 44.9980000  0  6G19G16G18G 2G 6G11
  20698592.811      190294.632 6        -0.27631        14.250           0.250
  22864122.443       47979.145 5                         8.250
  22669910.990      128478.562 5                        11.500
  20687965.357     -674527.185 7        -0.29931        21.500           0.219
  22056851.561     -770434.401 5                        11.500
  22600053.451       35088.950 6                        14.750
 91  5 15 19 50 59.9980000  0  6G19G16G18G 2G 6G11
  20700516.264      200386.461 6      7863.44121        15.500           0.188
  22864833.850       51676.780 5                         9.500
  22678080.787      171409.641 6        -0.16431        12.500           0.063
  20681715.920     -707379.844 7    -25599.75121        23.000           0.188
  22049556.279     -808762.084 6                        12.000
  22600692.131       38425.628 6                        15.750
 91  5 15 19 51 14.9980000  0  6G19G16G18G 2G 6G11
  20702446.209      210535.716 6     15771.92421        18.750           0.188
  22865557.998       55499.103 5                        10.250
  22686257.045      214391.532 6     33492.08521        12.000           0.031
  20675477.256     -740146.800 7    -51132.44421        20.000           0.313
  22042267.725     -847068.845 6                        12.500
  22601353.193       41914.803 6        -0.07631        15.250           0.063
 91  5 15 19 51 29.9980000  0  6G19G16G18G 2G 6G11
  20704393.076      220740.084 6     23723.37021        16.500           0.156
  22866312.772       59443.367 5                        10.250
  22694446.568      257421.777 6     67021.98421        12.250           0.125
  20669255.147     -772830.365 6    -76600.10521        17.750           0.219
  22034977.936     -885357.021 5                        11.500
  22602047.951       45554.049 6      2835.76121        14.250           0.031
 91  5 15 19 51 44.9980000  0  6G19G16G18G 2G 6G11
  20706338.904      231002.624 6     31720.15821        19.750           1.156
  22867082.967       63511.994 5                        10.750
  22702646.748      300503.038 6    100591.66221        13.500           0.469
  20663054.037     -805427.642 7   -102000.54522        20.000           1.625
  22027695.381     -923623.684 6                        12.750
  22602768.170       49346.078 6      5790.52921        15.500           0.250
 91  5 15 19 51 59.9980000  0  6G19G16G18G 2G 6G11
  20708305.506      241317.842 6     39757.98821        18.250           1.438
  22867880.928       67699.643 5                        10.750
  22710853.897      343629.558 6    134196.58621        14.000           0.438
  20656867.334     -837944.128 7   -127338.03022        21.000           2.000
  22020411.889     -961874.312 5        -0.01931        11.500           0.625
  22603519.967       53285.294 6      8860.02921        16.500           0.500
 91  5 15 19 52 14.9980000  0  6G19G16G18G 2G 6G11
  20710276.045      251688.803 6     47839.20221        18.250           0.313
  22868700.076       72009.359 5                         9.750
  22719068.529      386804.031 6    167838.84021        13.250           0.125
  20650696.443     -870376.690 7   -152610.16721        22.000           0.406
  22013143.131    -1000105.756 6    -29790.78221        12.000           0.125
  22604295.576       57374.882 6     12046.68621        13.750           0.063
 91  5 15 19 52 29.9980000  0  6G19G16G18G 2G 6G11
  20712263.123      262109.251 6     55959.01821        15.500           0.188
  22869543.482       76434.145 5                        10.000
  22727291.201      430019.957 5    201513.38921        11.250           0.094
  20644539.936     -902731.714 7   -177821.86421        21.250           0.313
  22005873.967    -1038324.457 6    -59571.59021        12.750           0.031
  22605102.748       61608.201 6     15345.32921        12.750           0.094
 91  5 15 19 52 44.9980000  0  6G19G16G18G 2G 6G11
  20714253.428      272590.397 6     64126.12621        15.250           0.281
  22870407.264       80985.027 5                         9.500
  22735523.701      473288.294 5    235228.83721        10.250           0.031
  20638401.295     -934997.932 7   -202964.33721        21.750           0.313
  21998603.084    -1076519.078 5    -89333.56521        11.750           0.063
  22605941.201       65996.292 6     18764.61521        12.750           0.094
 91  5 15 19 52 59.9980000  0  6G19G16G18G 2G 6G11
  20716263.397      283128.374 5                         9.750
  22871300.240       85658.304 4                         6.500
  22743768.279      516604.648 5                         7.500
  20632277.623     -967179.274 6                        16.250
  21991340.100    -1114693.561 5                         8.250
  22606802.522       70535.262 5                         8.750
 91  5 15 19 53 14.9980000  0  6G19G16G18G 2G 6G11
  20718271.982      293708.967 6                        14.250
  22872215.904       90439.151 5                         9.750
  22752017.740      559954.553 5                        11.250
  20626169.100     -999290.258 7                        23.000
  21984077.139    -1152862.324 6                        12.500
  22607694.451       75210.562 6                        12.750
 91  5 15 19 53 29.9980000  0  6G19G16G18G 2G 6G11
  20720301.467      304345.229 5                        11.750
  22873139.654       95340.265 5                         8.250
  22760276.428      603350.862 5                        10.500
  20620072.842    -1031317.442 6                        18.750
  21976816.779    -1191012.082 5                        11.750
  22608603.678       80035.261 5                        10.250
 91  5 15 19 53 44.9980000  0  6G19G16G18G 2G 6G11
  20722333.787      315040.415 6        -0.06831        16.250           0.219
  22874102.592      100365.029 5                        10.000
  22768545.459      646796.677 6                        12.750
  20613991.561    -1063257.668 7                        20.000
  21969559.225    -1229139.591 6                        13.500
  22609549.443       85012.523 5                        11.000
 91  5 15 19 53 59.9980000  0  6G19G16G18G 2G 6G11
  20724383.272      325792.061 6      8377.79321        15.500           0.594
  22875064.240      105510.701 5                         8.500
  22776820.701      690289.045 6                        12.250
  20607929.186    -1095113.437 7                        21.000
  21962305.975    -1267247.369 6                        13.500
  22610526.795       90139.469 5                        11.750
 91  5 15 19 54 14.9980000  0  6G19G16G18G 2G 6G11
  20726434.178      336599.550 6     16799.17621        16.500           0.406
  22876081.311      110776.256 5                         9.500
  22785107.045      733827.077 6                        12.250
  20601881.787    -1126885.271 7        -0.32031        20.500           0.469
  21955061.631    -1305336.043 6                        13.000
  22611530.881       95415.600 5                        11.250
 91  5 15 19 54 29.9980000  0  6G19G16G18G 2G 6G11
  20728504.647      347463.921 6     25264.88321        16.250           0.625
  22877100.764      116162.380 5                         9.250
  22793401.139      777411.571 6                        13.250
  20595856.951    -1158572.275 7    -24691.44521        22.500           0.594
  21947818.412    -1343404.424 6        -0.42731        12.500           0.156
  22612563.584      100841.908 6        -0.10231        12.000           0.156
 91  5 15 19 54 44.9980000  0  6G19G16G18G 2G 6G11
  20730578.967      358384.060 6     33774.03721        17.250           0.406
  22878149.529      121667.945 5                         8.250
  22801704.342      821041.439 6                        13.750
  20589840.545    -1190175.612 7    -49317.40121        20.750           0.781
  21940581.537    -1381453.803 6    -29649.31021        14.250           0.219
  22613625.084      106417.169 6      4344.22021        12.000           0.125
 91  5 15 19 54 59.9980000  0  6G19G16G18G 2G 6G11
  20732671.295      369356.191 6     42323.74221        16.500           0.531
  22879220.443      127288.859 5                         8.250
  22810015.217      864712.505 6                        15.750
  20583839.186    -1221699.034 6    -73881.07621        19.750           0.719
  21933338.834    -1419487.871 6    -59286.16321        14.250           0.219
  22614715.131      112137.306 5      8801.43821        11.750           0.250
 91  5 15 19 55 14.9980000  0  6G19G16G18G 2G 6G11
  20734768.428      380394.314 6     50924.84621        17.250           0.375
  22880314.357      133038.857 5                         8.750
  22818334.678      908438.100 6                        14.750
  20577859.514    -1253128.644 7    -98371.67621        21.000           0.594
  21926104.818    -1457492.729 6    -88900.28221        13.500           0.188
  22615840.670      118016.037 6     13382.22821        12.750           0.250
 91  5 15 19 55 29.9980000  0  6G19G16G18G 2G 6G11
  20736887.967      391490.538 6     59571.22621        15.500           0.469
  22881430.529      138909.669 5                         8.750
  22826664.178      952210.202 6                        15.000
  20571895.678    -1284472.338 7   -122795.32421        22.000           0.625
  21918881.178    -1495476.339 6   -118497.86021        14.500           0.250
  22616986.037      124045.516 6     18080.53721        14.500           0.313
 91  5 15 19 55 44.9980000  0  6G19G16G18G 2G 6G11
  20739002.022      402648.862 6     68265.99121        16.500           0.625
  22882572.951      144905.023 5                         7.750
  22835001.303      996032.473 6        -0.06031        13.500           0.281
  20565949.389    -1315726.142 7   -147148.91221        21.250           0.938
  21911660.443    -1533434.627 6   -148075.73321        13.750           0.250
  22618164.670      130229.623 6     22899.31321        16.000           0.469
 91  5 15 19 55 59.9980000  0  5G19G18G 2G 6G11
  20741138.686      413862.116 6     77003.56421        14.500           0.375
  22843352.912     1039897.415 6                        12.750
  20560018.865    -1346897.358 7   -171438.15621        21.750           0.688
  21904435.990    -1571374.911 6   -177639.53521        12.500           0.156
  22619366.436      136560.895 6     27832.69721        15.250           0.250
 91  5 15 19 56 14.9980000  0  6G19G16G18G 2G 6G11
  20743285.162      425140.375 6     85791.77621        16.000           0.563
  22884925.217          -0.81915                         9.250
  22851705.482     1083814.850 6                        12.000
  20554104.115    -1377975.880 7   -195655.17321        21.000           0.719
  21897221.522    -1609287.110 5   -207181.47521        11.750           0.188
  22620599.975      143049.077 6     32888.43621        13.750           0.250
 91  5 15 19 56 29.9980000  0  6G19G16G18G 2G 6G11
  20745441.576      436467.811 6     94618.33921        14.250           0.563
  22886129.264        6349.293 5                         8.000
  22860070.373     1127768.503 6                        12.000
  20548206.045    -1408977.562 7   -219812.27621        21.750           0.813
  21890009.529    -1647186.919 6   -236713.76121        12.000           0.250
  22621860.592      149678.346 6     38054.10521        14.000           0.219
 91  5 15 19 56 44.9980000  0  6G19G16G18G 2G 6G11
  20747604.436      447853.002 6    103489.86421        16.750           0.563
  22887365.889       12818.512 5                         7.500
  22868440.967     1171766.919 5                        11.500
  20542322.850    -1439893.917 7   -243902.95721        24.750           0.750
  21882804.287    -1685065.898 6   -266229.82621        12.000           0.188
  22623153.295      156457.080 6     43336.19921        16.750           0.250
 91  5 15 19 56 59.9980000  0  6G19G16G18G 2G 6G11
  20749785.443      459296.220 6    112406.63521        15.000           0.531
  22888617.420       19406.963 4                         7.000
  22876825.709     1215810.142 5                         9.250
  20536454.545    -1470724.493 7   -267926.73321        20.750           0.750
  21875599.662    -1722923.604 5   -295729.31521        11.750           0.219
  22624472.990      163385.627 6     48735.07721        16.750           0.219
 91  5 15 19 57 14.9980000  0  6G19G16G18G 2G 6G11
  20751973.365      470802.496 6    121372.55121        16.500           0.438
  22889896.811       26119.403 5                         7.500
  22885216.295     1259902.542 5                         8.750
  20530605.709    -1501464.313 6   -291879.81421        19.500           0.719
  21868400.990    -1760755.002 6   -325208.27221        12.250           0.219
  22625818.256      170468.739 6     54254.37121        16.000           0.313
 91  5 15 19 57 29.9980000  0  6G19G16G18G 2G 6G11
  20754175.326      482363.642 6    130381.19821        16.000           0.656
  22891193.365       32947.501 5        -0.49231         7.500           0.125
  22893613.037     1304035.916 5                         8.750
  20524769.123    -1532121.539 6   -315768.55421        19.250           0.719
  21861204.350    -1798568.325 6   -354673.16021        12.250           0.281
  22627193.615      177698.175 6     59887.67921        16.000           0.313
 91  5 15 19 57 44.9980000  0  6G19G16G18G 2G 6G11
  20756384.545      493983.333 6    139435.46721        18.250           0.625
  22892517.709       39894.410 5      5412.58021         8.000           0.031
  22902022.451     1348213.315 5                        10.250
  20518953.842    -1562692.898 7   -339590.36221        20.750           0.594
  21854010.037    -1836360.108 6   -384121.25721        13.250           0.094
  22628591.834      185077.053 6     65637.46221        15.500           0.188
 91  5 15 19 57 59.9980000  0  6G19G16G18G 2G 6G11
  20758610.326      505656.930 6    148531.75821        16.750           0.750
  22893859.490       46954.989 5     10914.21021         9.250           0.094
  22910436.537     1392430.167 5                        10.000
  20513154.295    -1593182.870 7   -363348.77021        21.750           0.875
  21846821.600    -1874134.776 6   -413556.04221        12.750           0.188
  22630024.545      192600.755 6     71500.05721        16.000           0.250
 91  5 15 19 58 14.9980000  0  6G19G16G18G 2G 6G11
  20760836.904      517383.732 6    157669.48621        15.500           0.594
  22895229.701       54128.447 5     16503.86021         9.250           0.125
  22918857.803     1436685.368 5        -0.37231         9.000           0.188
  20507365.529    -1623592.031 6   -387044.19921        19.000           0.844
  21839632.154    -1911893.108 5   -442978.07221        10.500           0.250
  22631487.975      200268.567 6     77474.94721        16.500           0.219
 91  5 15 19 58 29.9980000  0  6G19G16G18G 2G 6G11
  20763085.826      529170.453 6    166853.92322        14.750           1.813
  22896609.725       61421.441 5     22186.68721         9.750           0.406
  22927285.850     1480985.518 5     34519.07621        10.000           0.750
  20501593.850    -1653913.761 7   -410671.48623        22.500           3.000
  21832456.084    -1949628.303 6   -472382.09221        14.000           0.938
  22632976.568      208086.995 7     83567.22121        20.500           0.813
 91  5 15 19 58 44.9980000  0  6G19G16G18G 2G 6G11
  20765332.318      541011.140 6    176080.39521        16.750           1.406
  22898026.334       68827.754 5                         9.000
  22935724.303     1525324.212 5     69068.52021        10.750           0.469
  20495838.295    -1684153.978 7   -434235.28623        22.000           2.719
  21825277.881    -1987346.376 6   -501772.77021        13.500           0.750
  22634494.045      216049.904 7                        20.000
 91  5 15 19 58 59.9980000  0  6G19G16G18G 2G 6G11
  20767604.561      552911.152 6    185353.09321        14.750           1.000
  22899454.147       76352.731 5                         9.250
  22944168.881     1569706.720 5    103652.11721         9.750           0.375
  20490100.381    -1714307.390 7   -457731.43322        22.500           2.188
  21818105.850    -2025041.699 6   -531145.75821        13.250           0.531
  22636034.576      224162.605 6                        18.750
 91  5 15 19 59 14.9980000  0  6G19G16G18G 2G 6G11
  20769873.584      564872.108 6    194673.29821        16.000           1.125
  22900912.514       83997.410 5        -0.42731        10.000           0.281
  22952624.850     1614134.220 5    138270.77221         9.250           0.438
  20484380.975    -1744372.353 7   -481158.65322        24.250           2.281
  21810937.373    -2062713.031 6   -560499.98921        13.750           0.688
  22637607.904      232426.456 6        -0.48431        18.750           0.625
 91  5 15 19 59 29.9980000  0  6G19G16G18G 2G 6G11
  20772163.037      576893.233 6    204040.37422        15.750           1.500
  22902385.303       91760.530 5      6048.68421         8.750           0.438
  22961089.764     1658605.211 5    172923.30421         9.750           0.656
  20478674.662    -1774349.881 7   -504517.73823        24.750           3.063
  21803778.232    -2100361.016 6   -589836.06221        16.000           0.969
  22639211.779      240840.475 7      6555.87721        20.750           0.813
 91  5 15 19 59 44.9980000  0  6G19G16G18G 2G 6G11
  20774462.217      588970.638 6    213451.31222        17.750           1.531
  22903889.506       99638.346 5     12187.13821         9.250           0.375
  22969557.943     1703115.721 5    207606.63421         9.250           0.563
  20472987.342    -1804243.802 7   -527811.67523        23.500           2.969
  21796613.686    -2137989.644 6   -619157.03921        14.750           0.844
  22640837.139      249400.549 6     13226.01021        19.500           0.656
 91  5 15 19 59 59.9980000  0  6G19G16G18G 2G 6G11
  20776770.381      601099.453 6    222902.31021        17.750           1.281
  22905402.639      107625.282 5     18410.63221         9.000           0.313
  22978035.451     1747660.777 5    242316.88721        10.250           0.500
  20467314.561    -1834059.043 7   -551044.31822        24.000           2.469
  21789455.561    -2175603.666 6   -648466.62721        15.000           0.750
  22642491.272      258101.492 6     20005.92521        17.250           0.719
 91  5 15 20  0 14.9980000  0  6G19G16G18G 2G 6G11
  20779090.365      613284.393 6    232397.04221        17.500           1.406
  22906952.787      115725.896 5     24722.72321         9.750           0.344
  22986519.475     1792244.698 5    277057.42721        10.750           0.406
  20461657.014    -1863791.032 7   -574212.09223        23.000           2.500
  21782302.701    -2213198.531 6   -677761.30321        14.750           0.781
  22644174.873      266947.954 6     26899.26021        16.250           0.750
 91  5 15 20  0 29.9980000  0  6G19G16G18G 2G 6G11
  20781421.209      625523.353 6    241933.85521        15.750           1.188
  22908507.178      123937.921 5     31121.62821         8.500           0.250
  22995010.061     1836865.181 5    311826.42321        10.750           0.406
  20456011.748    -1893441.823 7   -597316.60422        21.250           1.969
  21775148.467    -2250776.210 6   -707042.59921        13.000           0.688
  22645886.943      275937.614 6     33904.19321        17.250           0.625
 91  5 15 20  0 44.9980000  0  6G19G16G18G 2G 6G11
  20783756.959      637815.616 6    251512.21921        14.750           1.250
  22910097.600      132260.065 5     37606.32421         8.750           0.313
  23003506.865     1881521.113 5    346623.08321        10.250           0.375
  20450384.795    -1923012.116 7   -620358.38022        20.500           2.000
  21768005.662    -2288337.416 6   -736311.03221        13.500           0.625
  22647624.959      285069.606 6     41020.00821        17.250           0.625
 91  5 15 20  0 59.9980000  0  6G19G16G18G 2G 6G11
  20786103.889      650161.786 6    261132.58021        15.250           1.313
  22911701.068      140692.870 5     44177.25321         9.750           0.375
  23012013.873     1926212.794 5    381447.55821         9.250           0.375
  20444776.193    -1952501.238 7   -643336.90522        22.250           2.031
  21760855.522    -2325881.520 6   -765566.14521        12.750           0.750
  22649390.186      294344.459 6     48247.14221        16.750           0.406
 91  5 15 20  1 14.9980000  0  6G19G16G18G 2G 6G11
  20788466.115      662560.950 6    270794.24221        14.500           0.781
  22913324.490      149234.935 5     50833.34821         9.500           0.281
  23020521.037     1970938.941 5    416298.93321         8.500           0.313
  20439179.381    -1981910.250 7   -666253.00221        24.750           1.313
  21753712.889    -2363409.445 6   -794808.66721        12.750           0.438
  22651181.123      303760.959 6     55584.64421        15.000           0.219
 91  5 15 20  1 29.9970000  0  6G19G16G18G 2G 6G11
  20790833.743      675016.816 6    280500.09022        15.250           1.500
  22914975.009      157890.324 5     57577.72221         9.500           0.281
  23029039.524     2015701.020 5    451178.30021         9.500           0.375
  20433600.478    -2011232.755 7   -689101.67922        27.250           2.344
  21746578.782    -2400914.290 6   -824033.18321        13.250           0.813
  22653001.040      313322.787 6     63035.40021        16.500           0.469
 91  5 15 20  1 44.9970000  0  6G19G16G18G 2G 6G11
  20793218.392      687526.589 6    290247.93022        15.250           2.000
  22916634.767      166655.192 5     64407.40121         8.250           0.375
  23037562.837     2060499.926 5    486086.33121         9.750           0.531
  20428033.071    -2040477.125 7   -711889.48823        26.000           3.156
  21739451.321    -2438405.270 6   -853246.93721        15.750           1.000
  22654848.774      323026.777 6     70596.92421        18.000           0.750
 91  5 15 20  1 59.9970000  0  6G19G16G18G 2G 6G11
  20795611.329      700093.595 6    300040.36522        14.000           2.094
  22918327.845      175532.773 5     71324.91221         9.250           0.500
  23046101.399     2105336.869 5    521023.99721        10.000           0.438
  20422485.587    -2069637.278 7   -734611.67423        27.000           3.188
  21732320.907    -2475875.818 6   -882444.71821        16.250           1.094
  22656720.837      332876.248 6     78271.79921        17.750           0.781
 91  5 15 20  2 14.9970000  0  6G19G16G18G 2G 6G11
  20798006.368      712710.403 6    309871.59721        13.750           0.438
  22920027.493      184515.586 5     78324.45921         8.000           0.156
  23054639.829     2150203.977 5    555985.19521         9.750           0.094
  20416949.517    -2098720.629 7   -757274.00421        27.000           0.750
  21725187.665    -2513333.201 6   -911632.27321        14.750           0.031
  22658624.142      342863.592 6     86054.12321        17.250           0.188
 91  5 15 20  2 29.9970000  0  6G19G16G18G 2G 6G11
  20800423.251      725385.759 6    319748.45521        13.750           1.188
  22921768.173      193612.063 5                         8.500
  23063181.321     2195109.766 5    590976.53221         9.750           0.219
  20411432.478    -2127718.530 7   -779869.75022        25.250           1.813
  21718059.618    -2550768.936 6   -940802.97521        14.250           0.656
  22660548.853      352997.095 6     93950.32221        15.000           0.438
 91  5 15 20  2 44.9970000  0  6G19G16G18G 2G 6G11
  20802845.759      738117.537 6    329669.28521        14.500           0.625
  22923513.735      202819.762 5                         8.000
  23071736.813     2240051.768 5    625996.06321        11.000           0.125
  20405929.290    -2156633.224 7   -802400.68021        24.250           1.063
  21710946.782    -2588185.071 6   -969958.39421        15.500           0.375
  22662503.954      363274.484 6    101958.67721        16.250           0.219
 91  5 15 20  2 59.9970000  0  6G19G16G18G 2G 6G11
  20805278.110      750900.166 6    339629.72621        14.500           0.688
  22925298.235      212132.591 5                        10.000
  23080293.478     2285024.145 5    661039.24921         9.750           0.125
  20400441.899    -2185470.173 7   -824871.03721        24.000           1.000
  21703829.087    -2625587.159 6   -999102.84521        15.000           0.344
  22664490.642      373690.190 6    110074.73521        18.000           0.156
 91  5 15 20  3 14.9970000  0  6G19G16G18G 2G 6G11
  20807720.173      763736.771 6    349632.26622        15.500           1.719
  22927086.345      221553.213 5        -0.42231        10.000           0.344
  23088857.446     2330029.670 5    696108.32721         9.000           0.594
  20394971.274    -2214226.303 7   -847278.35722        25.250           2.406
  21696714.134    -2662972.091 6  -1028233.92721        14.250           0.906
  22666496.110      384247.029 6    118300.81021        17.250           0.656
 91  5 15 20  3 29.9970000  0  6G19G16G18G 2G 6G11
  20810172.267      776629.004 6    359678.13521        16.750           1.375
  22928895.384      231083.260 5      7425.46321         9.500           0.469
  23097431.353     2375069.740 5    731204.31521         9.500           0.563
  20389514.384    -2242900.095 7   -869621.54622        25.250           2.156
  21689597.931    -2700338.135 6  -1057350.30821        13.000           0.656
  22668533.251      394946.372 6    126637.92921        15.000           0.500
 91  5 15 20  3 44.9970000  0  6G19G16G18G 2G 6G11
  20812639.368      789585.079 6    369773.75321        17.250           1.250
  22930733.860      240730.887 5     14943.01521         9.250           0.344
  23106004.970     2420152.090 5    766333.18421         8.250           0.531
  20384076.001    -2271483.327 7   -891894.18822        25.000           2.063
  21682494.368    -2737676.969 6  -1086445.49621        13.500           0.656
  22670595.134      405796.328 6    135092.42821        14.250           0.500
 91  5 15 20  3 59.9970000  0  6G19G16G18G 2G 6G11
  20815118.110      802595.839 6    379911.98421        17.000           1.313
  22932590.353      250486.395 5     22544.62621         8.500           0.250
  23114593.673     2465267.251 5    801487.67121         8.250           0.406
  20378651.618    -2299985.174 7   -914103.39922        24.000           2.188
  21675398.282    -2774997.906 6  -1115526.71821        15.250           0.625
  22672688.954      416787.579 6    143657.01521        15.000           0.406
 91  5 15 20  4 14.9970000  0  6G19G16G18G 2G 6G11
  20817603.392      815663.959 6    390094.90221        18.000           0.875
  22934470.274      260352.218 5     30232.18621         8.250           0.125
  23123181.907     2510417.767 5    836669.69421         8.000           0.156
  20373245.212    -2328402.889 7   -936247.06021        25.000           1.250
  21668300.360    -2812298.251 6  -1144591.88421        15.250           0.469
  22674812.149      427922.593 6    152333.58321        15.750           0.156
 91  5 15 20  4 29.9970000  0  6G19G16G18G 2G 6G11
  20820099.571      828797.707 6    400328.97421        17.500           1.219
  22936373.696      270336.418 5     38012.02721         8.750           0.281
  23131787.001     2555611.596 5    871885.49221         9.000           0.500
  20367855.345    -2356728.227 7   -958318.73422        25.500           2.281
  21661207.142    -2849569.544 6  -1173634.41621        16.000           0.719
  22676960.704      439209.536 6    161128.56621        15.000           0.281
 91  5 15 20  4 44.9970000  0  6G19G16G18G 2G 6G11
  20822610.860      841989.993 6    410608.64121        17.500           0.688
  22938293.181      280431.482 5     45878.22321         9.000           0.250
  23140392.392     2600841.582 5    907129.43821         9.500           0.219
  20362479.665    -2384968.446 7   -980324.07721        25.000           1.281
  21654113.235    -2886818.862 6  -1202659.85221        14.250           0.375
  22679132.329      450641.010 6    170036.14821        14.750           0.156
 91  5 15 20  4 59.9970000  0  6G19G16G18G 2G 6G11
  20825132.290      855235.170 6    420929.53022        17.250           1.500
  22940230.462      290631.392 5     53826.12121         9.000           0.375
  23149006.056     2646101.730 5    942396.86221        10.500           0.375
  20357119.040    -2413129.046 7  -1002267.37423        23.750           2.688
  21647029.712    -2924051.974 6  -1231672.63521        16.750           0.813
  22681333.438      462211.287 6    179051.91221        14.500           0.594
 91  5 15 20  5 14.9970000  0  6G19G16G18G 2G 6G11
  20827663.368      868534.072 6    431292.27821        16.500           0.781
  22942197.610      300936.580 5     61856.05221         9.500           0.156
  23157621.751     2691392.182 5    977687.89121         9.750           0.094
  20351776.274    -2441209.423 7  -1024148.18221        23.500           1.156
  21639948.954    -2961268.051 6  -1260672.14221        17.000           0.281
  22683558.767      473920.773 6    188176.17721        14.250           0.250
 91  5 15 20  5 29.9970000  0  6G19G16G18G 2G 6G11
  20830203.313      881886.911 6    441697.05621        16.000           1.438
  22944169.243      311347.405 5     69968.30921        10.250           0.281
  23166247.610     2736713.240 5   1013002.79021         9.750           0.281
  20346447.478    -2469209.374 7  -1045966.30922        24.000           2.313
  21632868.384    -2998466.743 6  -1289658.10321        15.750           0.688
  22685819.478      485769.635 6    197409.03421        16.000           0.594
 91  5 15 20  5 44.9970000  0  6G19G16G18G 2G 6G11
  20832760.103      895304.137 6    452151.99821        15.750           0.625
  22946183.720      321873.630 5                        11.250
  23174880.040     2782074.796 5   1048349.28921        10.250           0.156
  20341137.071    -2497118.633 7  -1067713.75521        23.750           1.063
  21625789.649    -3035637.795 6  -1318622.54921        14.500           0.375
  22688100.368      497767.892 6    206758.27321        14.750           0.094
 91  5 15 20  5 59.9970000  0  6G19G16G18G 2G 6G11
  20835322.954      908782.719 6    462654.74021        15.250           1.219
  22948196.603      332512.048 5                        10.000
  23183518.462     2827473.495 5   1083724.63821         9.750           0.188
  20335841.228    -2524940.184 7  -1089392.85322        23.250           1.938
  21618727.829    -3072784.106 6  -1347567.70321        16.750           0.656
  22690414.235      509912.360 6    216221.46721        15.750           0.469
 91  5 15 20  6 14.9970000  0  6G19G16G18G 2G 6G11
  20837897.524      922314.374 6    473198.86022        15.500           1.563
  22950252.524      343254.122 5                        10.250
  23192165.243     2872900.796 5   1119122.32121        10.500           0.219
  20330563.071    -2552682.296 7  -1111010.05122        23.500           2.313
  21611660.751    -3109913.903 6  -1376499.96321        16.250           0.844
  22692751.228      522194.740 6    225792.09521        16.500           0.469
 91  5 15 20  6 29.9970000  0  6G19G16G18G 2G 6G11
  20840486.892      935907.415 6    483790.79522        15.000           1.625
  22952305.853      354107.766 5                         8.500
  23200817.329     2918364.788 5   1154548.59921        11.500           0.188
  20325299.415    -2580336.872 7  -1132559.04423        24.500           2.531
  21604603.813    -3147018.910 6  -1405412.92321        16.750           0.813
  22695115.548      534622.937 6    235476.37621        16.250           0.563
 91  5 15 20  6 44.9970000  0  6G19G16G18G 2G 6G11
  20843082.345      949562.341 6    494430.95022        15.250           1.688
  22954400.915      365073.303 5        -0.36731         8.500           0.375
  23209478.126     2963865.729 6   1190003.62121        12.250           0.250
  20320056.634    -2607903.357 7  -1154039.41323        25.750           2.625
  21597546.220    -3184098.668 6  -1434306.19821        16.000           0.969
  22697507.149      547197.248 6    245274.51021        15.250           0.656
 91  5 15 20  6 59.9970000  0  6G19G16G18G 2G 6G11
  20845689.751      963273.103 6    505114.60222        14.750           1.719
  22956491.462      376144.166 4      8626.18521         6.250           0.219
  23218140.712     3009397.074 5   1225482.32521         9.750           0.219
  20314827.173    -2635387.957 7  -1175455.97323        23.000           2.531
  21590490.806    -3221159.345 6  -1463184.64821        14.000           1.000
  22699929.001      559911.306 6    255181.54221        15.250           0.469
 91  5 15 20  7 14.9970000  0  6G19G16G18G 2G 6G11
  20848313.196      977042.623 6                        16.000
  22958628.618      387323.136 5                         7.500
  23226806.962     3054961.580 5                         7.750
  20309611.173    -2662787.593 7                        23.500
  21583444.501    -3258197.645 6                        15.500
  22702372.860      572767.929 6                        15.750
 91  5 15 20  7 29.9970000  0  6G19G16G18G 2G 6G11
  20850942.368      990874.379 6                        16.000
  22960775.360      398613.561 4                         6.750
  23235489.126     3100562.589 5                         7.500
  20304413.399    -2690098.785 7                        22.750
  21576400.985    -3295210.208 6                        14.250
  22704841.298      585770.454 6                        13.250
 91  5 15 20  7 44.9970000  0  6G19G16G18G 2G 6G11
  20853589.860     1004767.058 6        -0.06731        17.000           0.406
  22962934.282      410013.554 4                         6.500
  23244169.157     3146198.350 5                         7.750
  20299234.813    -2717322.946 7        -0.37631        25.250           0.500
  21569361.423    -3332198.386 6                        15.250
  22707339.907      598917.285 6                        13.500
 91  5 15 20  7 59.9970000  0  6G19G16G18G 2G 6G11
  20856243.665     1018721.417 6                        16.000
  22965144.704      421523.600 5                         9.000
  23252864.790     3191869.230 5        -0.42731         8.000           0.094
  20294070.063    -2744459.343 7    -21145.56921        25.500           0.281
  21562327.040    -3369161.232 6                        15.000
  22709872.384      612209.008 6                        13.000
 91  5 15 20  8 14.9970000  0  6G19G16G18G 2G 6G11
  20858910.860     1032734.020 6                        16.750
  22967343.282      433139.908 5                         9.000
  23261553.876     3237571.655 5                         7.500
  20288922.829    -2771511.526 7    -42225.19822        25.250           2.469
  21555298.759    -3406102.309 6        -0.41631        16.000           0.875
  22712433.204      625642.069 6        -0.41631        13.750           0.688
 91  5 15 20  8 29.9970000  0  6G19G16G18G 2G 6G11
  20861589.353     1046813.285 6                        17.000
  22969591.157      444870.343 5                        10.500
  23270263.829     3283313.433 4                         7.250
  20283792.579    -2798471.410 7    -63232.90022        24.750           1.781
  21548275.868    -3443013.184 6    -28762.11621        16.000           0.719
  22715020.634      639224.465 6     10583.24921        16.000           0.625
 91  5 15 20  8 44.9970000  0  6G19G16G18G 2G 6G11
  20864278.493     1060944.355 6        -0.19032        16.500           1.656
  22971830.376      456699.948 5                         8.750
  23278972.634     3329079.565 5                         7.500
  20278675.978    -2825353.700 7    -84180.09123        25.750           2.719
  21541253.165    -3479908.771 6    -57511.85921        15.250           1.125
  22717630.767      652941.162 6     21271.54021        14.750           0.719
 91  5 15 20  8 59.9970000  0  6G19G16G18G 2G 6G11
  20866976.642     1075126.726 6     11050.95222        16.750           1.531
  22974101.712      468627.908 5                         8.750
  23287687.954     3374869.361 5                         8.750
  20273575.712    -2852158.981 7   -105067.30923        26.000           2.531
  21534234.103    -3516789.522 6    -86250.07621        15.500           1.000
  22720263.353      666791.464 6     32063.94821        13.000           0.625
 91  5 15 20  9 14.9970000  0  6G19G16G18G 2G 6G11
  20869688.524     1089369.318 6     22149.03222        16.250           1.594
  22976393.306      480663.020 5        -0.42731         9.750           0.250
  23296408.610     3420691.150 5                         8.250
  20268490.282    -2878878.352 7   -125887.57423        26.000           2.719
  21527220.118    -3553646.322 6   -114969.63121        15.000           1.063
  22722923.157      680784.032 6     42967.22021        13.000           0.625
 91  5 15 20  9 29.9970000  0  6G19G16G18G 2G 6G11
  20872406.548     1103671.721 6     33293.72121        16.500           0.906
  22978698.009      492804.408 5      9460.27721         9.250           0.313
  23305132.774     3466544.329 5                         7.750
  20263421.962    -2905512.340 7   -146641.32322        25.500           1.625
  21520208.673    -3590479.789 6   -143671.00121        13.000           0.688
  22725614.962      694918.200 6     53980.83521        14.500           0.469
 91  5 15 20  9 44.9970000  0  6G19G16G18G 2G 6G11
  20875143.563     1118033.161 6                        15.750
  22981038.501      505051.220 5     19003.13721         9.250           0.125
  23313865.673     3512428.332 5                         8.250
  20258370.438    -2932061.389 7   -167328.88421        25.000           0.906
  21513211.087    -3627290.311 6   -172354.52321        15.000           0.375
  22728333.462      709193.232 6                        14.000
 91  5 15 20  9 59.9970000  0  6G19G16G18G 2G 6G11
  20877886.478     1132450.616 6                        17.000
  22983388.532      517399.958 5                         9.500
  23322602.563     3558339.662 5                         8.750
  20253332.548    -2958528.757 7   -187952.79221        25.500           0.469
  21506207.188    -3664081.153 6   -201022.68721        15.500           0.219
  22731074.423      723605.737 6                        12.500
 91  5 15 20 10 14.9970000  0  6G19G16G18G 2G 6G11
  20880640.282     1146924.160 6     66996.81021        16.500           0.469
  22985751.876      529850.430 5                        10.000
  23331342.767     3604277.895 5                         8.000
  20248311.931    -2984914.406 7   -208513.00421        24.750           1.000
  21499211.267    -3700852.012 6   -229675.27721        16.500           0.313
  22733844.087      738155.393 6     87672.04621        13.000           0.313
 91  5 15 20 10 29.9970000  0  6G19G16G18G 2G 6G11
  20883401.853     1161460.039 6     78323.43921        17.000           0.531
  22988147.954      542408.397 5                        10.000
  23340093.751     3650248.930 4                         7.000
  20243306.751    -3011212.188 7   -229004.76821        24.000           1.031
  21492219.821    -3737596.881 6   -258307.58921        17.750           0.344
  22736640.399      752848.197 6     99120.93421        13.750           0.156
 91  5 15 20 10 44.9970000  0  6G19G16G18G 2G 6G11
  20886183.142     1176053.928 6     89695.25821        16.750           1.250
  22990545.985      555069.092 5                         9.250
  23348844.751     3696247.924 4        -0.14331         6.500           0.219
  20238316.313    -3037426.571 7   -249431.55222        23.750           2.281
  21485229.493    -3774320.156 6   -286923.11621        16.500           0.906
  22739462.970      767679.627 6                        13.250
 91  5 15 20 10 59.9970000  0  6G19G16G18G 2G 6G11
  20888975.532     1190707.383 6    101113.51721        16.750           1.125
  22992982.548      567833.929 5                         8.500
  23357606.204     3742276.367 4     35865.97221         7.000           0.219
  20233346.524    -3063555.922 7   -269792.04522        24.750           2.063
  21478244.313    -3811019.894 6   -315520.26821        15.750           0.813
  22742314.438      782651.142 6                        13.750
 91  5 15 20 11 14.9970000  0  6G19G16G18G 2G 6G11
  20891771.423     1205414.082 6    112573.23222        17.500           1.594
  22995430.509      580696.035 5        -0.43031         9.000           0.219
  23366369.571     3788327.693 5     71749.90521         7.750           0.219
  20228389.626    -3089606.813 7   -290091.42223        25.500           2.500
  21471266.126    -3847702.749 6   -344104.28021        16.750           0.938
  22745186.118      797755.830 6        -0.23431        12.250           0.531
 91  5 15 20 11 29.9970000  0  6G19G16G18G 2G 6G11
  20894579.837     1220175.936 6    124075.93922        18.000           1.500
  22997888.267      593657.360 5     10099.25121         9.000           0.281
  23375132.884     3834403.499 4    107652.88721         6.750           0.125
  20223446.157    -3115577.131 7   -310328.02422        25.000           2.219
  21464287.806    -3884366.362 6   -372673.30821        15.750           0.875
  22748081.384      812995.726 6     11874.98021        12.000           0.438
 91  5 15 20 11 44.9970000  0  6G19G16G18G 2G 6G11
  20897401.743     1235009.234 6    135634.28321        17.500           0.688
  23000384.032      606733.663 5                         9.250
  23383909.438     3880519.665 4                         6.500
  20218524.024    -3141450.943 7   -330489.44421        27.000           0.938
  21457315.267    -3920994.886 6   -401215.01621        15.000           0.406
  22751015.931      828386.676 6     23867.85921        13.000           0.156
 91  5 15 20 11 59.9970000  0  6G19G16G18G 2G 6G11
  20900234.845     1249904.223 6    147240.75821        16.500           0.750
  23002891.712      619915.097 5                         8.250
  23392691.681     3926666.389 4                         7.000
  20213616.915    -3167237.705 7   -350582.98221        27.000           1.031
  21450354.845    -3957597.667 6   -429736.59321        16.500           0.406
  22753973.188      843918.815 5     35970.81621        11.750           0.250
 91  5 15 20 12 14.9970000  0  6G19G16G18G 2G 6G11
  20903079.915     1264858.124 6    158893.09922        15.500           1.625
  23005417.040      633198.500 5                         8.500
  23401481.118     3972840.545 5                         8.000
  20208726.868    -3192940.413 7   -370611.05422        26.750           2.125
  21443390.298    -3994177.498 6   -458240.34721        16.500           0.813
  22756949.720      859589.107 5     48181.41121        10.500           0.406
 91  5 15 20 12 29.9970000  0  6G19G16G18G 2G 6G11
  20905938.337     1279875.975 6    170595.28921        16.500           0.656
  23007963.603      646588.166 5                         8.000
  23410273.712     4019046.769 5                         9.000
  20203851.493    -3218554.102 7   -390569.74821        25.250           0.844
  21436436.392    -4030729.535 6   -486722.42021        17.250           0.344
  22759964.735      875402.288 6     60503.36421        12.500           0.188
 91  5 15 20 12 44.9970000  0  6G19G16G18G 2G 6G11
  20908805.548     1294953.980 5                        11.250
  23010532.157      660080.111 4                         6.750
  23419070.407     4065281.022 4                         6.750
  20198990.954    -3244082.626 6                        17.250
  21429483.720    -4067257.394 6                        12.750
  22762999.110      891354.350 5                        10.500
 91  5 15 20 12 59.9970000  0  6G19G16G18G 2G 6G11
  20911692.813     1310096.633 6                        15.250
  23013112.329      673678.645 5                         8.000
  23427872.212     4111547.128 4                         7.250
  20194150.556    -3269521.591 7                        23.750
  21422540.884    -4103756.460 6                        18.000
  22766060.837      907449.511 6                        13.250
 91  5 15 20 13 14.9970000  0  6G19G16G18G 2G 6G11
  20914582.899     1325291.054 6                        15.750
  23015730.735      687370.745 5                         8.500
  23436680.423     4157832.191 4                         6.750
  20189326.173    -3294883.802 7                        26.000
  21415594.009    -4140239.760 6                        15.750
  22769145.970      923674.714 5                        11.750
 91  5 15 20 13 29.9970000  0  6G19G16G18G 2G 6G11
  20917480.368     1340539.403 6                        16.000
  23018340.360      701158.026 4                         7.250
  23445492.157     4204138.216 4                         6.500
  20184515.665    -3320167.214 7        -0.31131        26.500           0.438
  21408652.478    -4176704.854 6        -0.38531        16.000           0.125
  22772262.149      940031.851 5        -0.07831        11.750           0.125
 91  5 15 20 13 44.9970000  0  6G19G16G18G 2G 6G11
  20920396.517     1355847.849 6                        14.750
  23020998.540      715046.409 5                         9.000
  23454312.079     4250470.836 4                         6.750
  20179719.767    -3345365.814 7    -19635.51022        26.500           2.188
  21401724.298    -4213145.803 6    -28395.86121        17.750           0.813
  22775401.196      956526.864 5     12853.17921        11.750           0.563
 91  5 15 20 13 59.9970000  0  6G19G16G18G 2G 6G11
  20923317.243     1371214.146 6                        13.500
  23023659.728      729033.423 5                         8.750
  23463134.509     4296827.712 4                         7.000
  20174940.438    -3370481.704 7    -39206.33221        24.250           0.938
  21394797.532    -4249564.537 6    -56774.07921        17.250           0.313
  22778567.142      973157.362 5     25811.96621        10.500           0.156
 91  5 15 20 14 14.9970000  0  6G19G16G18G 2G 6G11
  20926256.603     1386638.538 6        -0.39731        14.250           1.063
  23026335.798      743118.858 5                         8.750
  23471959.696     4343208.816 5                         8.000
  20170176.720    -3395514.847 7    -58712.67522        26.750           1.938
  21387864.978    -4285960.929 6    -85134.88221        16.250           0.688
  22781759.188      989923.262 6     38876.26921        12.500           0.406
 91  5 15 20 14 29.9970000  0  6G19G16G18G 2G 6G11
  20929203.188     1402123.163 6     12065.51221        13.750           1.156
  23029049.415      757304.322 5                         9.000
  23480793.149     4389615.945 5                         8.250
  20165431.212    -3420462.925 8    -78152.69922        28.750           2.344
  21380942.634    -4322332.799 6   -113476.59721        16.750           0.875
  22784972.196     1006826.446 5     52047.54021        11.250           0.438
 91  5 15 20 14 44.9970000  0  6G19G16G18G 2G 6G11
  20932161.751     1417663.052 6     24174.46021        14.750           1.094
  23031750.149      771584.777 4        -0.41931         7.250           0.125
  23489627.649     4436043.629 4        -0.30631         7.000           0.188
  20160698.532    -3445331.195 8    -97530.55722        29.250           1.969
  21374024.188    -4358685.162 6   -141803.07421        17.000           0.813
  22788207.595     1023861.587 5     65321.62921         9.750           0.438
 91  5 15 20 14 59.9970000  0  6G19G16G18G 2G 6G11
  20935130.837     1433259.884 6     36327.81422        15.000           1.500
  23034491.728      785961.436 5     11202.08621         8.000           0.281
  23498465.517     4482493.198 4                         6.250
  20155981.884    -3470117.933 7   -116844.87923        27.750           2.594
  21367114.017    -4395016.218 6   -170112.99021        17.750           1.188
  22791480.165     1041030.148 5     78699.74821        10.750           0.594
 91  5 15 20 15 14.9970000  0  6G19G16G18G 2G 6G11
  20938109.298     1448917.585 6     48528.59221        16.250           1.219
  23037242.103      800437.900 5     22482.33321         7.750           0.281
  23507304.462     4528968.548 3                         5.750
  20151280.938    -3494819.463 7   -136092.80122        26.750           2.250
  21360206.376    -4431322.208 6   -198403.36921        16.750           0.969
  22794773.407     1058335.751 5     92184.63521        11.250           0.375
 91  5 15 20 15 29.9970000  0  6G19G16G18G 2G 6G11
  20941101.493     1464632.568 6     60773.99821        16.500           1.094
  23040017.071      815010.270 4     33837.29521         7.250           0.344
  23516156.524     4575465.733 4        -0.32631         6.750           0.063
  20146596.821    -3519439.470 7   -155277.22022        25.500           1.938
  21353299.532    -4467606.431 6   -226676.77521        17.000           0.781
  22798093.126     1075774.590 6    105773.25021        12.250           0.344
 91  5 15 20 15 44.9970000  0  6G19G16G18G 2G 6G11
  20944099.228     1480405.830 6     73064.82021        16.250           1.156
  23042808.118      829679.392 4     45267.65921         6.750           0.281
  23525010.626     4621985.656 4     36248.69921         7.250           0.125
  20141928.204    -3543976.767 7   -174397.17822        26.750           2.281
  21346403.196    -4503867.778 6   -254932.35221        18.250           0.781
  22801440.454     1093347.522 5    119466.40021        10.750           0.375
 91  5 15 20 15 59.9970000  0  6G19G16G18G 2G 6G11
  20947110.399     1496236.279 6     85400.19021        16.500           0.719
  23045610.524      844443.868 3     56772.27221         6.000           0.219
  23533868.415     4668526.696 5                         7.750
  20137272.759    -3568432.333 7   -193453.45921        24.750           1.375
  21339505.181    -4540107.464 6   -283171.05621        17.750           0.469
  22804806.579     1111053.187 5    133262.98421         9.750           0.219
 91  5 15 20 16 14.9970000  0  6G19G16G18G 2G 6G11
  20950135.095     1512120.369 6     97777.37321        16.250           1.188
  23048443.118      859299.534 4     68348.02421         7.250           0.281
  23542729.720     4715084.657 5                         8.500
  20132633.485    -3592810.148 7   -212449.13923        25.000           2.563
  21332609.649    -4576328.971 6   -311395.57421        18.250           0.875
  22808197.024     1128887.615 5    147159.90721        10.250           0.406
 91  5 15 20 16 29.9970000  0  6G19G16G18G 2G 6G11
  20953169.923     1528060.714 6    110198.35922        15.500           1.625
  23051285.134      874248.798 5     79996.70121         7.750           0.375
  23551591.173     4761662.398 5                         8.000
  20128010.923    -3617107.509 7   -231382.15123        25.750           2.750
  21325722.001    -4612529.591 6   -339603.84221        18.250           0.938
  22811615.188     1146853.254 6    161159.04621        12.500           0.469
 91  5 15 20 16 44.9970000  0  6G19G16G18G 2G 6G11
  20956211.774     1544062.425 6    122667.20721        14.750           1.406
  23054152.618      889296.596 5     91722.19921         7.750           0.219
  23560458.243     4808264.746 5                         8.000
  20123403.001    -3641319.292 7   -250248.44523        26.250           2.656
  21318838.017    -4648704.158 6   -367791.78421        17.750           0.844
  22815061.806     1164954.927 5    175264.20221        11.500           0.469
 91  5 15 20 16 59.9970000  0  6G19G16G18G 2G 6G11
  20959266.485     1560116.926 6    135177.16321        15.250           1.313
  23057044.220      904433.428 4    103517.01721         7.250           0.281
  23569331.587     4854882.481 4                         7.250
  20118810.931    -3665454.386 8   -269054.99122        28.250           2.375
  21311959.392    -4684861.392 6   -395966.24721        18.250           0.813
  22818529.806     1183183.661 5    189468.38521        10.250           0.313
 91  5 15 20 17 14.9970000  0  6G19G16G18G 2G 6G11
  20962334.774     1576232.570 6    147734.75121        15.250           0.625
  23059925.220      919667.639 3    115387.64721         5.000           0.219
  23578205.626     4901523.638 4                         7.000
  20114234.071    -3689504.334 7   -287795.21121        26.250           0.969
  21305080.642    -4720992.826 6   -424120.59021        16.500           0.281
  22822030.423     1201547.666 5    203777.95121        10.000           0.156
 91  5 15 20 17 29.9970000  0  6G19G16G18G 2G 6G11
  20965411.751     1592402.813 6    160334.90021        15.250           0.656
  23062845.767      934992.477 3    127328.93421         5.500           0.156
  23587088.173     4948181.626 5                         8.000
  20109669.524    -3713475.731 7   -306474.20421        24.250           1.031
  21298205.103    -4757104.780 6   -452259.78921        16.000           0.406
  22825551.056     1220040.055 5    218187.56421        10.750           0.156
 91  5 15 20 17 44.9970000  0  6G19G16G18G 2G 6G11
  20968501.134     1608629.471 6    172978.99421        14.500           0.750
  23065772.517      950409.544 3    139342.09821         5.750           0.156
  23595968.165     4994858.245 5                         8.000
  20105123.938    -3737366.774 7   -325090.60721        24.500           1.250
  21291345.759    -4793195.569 6   -480382.46021        19.250           0.438
  22829088.837     1238662.582 5    232698.55721        10.750           0.188
 91  5 15 20 17 59.9970000  0  6G19G16G18G 2G 6G11
  20971595.563     1624910.546 6    185665.52022        14.250           1.781
  23068737.618      965916.551 4    151425.37921         6.500           0.219
  23604850.782     5041550.813 4                         7.250
  20100594.774    -3761179.569 7   -343646.01023        26.750           2.781
  21284477.649    -4829266.836 6   -508489.90321        18.000           1.188
  22832658.470     1257413.070 5    247309.29821        10.500           0.500
 91  5 15 20 18 14.9970000  0  6G19G16G18G 2G 6G11
  20974709.087     1641249.613 6    198397.22422        14.250           1.594
  23071690.032      981516.422 3    163581.03521         5.500           0.281
  23613742.696     5088262.693 5                         8.000
  20096078.134    -3784910.666 7   -362137.74023        27.500           2.719
  21277619.626    -4865315.290 6   -536579.59021        18.250           1.000
  22836246.813     1276294.567 5    262022.11121        10.500           0.625
 91  5 15 20 18 29.9970000  0  6G19G16G18G 2G 6G11
  20977828.485     1657648.043 6    211175.17922        14.250           1.813
  23074683.321      997210.130 3    175809.73421         5.500           0.344
  23622634.829     5134994.734 5                         7.500
  20091577.079    -3808558.601 7   -380564.68323        25.750           2.781
  21270764.860    -4901339.286 6   -564650.23721        19.250           1.094
  22839864.399     1295308.180 5    276837.88121        10.250           0.656
 91  5 15 20 18 44.9970000  0  5G19G16G 2G 6G11
  20980958.884     1674099.545 6    223994.47922        13.500           1.500
  23077695.696     1012991.061 4    188106.40621         7.000           0.375
  20087093.688    -3832129.820 7   -398931.86023        25.500           2.719
  21263910.313    -4937345.322 6   -592706.84821        18.250           1.000
  22843517.673     1314447.364 6    291751.49821        12.250           0.375
 91  5 15 20 18 59.9970000  0  5G19G16G 2G 6G11
  20984100.517     1690605.046 6    236855.85822        14.000           1.594
  23080715.954     1028859.814 5    200471.54321         8.500           0.469
  20082622.618    -3855623.488 7   -417238.61623        26.500           2.875
  21257062.431    -4973332.336 6   -620748.66321        16.750           1.063
  22847184.720     1333712.820 6    306763.44821        13.000           0.594
 91  5 15 20 19 14.9970000  0  5G19G16G 2G 6G11
  20987253.009     1707172.136 6    249765.22921        14.250           0.969
  23083760.173     1044823.563 5    212910.71121         9.250           0.281
  20078166.728    -3879032.147 7   -435479.11322        24.750           1.969
  21250220.298    -5009292.799 6   -648769.80121        16.750           0.563
  22850871.017     1353111.577 5    321879.30221        11.250           0.313
 91  5 15 20 19 29.9970000  0  5G19G16G 2G 6G11
  20990414.454     1723796.587 6    262719.29021        15.000           0.875
  23086800.485     1060877.871 4    225420.45721         7.250           0.188
  20073728.267    -3902359.951 7   -453656.60422        24.250           1.781
  21243381.009    -5045230.835 6   -676773.44121        18.000           0.625
  22854582.532     1372639.451 5    337095.76521        10.500           0.250
 91  5 15 20 19 44.9970000  0  5G19G16G 2G 6G11
  20993589.165     1740479.680 6    275719.05521        14.000           0.656
  23089887.720     1077023.851 5    238001.58421         7.500           0.281
  20069303.579    -3925605.670 7   -471770.15221        23.250           1.344
  21236549.251    -5081144.957 6   -704758.45721        18.500           0.438
  22858319.946     1392297.488 5    352413.69721        10.000           0.313
 91  5 15 20 19 59.9970000  0  5G19G16G 2G 6G11
  20996776.306     1757227.244 6    288769.06221        14.750           0.906
  23092964.415     1093267.022 4    250658.54121         6.250           0.188
  20064897.696    -3948763.637 7   -489815.30122        25.000           1.594
  21229720.165    -5117029.277 6   -732720.25321        18.250           0.625
  22862085.392     1412091.100 5    367837.22721        10.000           0.344
 91  5 15 20 20 14.9970000  0  5G19G16G 2G 6G11
  20999972.470     1774026.711 6    301859.52421        14.750           1.125
  23096088.188     1109594.573 5    263381.12921         8.000           0.406
  20060506.306    -3971846.251 7   -507801.73522        26.750           2.375
  21222897.384    -5152896.340 6   -760668.59521        19.250           0.875
  22865879.813     1432007.500 5    383356.46421        10.750           0.375
 91  5 15 20 20 29.9970000  0  5G19G16G 2G 6G11
  21003181.931     1790883.121 6    314994.36121        14.500           1.000
  23099202.954     1126010.744 5    276172.82921         7.750           0.250
  20056128.032    -3994848.639 7   -525725.64622        26.750           2.313
  21216071.548    -5188740.990 6   -788599.45321        17.250           0.844
  22869700.579     1452051.458 5    398975.08921        10.750           0.313
 91  5 15 20 20 44.9970000  0  5G19G16G 2G 6G11
  21006401.556     1807799.180 6    328175.66521        15.750           1.094
  23102346.735     1142518.055 5    289035.51421         8.750           0.344
  20051767.142    -4017768.208 7   -543585.04322        26.000           2.375
  21209251.657    -5224560.604 6   -816510.84521        16.000           0.906
  22873541.704     1472225.459 5    414695.02821        11.250           0.406
 91  5 15 20 20 59.9970000  0  5G19G16G 2G 6G11
  21009629.548     1824773.000 6    341401.97521        16.500           0.750
  23105499.649     1159114.401 5    301967.62121         8.500           0.188
  20047419.204    -4040606.920 7   -561381.44222        24.750           1.938
  21202448.712    -5260356.795 6   -844403.97321        17.000           0.813
  22877398.415     1492527.459 5    430514.70121        10.500           0.250
 91  5 15 20 21 14.9970000  0  5G19G16G 2G 6G11
  21012874.829     1841802.045 6    354671.32021        14.250           0.781
  23108674.571     1175796.779 4    314966.75421         6.750           0.188
  20043089.274    -4063367.384 7   -579116.86222        22.000           1.563
  21195637.860    -5296132.268 6   -872280.93721        14.750           0.719
  22881290.563     1512954.364 5    446431.72921         8.750           0.219
 91  5 15 20 21 29.9970000  0  5G19G16G 2G 6G11
  21016121.892     1858887.780 6                        12.250
  23111868.571     1192566.046 3                         5.000
  20038772.040    -4086048.264 6                        18.000
  21188831.196    -5331885.494 5                        11.500
  22885198.376     1533507.442 4                         7.250
 91  5 15 20 21 44.9970000  0  5G19G16G 2G 6G11
  21019383.446     1876032.511 5                        10.500
  23115075.134     1209424.662 2                         4.500
  20034474.079    -4108647.058 6                        16.500
  21182034.548    -5367613.890 5                        11.000
  22889132.759     1554188.835 4                         6.500
 91  5 15 20 21 59.9970000  0  5G19G16G 2G 6G11
  21022658.095     1893232.372 5                        11.000
  23118304.423     1226368.236 3                         5.750
  20030188.048    -4131167.800 6                        16.000
  21175237.509    -5403321.456 5                        10.500
  22893090.017     1574994.340 4                         6.750
 91  5 15 20 22 14.9970000  0  5G19G16G 2G 6G11
  21025943.696     1910491.763 6                        13.250
  23121552.923     1243400.636 5                         7.750
  20025916.149    -4153606.223 6                        19.250
  21168454.876    -5439003.679 6                        14.750
  22897064.134     1595928.093 4                         6.250
 91  5 15 20 22 29.9970000  0  5G19G16G 2G 6G11
  21029238.188     1927811.415 6                        17.250
  23124803.142     1260522.111 5                         9.750
  20021664.165    -4175961.664 7                        26.500
  21161661.767    -5474659.751 6                        16.250
  22901080.532     1616990.473 5                         9.500
 91  5 15 20 22 44.9970000  0  5G19G16G 2G 6G11
  21032546.954     1945183.814 6                        16.500
  23128077.665     1277725.123 5                         8.750
  20017423.282    -4198241.794 7                        26.500
  21154878.899    -5510297.136 6                        16.000
  22905113.665     1638173.718 5                        10.000
 91  5 15 20 22 59.9970000  0  5G19G16G 2G 6G11
  21035859.868     1962615.116 6                        16.000
  23131366.954     1295015.756 5                         7.750
  20013199.813    -4220440.393 7        -0.32633        25.750           2.563
  21148109.837    -5545909.673 6        -0.07231        18.500           1.063
  22909171.813     1659483.594 5                         9.500
 91  5 15 20 23 14.9970000  0  5G19G16G 2G 6G11
  21039192.587     1980104.293 6        -0.01831        16.000           1.375
  23134671.470     1312392.288 5                         7.500
  20008990.048    -4242558.494 7    -17235.19323        26.000           2.938
  21141334.368    -5581498.330 6    -27731.45521        18.000           1.313
  22913258.337     1680918.807 5        -0.32831        10.250           0.250
 91  5 15 20 23 29.9970000  0  5G19G16G 2G 6G11
  21042533.728     1997648.626 6                        15.000
  23137993.220     1329851.603 4                         7.250
  20004795.204    -4264599.005 7    -34409.61123        26.750           2.844
  21134558.642    -5617065.743 6    -55446.30321        16.250           1.219
  22917350.110     1702476.511 5     16797.82121         9.500           0.188
 91  5 15 20 23 44.9970000  0  5G19G16G 2G 6G11
  21045877.704     2015252.227 6                        15.250
  23141324.853     1347397.707 4                         6.500
  20000617.649    -4286557.803 7    -51520.35323        27.500           2.906
  21127802.235    -5652607.468 6    -83141.15921        17.000           1.406
  22921478.813     1724160.554 5     33694.46221        10.750           0.250
 91  5 15 20 23 59.9970000  0  5G19G16G 2G 6G11
  21049239.353     2032911.094 6                        15.000
  23144675.524     1365025.913 4                         6.250
  19996454.556    -4308439.016 7    -68570.64023        27.250           2.563
  21121045.743    -5688127.909 6   -110819.38921        18.250           1.438
  22925623.907     1745966.451 5     50686.01021         9.500           0.125
 91  5 15 20 24 14.9970000  0  5G19G16G 2G 6G11
  21052612.157     2050631.231 6                        15.250
  23148063.837     1382741.769 5                         7.500
  19992304.962    -4330236.760 7    -85555.89821        27.500           0.563
  21114287.915    -5723620.854 6   -138476.21521        17.250           0.406
  22929802.165     1767899.891 5                        10.250
 91  5 15 20 24 29.9970000  0  5G19G16G 2G 6G11
  21055992.001     2068408.274 6                        15.750
  23151438.321     1400540.649 4                         7.000
  19988171.767    -4351955.512 8   -102479.57422        28.000           2.188
  21107536.079    -5759090.503 6   -166114.91222        17.500           1.500
  22933995.899     1789956.172 5                         9.750
 91  5 15 20 24 44.9970000  0  5G19G16G 2G 6G11
  21059387.915     2086245.458 6                        14.500
  23154856.610     1418425.829 5                         8.500
  19984055.438    -4373591.914 7   -119339.08921        26.750           0.594
  21100796.235    -5794533.550 6   -193732.83721        18.500           0.375
  22938220.657     1812138.489 5                        10.750
 91  5 15 20 24 59.9970000  0  5G19G16G 2G 6G11
  21062791.563     2104142.598 6                        14.750
  23158263.235     1436396.800 5                         8.250
  19979954.618    -4395146.114 7   -136134.58921        26.000           0.563
  21094054.399    -5829950.135 6   -221330.16721        17.750           0.281
  22942463.915     1834446.349 5                        10.250
 91  5 15 20 25 14.9970000  0  5G19G16G 2G 6G11
  21066211.415     2122101.175 6                        14.250
  23161712.407     1454454.513 5                         9.750
  19975869.056    -4416616.852 7   -152864.97323        26.250           2.656
  21087317.329    -5865338.619 6   -248905.56421        17.000           1.375
  22946734.813     1856880.877 5                        10.500
 91  5 15 20 25 29.9970000  0  5G19G16G 2G 6G11
  21069641.767     2140116.798 6        -0.40031        13.250           1.438
  23165154.470     1472593.953 5                         9.250
  19971794.563    -4438008.685 7   -169533.94123        26.000           2.594
  21080593.009    -5900703.489 6   -276462.57921        19.250           1.156
  22951019.743     1879437.320 5                         9.000
 91  5 15 20 25 44.9970000  0  5G19G16G 2G 6G11
  21073080.970     2158195.965 6     14087.19321        13.750           1.344
  23168628.063     1490821.167 5        -0.33531         9.750           0.219
  19967741.813    -4459315.218 7   -186136.42722        26.750           2.406
  21073862.704    -5936038.184 6   -303996.07921        17.000           1.188
  22955340.040     1902121.715 5        -0.43331         9.500           0.094
 91  5 15 20 25 59.9970000  0  5G19G16G 2G 6G11
  21076529.063     2176337.911 5     28223.67021        11.750           0.188
  23172114.946     1509135.357 5                         7.500
  19963705.423    -4480537.039 7   -202672.96021        23.250           0.313
  21067148.446    -5971343.347 6   -331506.65121        14.750           0.125
  22959688.751     1924933.190 5                        10.250
 91  5 15 20 26 14.9970000  0  5G19G16G 2G 6G11
  21079996.368     2194542.678 6     42409.19921        13.250           0.625
  23175607.056     1527536.212 4                         7.250
  19959682.634    -4501674.186 7   -219143.40521        26.500           1.094
  21060433.892    -6006618.653 6   -358993.81421        17.500           0.563
  22964053.642     1947871.653 5                        10.000
 91  5 15 20 26 29.9970000  0  2G 2G 6
  19955677.103    -4522734.044 5                                         9.250
  21053725.345    -6041871.295 4                                         6.250
 91  5 15 20 26 44.9970000  0  2G 2G 6
  19951680.024    -4543719.203 7                                        24.750
  21047020.392    -6077103.991 6                                        17.250
 91  5 15 20 26 59.9970000  0  5G19G16G 2G 6G11
  21090453.110       18368.413 6                        16.500
  23186203.681       18633.444 5                         7.750
  19947702.181    -4564627.644 7                                        25.250
  21040322.110    -6112314.421 6                                        19.000
  22977277.728       23292.098 5                         9.000
 91  5 15 20 27 14.9970000  0  5G19G16G 2G 6G11
  21093958.649       36785.131 6                        15.750
  23189771.649       37337.467 5                         8.500
  19943737.548    -4585466.743 7        -0.25832        26.000           1.969
  21033622.978    -6147509.929 6        -0.14331        19.000           1.125
  22981735.673       46695.251 5                         8.250
 91  5 15 20 27 29.9970000  0  5G19G16G 2G 6G11
  21097475.985       55264.905 6        -0.03931        15.000           0.656
  23193331.157       56126.456 5                         7.750
  19939787.712    -4606221.322 7    -16172.64621        27.250           0.938
  21026933.087    -6182675.136 6    -27401.58521        19.250           0.469
  22986204.485       70223.859 4                         7.250
 91  5 15 20 27 44.9970000  0  5G19G16G 2G 6G11
  21100998.642       73797.485 6     14440.88221        14.750           0.531
  23196937.079       74990.180 5                         9.000
  19935853.899    -4626901.911 7    -32287.38921        26.750           0.844
  21020241.009    -6217820.340 6    -54787.44521        17.250           0.406
  22990706.899       93867.398 5        -0.48731         8.250           0.156
 91  5 15 20 27 59.9970000  0  5G19G16G 2G 6G11
  21104535.610       92386.393 6     28925.69121        14.500           0.594
  23200546.103       93931.457 5                         8.750
  19931931.657    -4647504.928 7    -48341.68821        25.500           1.063
  21013561.384    -6252941.780 6    -82154.77721        18.250           0.469
  22995226.798      117629.339 5     18515.26721         8.750           0.094
 91  5 15 20 28 14.9970000  0  5G19G16G 2G 6G11
  21108084.563      111027.138 6     43450.89721        15.500           0.438
  23204153.759      112945.495 5                         7.500
  19928024.884    -4668034.658 7    -64338.88321        24.750           0.938
  21006881.392    -6288043.846 6   -109507.00721        18.750           0.500
  22999773.376      141504.799 5                         9.250
 91  5 15 20 28 29.9970000  0  5G19G16G 2G 6G11
  21111643.071      129732.815 6     58026.69321        16.000           0.719
  23207793.290      132045.130 5                         7.500
  19924134.876    -4688478.351 7    -80269.04421        26.500           1.094
  21000205.126    -6323113.433 6   -136833.93721        17.500           0.594
  23004347.962      165506.491 5                        10.750
 91  5 15 20 28 44.9970000  0  5G19G16G 2G 6G11
  21115214.470      148497.784 6     72648.70921        15.500           1.344
  23211438.493      151224.171 4                         6.750
  19920258.993    -4708841.814 7    -96136.64122        27.500           1.969
  20993538.103    -6358156.241 6   -164139.99621        18.750           1.219
  23008935.126      189628.381 5                        11.250
 91  5 15 20 28 59.9970000  0  5G19G16G 2G 6G11
  21118797.548      167321.428 6     87316.43821        15.500           0.875
  23215096.634      170481.616 4                         6.500
  19916399.321    -4729125.369 7   -111941.97322        27.250           1.500
  20986876.228    -6393172.525 6   -191425.38921        19.250           1.000
  23013545.649      213869.805 5        -0.40031        11.250           0.156
 91  5 15 20 29 14.9970000  0  5G19G16G 2G 6G11
  21122389.032      186204.707 6    102030.65221        14.250           0.594
  23218785.423      189818.296 4        -0.11431         6.250           0.031
  19912553.610    -4749328.188 7   -127684.42021        23.750           0.875
  20980218.032    -6428161.321 6   -218689.35821        17.250           0.750
  23018179.243      238231.334 5     18982.54321         9.500           0.125
 91  5 15 20 29 29.9970000  0  5G19G16G 2G 6G11
  21125995.415      205156.336 6    116798.10821        17.000           0.781
  23222472.931      209242.486 4                         6.750
  19908728.423    -4769441.742 7   -143357.31422        26.250           1.844
  20973565.993    -6463113.816 6   -245925.05821        17.750           1.031
  23022842.048      262721.349 5     38065.63921         9.750           0.219
 91  5 15 20 29 44.9970000  0  5G19G16G 2G 6G11
  21129614.837      224165.046 6    131610.01521        16.500           0.781
  23226199.399      228742.544 5                         8.000
  19904914.603    -4789477.427 7   -158969.56421        25.500           0.781
  20966921.571    -6498041.292 6   -273141.29221        17.750           0.375
  23027522.188      287328.163 5                         9.250
 91  5 15 20 29 59.9970000  0  5G19G16G 2G 6G11
  21133238.446      243223.284 6    146460.56321        16.500           0.031
  23229908.923      248310.553 4                         6.750
  19901116.431    -4809442.836 7   -174526.99421        26.000           0.094
  20960276.985    -6532951.244 6   -300343.79321        17.750           0.063
  23032227.751      312043.995 5                        10.250
 91  5 15 20 30 14.9970000  0  5G19G16G 2G 6G11
  21136880.017      262340.545 6    161357.10221        17.000           0.625
  23233652.618      267955.486 4                         7.000
  19897330.603    -4829328.599 7   -190022.37721        25.500           1.469
  20953634.126    -6567834.051 6   -327525.17921        16.750           0.813
  23036955.665      336878.047 5                        11.500
 91  5 15 20 30 29.9970000  0  5G19G16G 2G 6G11
  21140524.892      281517.045 6    176299.76621        16.250           0.375
  23237402.821      287677.563 4                         6.250
  19893562.110    -4849134.474 7   -205455.52921        24.000           0.969
  20947005.446    -6602689.454 6   -354685.24621        18.250           0.500
  23041703.173      361830.106 5                        10.000
 91  5 15 20 30 44.9970000  0  5G19G16G 2G 6G11
  21144185.399      300750.942 6                        15.750
  23241173.431      307474.377 4                         6.250
  19889808.313    -4868862.278 7                        24.750
  20940377.407    -6637519.149 6                        17.750
  23046471.853      386898.190 5                        11.250
 91  5 15 20 30 59.9970000  0  5G19G16G 2G 6G11
  21147857.993      320043.861 6                        16.250
  23244958.071      327347.022 4                         6.750
  19886070.524    -4888510.606 7                        26.000
  20933756.274    -6672321.358 6                        17.750
  23051269.056      412083.558 6                        12.250
 91  5 15 20 31 14.9970000  0  5G19G16G 2G 6G11
  21151540.423      339401.984 6                        15.750
  23248759.915      347301.914 4                         6.750
  19882348.478    -4908073.193 7                        27.500
  20927138.759    -6707089.952 6                        18.000
  23056077.134      437392.082 6                        12.000
 91  5 15 20 31 29.9970000  0  5G19G16G 2G 6G11
  21155239.274      358815.578 6        -0.25131        16.000           1.063
  23252548.485      367328.490 2        -0.47131         4.750           0.219
  19878639.681    -4927560.011 7        -0.32233        27.250           2.813
  20920524.767    -6741834.523 6        -0.35331        17.500           1.250
  23060914.423      462813.606 6        -0.34231        12.250           0.438
 91  5 15 20 31 44.9970000  0  5G19G16G 2G 6G11
  21158942.438      378288.985 6                        16.000
  23256393.735      387430.633 3                         6.000
  19874945.446    -4946966.834 7    -15122.55321        25.500           0.406
  20913921.610    -6776550.721 6                        17.500
  23065783.884      488352.021 6                        13.000
 91  5 15 20 31 59.9970000  0  5G19G16G 2G 6G11
  21162657.868      397825.832 6                        15.000
  23260220.329      407611.950 3                         5.250
  19871269.243    -4966289.772 7    -30179.34523        26.250           2.531
  20907321.712    -6811234.665 6                        19.500
  23070662.970      514011.023 6                        12.000
 91  5 15 20 32 14.9970000  0  5G19G16G 2G 6G11
  21166390.235      417421.993 6                        13.750
  23264088.579      427867.673 4                         6.250
  19867606.188    -4985533.383 7    -45174.36823        27.500           2.750
  20900724.954    -6845890.380 6                        18.500
  23075562.681      539786.128 6                        12.000
 91  5 15 20 32 29.9970000  0  5G19G16G 2G 6G11
  21170132.087      437082.604 6        -0.12931        14.000           1.063
  23267957.290      448202.707 4                         7.000
  19863960.728    -5004692.414 8    -60103.47523        28.000           2.656
  20894135.298    -6880512.694 6        -0.18631        18.500           1.344
  23080485.985      565682.052 5        -0.34631        11.750           0.500
 91  5 15 20 32 44.9970000  0  5G19G16G 2G 6G11
  21173884.165      456807.175 6     15369.64521        13.000           0.969
  23271830.790      468615.992 4        -0.49131         6.250           0.188
  19860331.040    -5023767.421 7    -74967.10622        26.750           2.344
  20887557.454    -6915102.013 6    -26952.88821        19.250           1.188
  23085441.993      591698.129 6     20271.86121        13.250           0.406
 91  5 15 20 32 59.9970000  0  5G19G16G 2G 6G11
  21177648.056      476588.469 6     30783.59221        12.500           1.000
  23275741.384      489099.893 4     15960.75621         6.750           0.063
  19856717.306    -5042765.825 7    -89771.06922        26.250           2.250
  20880974.509    -6949665.464 6    -53885.42221        17.500           1.188
  23090418.431      617826.766 6     40631.75121        14.250           0.438
 91  5 15 20 33 14.9970000  0  5G19G16G 2G 6G11
  21181422.462      496423.682 6                        13.000
  23279658.337      509651.741 4                         7.250
  19853113.696    -5061690.286 7                        25.250
  20874402.657    -6984205.602 6                        16.750
  23095408.478      644064.879 6                        14.000
 91  5 15 20 33 29.9970000  0  5G19G16G 2G 6G11
  21185211.118      516328.308 6                        13.000
  23283572.673      530286.461 3                         5.250
  19849529.688    -5080525.608 7                        24.250
  20867842.673    -7018707.107 6                        17.250
  23100427.962      670427.482 6                        13.250
 91  5 15 20 33 44.9970000  0  5G19G16G 2G 6G11
  21189010.829      536293.332 6                        14.000
  23287516.345      550994.495 4                         6.250
  19845960.157    -5099280.732 8                        28.000
  20861281.837    -7053178.762 6                        19.500
  23105465.251      696905.291 6                        15.000
 91  5 15 20 33 59.9970000  0  5G19G16G 2G 6G11
  21192818.915      556312.270 6        -0.14531        13.250           1.188
  23291477.712      571768.893 3        -0.46831         5.750           0.188
  19842407.813    -5117962.250 7        -0.13132        27.750           1.844
  20854724.446    -7087627.022 6        -0.35731        17.750           1.031
  23110525.985      723491.360 6        -0.44231        16.000           0.531
 91  5 15 20 34 14.9970000  0  5G19G16G 2G 6G11
  21196639.970      576392.962 6     15647.10121        13.250           1.406
  23295444.040      592617.318 4     16244.83121         6.250           0.281
  19838868.165    -5136562.398 7    -14493.76522        26.750           2.219
  20848178.228    -7122043.962 6    -26818.74321        18.750           1.156
  23115607.938      750193.339 6     20806.21621        15.250           0.563
 91  5 15 20 34 29.9970000  0  5G19G16G 2G 6G11
  21200472.470      596531.790 6     31339.64521        13.500           0.625
  23299422.767      613535.744 4     32544.73721         6.750           0.094
  19835341.157    -5155084.935 7    -28926.90321        25.000           1.063
  20841634.829    -7156433.179 6    -53615.51221        18.000           0.594
  23120706.813      777007.219 6     41700.07521        13.750           0.219
 91  5 15 20 34 44.9970000  0  5G19G16G 2G 6G11
  21204319.610      616735.030 6     47082.37321        15.000           0.875
  23303408.298      634530.146 4     48903.82521         7.000           0.156
  19831832.376    -5173523.578 7    -43294.67422        25.250           1.531
  20835090.063    -7190788.117 6    -80385.58121        16.250           0.906
  23125829.001      803939.036 6     62685.84321        13.500           0.375
 91  5 15 20 34 59.9970000  0  5G19G16G 2G 6G11
  21208175.157      637000.682 6     62873.73221        15.250           1.188
  23307429.853      655598.185 5     65320.32021         8.000           0.188
  19828338.618    -5191880.403 7    -57598.67022        23.750           2.094
  20828565.845    -7225110.790 6   -107130.50021        18.000           1.281
  23130981.837      830986.506 6     83761.75521        15.250           0.563
 91  5 15 20 35 14.9970000  0  4G19G 2G 6G11
  21212044.806      657324.599 6     78710.48321        15.750           1.469
  19824863.188    -5210159.523 7    -71842.14223        24.250           2.750
  20822036.290    -7259405.015 6   -133853.25022        17.000           1.594
  23136150.353      858145.327 6    104924.41021        16.750           0.688
 91  5 15 20 35 29.9970000  0  4G19G 2G 6G11
  21215917.431      677701.536 6     94588.55821        15.000           1.469
  19821398.126    -5228366.304 7    -86029.24823        26.000           2.625
  20815518.470    -7293675.992 6   -160557.89521        18.750           1.438
  23141337.134      885409.810 6    126169.38621        15.500           0.594
 91  5 15 20 35 44.9970000  0  4G19G 2G 6G11
  21219808.954      698141.874 6    110516.02821        13.750           1.219
  19817948.790    -5246490.453 7   -100151.96723        26.750           2.625
  20809001.040    -7327913.405 6   -187236.37621        19.750           1.469
  23146547.837      912789.916 6    147504.48621        14.500           0.563
 91  5 15 20 35 59.9970000  0  4G19G 2G 6G11
  21223710.321      718640.588 6                        12.000
  19814514.290    -5264537.389 7   -114214.54722        25.750           1.875
  20802492.243    -7362122.279 6   -213892.66221        17.500           1.094
  23151775.454      940280.169 6    168925.36721        12.250           0.344
 91  5 15 20 36 14.9970000  0  4G19G 2G 6G11
  21227622.032      739193.113 6                        15.000
  19811093.267    -5282511.458 8   -128220.24622        28.500           2.063
  20795982.384    -7396306.998 6   -240530.03521        17.500           1.094
  23157022.282      967875.785 6    190428.44521        12.000           0.500
 91  5 15 20 36 29.9970000  0  4G19G 2G 6G11
  21231545.728      759804.881 6                        15.250
  19807688.290    -5300407.393 7                        26.000
  20789486.259    -7430461.997 6                        18.750
  23162302.767      995581.932 6                        13.500
 91  5 15 20 36 44.9970000  0  4G19G 2G 6G11
  21235474.845      780474.243 6                        14.250
  19804296.884    -5318226.685 7                        25.000
  20782992.509    -7464588.626 6                        17.750
  23167593.548     1023396.714 5                        11.750
 91  5 15 20 36 59.9970000  0  4G19G 2G 6G11
  21239417.204      801202.251 6                        16.500
  19800920.353    -5335968.341 7        -0.46732        26.500           2.250
  20776505.048    -7498685.749 6        -0.14031        18.250           1.250
  23172906.899     1051320.954 6        -0.06731        12.500           0.500
 91  5 15 20 37 14.9970000  0  4G19G 2G 6G11
  21243377.290      821990.181 6        -0.08331        16.250           0.656
  19797559.688    -5353631.264 7    -13763.77821        26.250           1.125
  20770019.626    -7532752.011 6    -26545.26321        17.500           0.781
  23178240.157     1079355.575 5     21845.01521        11.500           0.344
 91  5 15 20 37 29.9970000  0  4G19G 2G 6G11
  21247343.251      842834.566 6     16242.25221        18.000           1.344
  19794213.204    -5371218.929 7    -27468.43822        27.000           1.938
  20763545.298    -7566790.854 6    -53069.01921        19.500           1.406
  23183597.493     1107496.596 5     43773.03221        10.750           0.438
 91  5 15 20 37 44.9970000  0  4G19G 2G 6G11
  21251323.056      863739.411 6     32531.68021        17.250           0.344
  19790880.915    -5388727.573 7    -41111.53021        24.750           0.438
  20757067.337    -7600798.240 6    -79568.26121        16.250           0.344
  23188978.610     1135747.724 5     65786.84221        11.250           0.156
 91  5 15 20 37 59.9970000  0  4G19G 2G 6G11
  21255315.134      884703.560 6     48867.31521        18.000           0.594
  19787563.985    -5406158.196 7    -54693.83221        24.750           0.875
  20750607.931    -7634774.956 6   -106043.62721        19.500           0.625
  23194374.313     1164107.553 5     87885.34721        11.000           0.250
 91  5 15 20 38 14.9970000  0  4G19G 2G 6G11
  21259308.423      905721.127 6     65244.62221        18.000           1.344
  19784262.079    -5423516.931 7    -68220.09722        25.750           2.031
  20744147.220    -7668727.054 7   -132499.74721        20.500           1.469
  23199781.962     1192569.904 5    110063.73221        11.250           0.375
 91  5 15 20 38 29.9970000  0  4G19G 2G 6G11
  21263315.970      926799.693 6     81669.42621        18.000           1.031
  19780973.696    -5440796.238 7    -81684.48822        26.250           1.750
  20737692.368    -7702646.759 6   -158930.67021        19.000           1.125
  23205222.313     1221141.929 5    132327.56721        11.250           0.313
 91  5 15 20 38 44.9970000  0  4G19G 2G 6G11
  21267343.868      947939.640 6     98142.07521        17.250           0.750
  19777699.220    -5457995.736 7    -95086.67821        25.750           1.469
  20731244.399    -7736533.547 6   -185335.94721        19.750           0.906
  23210680.563     1249823.727 5    154676.93321         9.500           0.281
 91  5 15 20 38 59.9970000  0  3G19G 2G 6
  21271380.157      969146.289 6    114666.68221        18.500           0.969
  19774444.017    -5475110.239 7   -108422.64122        26.500           1.844
  20724804.571                          -0.09516        19.000
 91  5 15 20 39 14.9970000  0  4G19G 2G 6G11
  21275427.634      990417.380 6    131241.48621        16.000           0.500
  19771203.579    -5492141.910 7   -121694.08921        24.250           0.906
  20718365.571                      -33812.220 6        15.500
  23221665.392       28908.169 5                         9.000
 91  5 15 20 39 29.9970000  0  4G19G 2G 6G11
  21279491.267     1011754.325 6    147867.65421        16.250           1.031
  19767977.993    -5509089.645 7   -134900.08722        25.250           1.938
  20711938.962      -67586.732 6        -0.29131        18.250           1.094
  23227190.681       57930.302 5                        11.500
 91  5 15 20 39 44.9970000  0  4G19G 2G 6G11
  21283560.790     1033156.810 6    164544.84321        15.750           0.781
  19764768.360    -5525953.644 7   -148040.87721        25.500           1.469
  20705524.368     -101323.735 6    -26288.83621        19.000           1.063
  23232726.587       87065.106 5                        11.000
 91  5 15 20 39 59.9970000  0  4G19G 2G 6G11
  21287645.657     1054626.588 6    181274.51421        15.750           1.125
  19761574.368    -5542732.274 7   -161115.11822        27.250           2.281
  20699103.806     -135021.237 6    -52546.59321        17.750           1.375
  23238295.298      116313.964 5        -0.19831        11.500           0.375
 91  5 15 20 40 14.9970000  0  4G19G 2G 6G11
  21291743.978     1076166.196 6    198058.56521        15.000           1.156
  19758397.712    -5559423.098 7   -174120.96022        26.000           2.000
  20692702.985     -168676.702 6    -78771.65021        18.500           1.375
  23243888.454      145679.068 5     22881.60921        10.000           0.219
 91  5 15 20 40 29.9970000  0  4G19G 2G 6G11
  21295857.681     1097769.063 6    214891.93021        15.500           1.031
  19755238.290    -5576032.654 7   -187063.44122        27.500           2.094
  20686305.915     -202296.467 6   -104968.81321        19.750           1.281
  23249498.407      175153.677 5     45848.80721        10.000           0.281
 91  5 15 20 40 44.9970000  0  4G19G 2G 6G11
  21299979.228     1119431.239 6    231771.48821        15.750           1.063
  19752092.353    -5592565.129 7   -199945.88922        27.750           2.406
  20679911.017     -235884.476 6   -131141.26721        18.500           1.344
  23255127.892      204733.394 5     68897.85521        10.750           0.250
 91  5 15 20 40 59.9970000  0  4G19G 2G 6G11
  21304110.923     1141151.437 6    248696.26321        16.250           1.219
  19748961.876    -5609021.902 8   -212769.33923        28.000           2.625
  20673532.579     -269441.900 6   -157289.89422        19.250           1.500
  23260763.665      234416.570 5     92027.49921         9.500           0.281
 91  5 15 20 41 14.9970000  0  4G19G 2G 6G11
  21308255.540     1162933.097 6    265668.93921        14.750           1.156
  19745844.149    -5625399.435 7   -225531.04823        27.500           2.938
  20667147.907     -302965.026 6   -183411.78222        17.500           1.688
  23266439.759      264206.421 5    115240.34721        10.500           0.313
 91  5 15 20 41 29.9970000  0  4G19G 2G 6G11
  21312412.962     1184772.908 6    282686.92121        13.750           0.688
  19742740.337    -5641701.063 7   -238233.59922        27.000           1.719
  20660776.306     -336457.057 6   -209509.45721        16.750           0.969
  23272131.298      294099.290 5    138533.38121        10.750           0.219
 91  5 15 20 41 44.9970000  0  4G19G 2G 6G11
  21316579.024     1206680.519 6    299757.73421        13.250           1.063
  19739654.806    -5657917.293 7   -250869.63223        25.750           2.500
  20654407.329     -369908.302 6   -235575.37321        16.250           1.406
  23277831.220      324104.339 5    161913.85521         8.750           0.281
 91  5 15 20 41 59.9970000  0  4G19G 2G 6G11
  21320758.540     1228647.994 6    316875.22121        13.750           0.875
  19736584.509    -5674056.151 7   -263445.35023        27.000           2.500
  20648052.337     -403326.625 6   -261615.58621        18.750           1.344
  23283566.009      354213.459 5    185375.45921         9.250           0.125
 91  5 15 20 42 14.9970000  0  4G19G 2G 6G11
  21324956.556     1250679.756 6    334042.75721        15.000           0.906
  19733529.438    -5690113.336 7   -275957.44522        26.500           2.469
  20641693.290     -436707.399 6   -287626.56622        16.750           1.531
  23289311.142      384430.597 5    208921.18421         9.000           0.188
 91  5 15 20 42 29.9970000  0  4G19G 2G 6G11
  21329159.478     1272768.374 6    351254.59221        16.000           0.750
  19730487.774    -5706096.403 7   -288411.79822        27.250           2.000
  20635354.712     -470058.019 7   -313614.07721        20.250           1.281
  23295089.228      414748.106 6                        12.250
 91  5 15 20 42 44.9970000  0  4G19G 2G 6G11
  21333374.634     1294916.338 6                        15.000
  19727462.251    -5722002.870 7                        26.750
  20629011.563     -503375.840 6                        18.500
  23300876.696      445168.127 6                        12.500
 91  5 15 20 42 59.9970000  0  4G19G 2G 6G11
  21337599.188     1317128.567 6                        13.750
  19724450.868    -5737827.564 7                        25.750
  20622679.157     -536655.553 6                        19.250
  23306683.688      475695.415 5                        11.750
 91  5 15 20 43 14.9970000  0  4G19G 2G 6G11
  21341839.079     1339399.498 5        -0.25931        11.250           0.094
  19721450.931    -5753576.357 7        -0.17631        21.750           0.500
  20616354.298     -569902.871 6                        17.750
  23312514.212      506323.793 5                        10.500
 91  5 15 20 43 29.9970000  0  4G19G 2G 6G11
  21346092.220     1361735.535 5     17404.38321        11.500           0.156
  19718470.556    -5769242.974 7    -12207.89821        21.250           0.375
  20610032.399     -603111.288 6        -0.36831        16.750           0.344
  23318360.946      537059.405 5                        10.250
 91  5 15 20 43 44.9970000  0  4G19G 2G 6G11
  21350351.767     1384135.066 6     34858.52921        13.000           0.094
  19715504.259    -5784828.837 7    -24352.75421        25.250           0.438
  20603721.243     -636282.040 6    -25847.73321        19.750           0.250
  23324232.462      567900.502 6                        14.250
 91  5 15 20 43 59.9970000  0  4G19G 2G 6G11
  21354628.087     1406601.264 5     52364.62221        11.750           0.188
  19712555.524    -5800331.105 7                        24.000
  20597413.735     -669412.018 6    -51663.26121        19.000           0.281
  23330119.071      598849.666 6                        14.250
 91  5 15 20 44 14.9960000  0  4G19G 2G 6G11
  21358912.027     1429125.936 5     69916.26621        11.250           0.156
  19709618.996    -5815755.489 7                        24.250
  20591120.020     -702505.562 6    -77450.39921        19.250           0.313
  23336030.535      629898.018 6                        15.250
 91  5 15 20 44 29.9960000  0  4G19G 2G 6G11
  21363207.957     1451717.609 6                        12.000
  19706700.621    -5831098.449 7                        26.250
  20584829.137     -735561.322 7                        20.000
  23341958.020      661054.874 6                        15.250
 91  5 15 20 44 44.9960000  0  4G19G 2G 6G11
  21367521.457     1474365.061 5                        11.500
  19703793.731    -5846369.054 7                        26.500
  20578546.043     -768586.898 6                        19.000
  23347908.051      692307.864 6                        14.250
 91  5 15 20 44 59.9960000  0  4G19G 2G 6G11
  21371841.637     1497076.667 5                        11.250
  19700904.551    -5861558.857 7        -0.35131        26.500           0.344
  20572268.191     -801573.692 6                        19.500
  23353872.051      723665.186 6                        14.250
 91  5 15 20 45 14.9960000  0  4G19G 2G 6G11
  21376179.879     1519845.021 5        -0.31931        10.750           0.063
  19698028.652    -5876675.040 7    -11779.19321        24.000           0.250
  20565993.496     -834528.912 6        -0.20331        15.500           0.406
  23359857.473      755119.068 6                        12.750
 91  5 15 20 45 29.9960000  0  4G19G 2G 6G11
  21380522.020     1542667.286 5     17783.22621        10.250           0.188
  19695164.535    -5891720.784 7    -23503.12121        25.250           0.500
  20559730.410     -867455.267 6    -25657.08021        19.250           0.344
  23365858.801      786666.329 6                        14.500
 91  5 15 20 45 44.9960000  0  4G19G 2G 6G11
  21384870.832     1565547.445 5     35611.89321         9.000           0.188
  19692314.801    -5906692.228 7    -35169.17021        23.500           0.438
  20553469.910     -900348.719 6    -51288.33021        16.500           0.281
  23371885.816      818310.596 6                        14.000
 91  5 15 20 45 59.9960000  0  4G19G 2G 6G11
  21389232.074     1588476.361 5     53478.50121         8.250           0.156
  19689478.785    -5921598.556 7    -46784.50321        24.250           0.500
  20547215.316     -933218.153 6    -76900.85321        18.250           0.375
  23377922.863      850042.464 6                        14.750
 91  5 15 20 46 14.9960000  0  4G19G 2G 6G11
  21393608.902     1611461.692 5     71389.12521         8.500           0.156
  19686657.379    -5936431.975 7    -58343.01421        25.250           0.406
  20540966.981     -966055.802 6   -102488.61921        19.250           0.219
  23383975.699      881869.266 6                        14.000
 91  5 15 20 46 29.9960000  0  4G19G 2G 6G11
  21397995.121     1634500.399 5     89341.28921         8.250           0.094
  19683846.707    -5951195.582 7    -69847.11421        24.000           0.438
  20534720.746     -998864.567 6   -128053.88321        16.500           0.375
  23390049.699      913787.695 6                        12.500
 91  5 15 20 46 44.9960000  0  4G19G 2G 6G11
  21402391.043     1657591.020 5    107333.86421         8.500           0.156
  19681048.379    -5965891.047 7    -81298.13321        22.250           0.500
  20528485.207    -1031645.724 6   -153597.62921        16.500           0.219
  23396145.949      945795.941 5                        11.250
 91  5 15 20 46 59.9960000  0  4G19G 2G 6G11
  21406791.777     1680730.351 5    125364.46821         9.000           0.031
  19678264.481    -5980521.592 7    -92698.57221        23.000           0.469
  20522254.918    -1064402.378 6   -179122.30321        17.750           0.250
  23402253.535      977890.507 5                        11.750
 91  5 15 20 47 14.9960000  0  4G19G 2G 6G11
  21411206.996     1703927.696 5    143440.26521         9.250           0.125
  19675495.637    -5995077.887 7   -104041.09421        24.500           0.531
  20516024.684    -1097124.895 6   -204620.31121        17.750           0.219
  23408374.551     1010080.449 5                        11.500
 91  5 15 20 47 29.9960000  0  4G19G 2G 6G11
  21415624.887     1727178.972 5    161558.06021         8.000           0.094
  19672741.051    -6009564.111 7   -115329.07021        23.250           0.438
  20509808.996    -1129817.279 6   -230094.87721        18.500           0.281
  23414520.270     1042361.351 5                        11.250
 91  5 15 20 47 44.9960000  0  4G19G 2G 6G11
  21420063.238     1750486.865 5                         8.000
  19669998.613    -6023977.636 7   -126560.39321        23.750           0.438
  20503586.387    -1162476.718 6   -255543.76521        16.750           0.219
  23420676.895     1074735.463 5                        10.250
 91  5 15 20 47 59.9960000  0  4G19G 2G 6G11
  21424505.996     1773856.177 5                         7.500
  19667268.981    -6038313.906 7   -137731.53321        22.500           0.469
  20497382.066    -1195098.448 6   -280963.29521        17.250           0.250
  23426853.441     1107207.063 5                         8.750
 91  5 15 20 48 14.9960000  0  4G19G 2G 6G11
  21428967.691     1797279.252 5                         8.500
  19664555.363    -6052580.646 7   -148848.46721        26.750           0.344
  20491180.465    -1227689.894 6   -306359.20021        19.500           0.219
  23433051.152     1139768.243 5                        10.000
 91  5 15 20 48 29.9960000  0  4G19G 2G 6G11
  21433443.949     1820762.527 5                         8.500
  19661851.160    -6066771.206 7   -159906.07021        26.000           0.406
  20484983.660    -1260244.384 6   -331726.33821        19.000           0.188
  23439266.840     1172425.230 5                         9.500
 91  5 15 20 48 44.9960000  0  4G19G 2G 6G11
  21437919.746     1844301.856 5                         7.500
  19659163.621    -6080889.965 7   -170907.71021        20.000           0.344
  20478795.168    -1292765.887 6   -357067.79521        15.000           0.094
  23445495.715     1205173.515 5                         7.750
 91  5 15 20 48 59.9960000  0  4G19G 2G 6G11
  21442408.465     1867896.385 5                         8.250
  19656491.074    -6094938.018 7   -181854.19621        23.500           0.375
  20472614.527    -1325255.299 6   -382384.14421        19.000           0.156
  23451754.684     1238011.737 5                        11.500
 91  5 15 20 49 14.9960000  0  4G19G 2G 6G11
  21446911.129     1891546.229 5                         9.000
  19653835.027    -6108914.973 7   -192745.35021        23.750           0.406
  20466436.285    -1357712.212 6   -407675.24821        17.000           0.219
  23458015.363     1270939.937 5                        11.750
 91  5 15 20 49 29.9960000  0  4G19G 2G 6G11
  21451417.504     1915255.089 5                         8.750
  19651189.973    -6122817.340 7   -203578.34621        24.750           0.469
  20460270.918    -1390132.792 6   -432938.02621        19.500           0.375
  23464309.426     1303961.413 6                        12.750
 91  5 15 20 49 44.9960000  0  4G19G 2G 6G11
  21455942.504     1939020.128 5                         9.500
  19648557.473    -6136647.948 7   -214355.44821        27.250           0.406
  20454106.895    -1422519.763 7   -458174.59921        20.500           0.125
  23470603.418     1337072.862 5        -0.29931        11.500           0.094
 91  5 15 20 49 59.9960000  0  4G19G 2G 6G11
  21460476.496     1962846.810 5                        10.250
  19645939.363    -6150401.323 7   -225072.33521        27.000           0.563
  20447950.106    -1454867.472 6   -483380.57921        19.500           0.219
  23476918.012     1370279.471 5     25874.87921        10.500           0.094
 91  5 15 20 50 14.9960000  0  4G19G 2G 6G11
  21465019.793     1986726.199 5                         8.750
  19643332.707    -6164086.599 7   -235736.19121        26.250           0.563
  20441801.059    -1487184.789 7   -508562.87521        21.750           0.250
  23483251.918     1403571.927 5                        10.750
 91  5 15 20 50 29.9960000  0  4G19G 2G 6G11
  21469579.059     2010655.893 5                         9.000
  19640740.973    -6177706.307 7   -246348.96821        26.250           0.531
  20435655.738    -1519473.804 7   -533723.13521        21.500           0.344
  23489604.215     1436947.625 5                        11.250
 91  5 15 20 50 44.9960000  0  4G19G 2G 6G11
  21474140.613     2034646.191 5                         8.000
  19638166.090    -6191250.191 7   -256902.64621        26.500           0.500
  20429517.316    -1551724.220 7   -558853.32521        20.250           0.281
  23495982.371     1470416.433 5                        11.500
 91  5 15 20 50 59.9960000  0  3G19G 2G 6
  21478715.098     2058695.384 5                         8.500
  19635605.066    -6204719.889 7   -267398.49721        26.500           1.125
  20423388.168    -1583937.520 7   -583954.57321        20.500           0.875
 91  5 15 20 51 14.9960000  0  3G19G 2G 6
  21483304.723     2082797.111 3                         6.000
  19633053.207    -6218121.744 6   -277841.47121        19.250           0.844
  20417261.582    -1616119.744 6   -609031.59321        13.500           0.625
 91  5 15 20 51 29.9960000  0  1G 2
  19630515.379    -6231453.788 6   -288230.04021        18.500           0.969
 91  5 15 20 51 44.9960000  0  2G 2G 6
  19627991.699    -6244715.150 5                         8.250
  20405037.184          -0.11714                         7.000
 91  5 15 20 51 59.9960000  0  2G 2G 6
  19625481.410    -6257902.408 7                        24.250
  20398928.348      -32076.622 6                        19.000
 91  5 15 20 52 14.9960000  0  3G19G 2G 6
  21501757.137       24327.003 2                         4.500
  19622986.410    -6271018.489 6                        17.250
  20392836.426      -64117.712 6                        13.750
 91  5 15 20 52 29.9960000  0  3G19G 2G 6
  21506397.934       48707.188 4                         7.000
  19620504.738    -6284067.234 7        -0.10131        26.500           0.375
  20386740.231      -96127.118 6                        18.750
 91  5 15 20 52 44.9960000  0  3G19G 2G 6
  21511045.949       73147.471 5                         8.000
  19618036.574    -6297040.917 8    -10109.44822        29.500           2.156
  20380659.238     -128096.966 6                        19.250
 91  5 15 20 52 59.9960000  0  3G19G 2G 6
  21515709.426       97642.838 5                         7.750
  19615582.059    -6309944.947 8    -20164.50721        28.750           0.375
  20374584.324     -160031.995 7        -0.03931        21.500           0.313
 91  5 15 20 53 14.9960000  0  3G19G 2G 6
  21520377.356      122191.815 3                         5.750
  19613136.402    -6322780.698 6    -30166.39921        19.500           0.281
  20368507.324     -191933.793 6    -24858.58221        14.750           0.250
 91  5 15 20 53 29.9960000  0  3G19G 2G 6
  21525057.746      146795.022 1                         3.250
  19610706.395    -6335547.473 5                        11.000
  20362446.520     -223801.442 5                         8.750
 91  5 15 20 53 44.9960000  0  2G 2G 6
  19608290.410    -6348245.921 6                        12.750
  20356388.160     -255635.331 5                        10.750
 91  5 15 20 53 59.9960000  0  3G19G 2G 6
  21534455.348          -0.40612                         3.750
  19605887.957    -6360877.355 5                        11.250
  20350335.098     -287436.529 5                         8.000
 91  5 15 20 54 14.9960000  0  3G19G 2G 6
  21539166.566       24762.127 4                         7.000
  19603498.481    -6373441.461 7                        22.000
  20344294.731     -319204.436 6                        16.000
 91  5 15 20 54 29.9960000  0  3G19G 2G 6
  21543893.152       49585.303 5                         9.500
  19601120.848    -6385930.324 8                        29.000
  20338253.106     -350931.107 7                        20.750
 91  5 15 20 54 44.9960000  0  3G19G 2G 6
  21548627.871       74467.230 5                         9.250
  19598755.348    -6398346.179 7                        27.500
  20332222.481     -382618.198 6                        19.500
 91  5 15 20 54 59.9960000  0  3G19G 2G 6
  21553366.738       99407.138 5        -0.29331         7.750           0.500
  19596406.340    -6410689.822 7        -0.47732        27.250           2.125
  20326202.973     -414266.478 7        -0.19231        20.250           1.375
 91  5 15 20 55 14.9960000  0  3G19G 2G 6
  21558129.051      124408.727 5     19481.39221         8.750           0.406
  19594072.449    -6422957.573 7     -9559.76322        27.250           2.219
  20320187.356     -445871.984 7    -24627.84921        20.500           1.375
 91  5 15 20 55 29.9960000  0  3G19G 2G 6
  21562896.254      149457.500 5     38999.84521         8.250           0.250
  19591752.254    -6435163.851 7    -19071.14921        24.500           0.375
  20314174.527     -477448.968 6    -49233.26721        16.000           0.250
 91  5 15 20 55 44.9960000  0  3G19G 2G 6
  21567672.590      174567.331 5     58565.88121         8.750           0.281
  19589445.277    -6447295.052 8    -28524.02422        28.500           2.000
  20308177.316     -508983.458 6    -73805.57721        18.750           1.375
 91  5 15 20 55 59.9960000  0  3G19G 2G 6
  21572461.043      199742.669 5     78182.95521         8.000           0.344
  19587152.035    -6459346.833 8    -37915.02022        30.250           2.219
  20302186.270     -540470.985 7    -98341.29322        20.250           1.563
 91  5 15 20 56 14.9960000  0  3G19G 2G 6
  21577265.520      224973.613 5     97843.35521         8.000           0.344
  19584868.488    -6471328.990 8    -47251.77422        28.500           2.344
  20296201.316     -571921.069 6   -122847.84522        19.750           1.500
 91  5 15 20 56 29.9960000  0  3G19G 2G 6
  21582076.809      250256.635 5    117544.39421         7.500           0.313
  19582601.809    -6483245.013 8    -56536.98422        28.250           1.906
  20290226.098     -603336.929 7   -147327.71621        20.750           1.438
 91  5 15 20 56 44.9960000  0  3G19G 2G 6
  21586899.309      275598.046 5    137290.89821         9.250           0.250
  19580345.590    -6495088.735 8    -65765.86022        28.250           1.563
  20284250.543     -634712.340 6   -171776.05721        19.500           1.219
 91  5 15 20 56 59.9960000  0  3G19G 2G 6
  21591730.816      300995.792 5    157081.25521         9.250           0.188
  19578106.426    -6506862.365 7    -74940.09622        27.250           1.719
  20278287.988     -666049.054 6   -196194.27421        19.750           1.250
 91  5 15 20 57 14.9960000  0  3G19G 2G 6
  21596574.848      326452.775 4    176917.77021         7.000           0.031
  19575878.449    -6518563.005 7    -84057.47821        22.250           0.031
  20272334.645     -697344.055 6   -220579.95621        16.750           0.031
 91  5 15 20 57 29.9960000  0  3G19G 2G 6
  21601429.613      351961.945 5    196794.96021         8.000           0.156
  19573666.301    -6530197.759 7    -93123.50822        27.000           1.719
  20266386.496     -728604.146 6   -244938.45521        19.000           1.469
 91  5 15 20 57 44.9960000  0  3G19G 2G 6
  21606290.246      377522.579 5    216712.24021         7.500           0.063
  19571463.113    -6541767.259 7   -102138.70622        27.000           1.875
  20260445.426     -759829.837 7   -269270.15122        20.500           1.625
 91  5 15 20 57 59.9960000  0  3G19G 2G 6
  21611172.840      403144.203 5                         8.000
  19569277.434    -6553262.378 7   -111095.96221        27.500           0.125
  20254508.598     -791011.542 6   -293567.54821        18.250           0.031
 91  5 15 20 58 14.9960000  0  3G19G 2G 6
  21616059.473      428824.655 5                         7.750
  19567103.527    -6564685.251 7                        24.750
  20248581.121     -822151.292 6                        17.000
 91  5 15 20 58 29.9960000  0  3G19G 2G 6
  21620952.957      454566.206 4                         6.500
  19564943.824    -6576033.567 7                        22.750
  20242668.356     -853246.545 6                        17.500
 91  5 15 20 58 44.9960000  0  3G19G 2G 6
  21625869.973      480362.797 4                         6.750
  19562798.293    -6587313.364 7                        24.250
  20236756.918     -884303.224 6                        17.000
 91  5 15 20 58 59.9960000  0  3G19G 2G 6
  21630787.965      506218.844 4                         6.250
  19560664.981    -6598520.231 7                        24.250
  20230854.809     -915316.651 6                        18.250
 91  5 15 20 59 14.9960000  0  3G19G 2G 6
  21635719.426      532127.943 3                         5.250
  19558544.332    -6609660.554 7                        21.500
  20224961.816     -946292.903 6                        16.250
 91  5 15 20 59 29.9960000  0  3G19G 2G 6
  21640662.785      558097.420 2                         4.500
  19556437.277    -6620727.126 6                        16.500
  20219073.113     -977224.446 5                        11.500
 91  5 15 20 59 44.9960000  0  3G19G 2G 6
  21645616.629      584131.790 3                         5.750
  19554347.551    -6631715.688 7                        20.500
  20213195.395    -1008106.785 6                        14.250
 91  5 15 20 59 59.9960000  0  3G19G 2G 6
  21650576.832      610217.769 3                         5.750
  19552271.199    -6642639.283 7                        20.000
  20207332.856    -1038952.928 6                        14.750
 91  5 15 21  0 14.9960000  0  3G19G 2G 6
  21655547.684      636364.634 3                         5.250
  19550206.832    -6653488.807 7                        20.500
  20201463.965    -1069753.459 6                        13.000
 91  5 15 21  0 29.9960000  0  3G19G 2G 6
  21660537.434      662568.518 5                         8.250
  19548155.566    -6664268.316 8                        29.500
  20195610.207    -1100512.129 6                        19.750
 91  5 15 21  0 44.9960000  0  3G19G 2G 6
  21665537.152      688835.209 5                         8.500
  19546117.199    -6674971.939 8                        28.000
  20189771.691    -1131222.702 6                        19.750
 91  5 15 21  0 59.9960000  0  3G19G 2G 6
  21670542.074      715158.720 4                         7.000
  19544092.996    -6685605.860 7                        27.500
  20183935.059    -1161891.276 7                        21.250
 91  5 15 21  1 14.9960000  0  3G19G 2G 6
  21675565.145      741539.893 5                         7.750
  19542082.856    -6696169.238 7                        27.250
  20178104.090    -1192516.733 7                        20.500
 91  5 15 21  1 29.9960000  0  3G19G 2G 6
  21680601.020      767983.336 4                         7.250
  19540088.590    -6706657.450 7                        26.000
  20172284.863    -1223094.255 6                        18.750
 91  5 15 21  1 44.9960000  0  3G19G 2G 6
  21685640.121      794482.940 4                         6.250
  19538105.981    -6717076.815 8        -0.03132        28.500           2.344
  20166475.363    -1253629.715 7        -0.00732        20.500           1.813
 91  5 15 21  1 59.9960000  0  3G19G 2G 6
  21690691.793      821041.382 4                         7.000
  19536138.215    -6727424.833 8     -8063.41923        30.250           2.844
  20160673.020    -1284120.381 7    -23758.96322        22.500           1.969
 91  5 15 21  2 14.9960000  0  3G19G 2G 6
  21695761.324      847653.873 5        -0.02631         8.000           0.375
  19534179.723    -6737705.910 8    -16074.65322        29.000           2.469
  20154878.168    -1314570.669 7    -47486.43122        21.250           1.813
 91  5 15 21  2 29.9960000  0  3G19G 2G 6
  21700832.910      874328.775 4     20785.57921         7.250           0.219
  19532237.676    -6747911.776 7    -24027.28022        27.500           2.344
  20149096.434    -1344971.924 7    -71175.71722        23.250           1.906
 91  5 15 21  2 44.9960000  0  3G19G 2G 6
  21705918.996      901067.887 3     41621.17021         6.000           0.094
  19530308.059    -6758040.789 7    -31920.02522        26.500           2.125
  20143320.965    -1375322.361 7    -94825.38522        23.000           1.500
 91  5 15 21  2 59.9960000  0  3G19G 2G 6
  21711019.082      927860.629 4     62498.52621         6.500           0.094
  19528393.473    -6768103.552 7    -39761.15821        27.000           0.938
  20137552.926    -1405632.181 7   -118443.42321        22.500           0.813
 91  5 15 21  3 14.9960000  0  3G19G 2G 6
  21716130.660      954709.695 5     83419.90621         7.750           0.250
  19526493.621    -6778097.401 7    -47548.56422        27.000           1.625
  20131792.191    -1435898.475 7   -142027.52321        22.500           1.375
 91  5 15 21  3 29.9960000  0  3G19G 2G 6
  21721248.965      981619.548 5    104388.48321         8.750           0.219
  19524606.699    -6788018.027 7    -55278.93122        25.500           1.500
  20126043.645    -1466116.710 7   -165574.19421        21.500           0.781
 91  5 15 21  3 44.9960000  0  3G19G 2G 6
  21726383.887     1008582.363 5    125398.40321        10.250           0.313
  19522732.191    -6797873.047 7    -62958.14822        27.500           1.906
  20120300.113    -1496294.229 7   -189089.10022        21.250           1.688
 91  5 15 21  3 59.9960000  0  3G19G 2G 6
  21731522.285     1035599.097 5    146450.29221        11.250           0.344
  19520866.606    -6807661.692 7    -70585.66222        26.500           2.313
  20114566.941    -1526430.085 7   -212571.58422        25.000           1.781
 91  5 15 21  4 14.9960000  0  3G19G 2G 6
  21736674.262     1062672.167 5    167546.11321         9.500           0.219
  19519016.848    -6817381.732 7    -78159.73321        24.500           1.031
  20108837.707    -1556521.766 7   -236019.61721        21.250           1.000
 91  5 15 21  4 29.9960000  0  3G19G 2G 6
  21741840.231     1089809.223 5    188691.79021         9.750           0.344
  19517181.996    -6827025.436 7    -85674.32022        25.500           2.125
  20103121.168    -1586561.205 7   -259426.98722        22.750           1.656
 91  5 15 21  4 44.9960000  0  3G19G 2G 6
  21747015.715     1117009.278 5    209886.60521         9.000           0.344
  19515362.113    -6836593.966 7    -93130.30022        25.250           2.281
  20097417.809    -1616549.473 7   -282794.43622        25.500           1.781
 91  5 15 21  4 59.9960000  0  3G19G 2G 6
  21752204.176     1144267.228 5    231126.48521         9.750           0.406
  19513554.387    -6846092.447 7   -100531.71622        26.750           2.125
  20091717.660    -1646491.287 7   -306125.68722        22.750           1.781
 91  5 15 21  5 14.9960000  0  3G19G 2G 6
  21757401.801     1171580.832 5    252409.72421        10.500           0.438
  19511758.777    -6855523.048 7   -107880.24022        27.000           2.000
  20086027.676    -1676388.653 7   -329422.34022        23.250           1.750
 91  5 15 21  5 29.9960000  0  3G19G 2G 6
  21762612.473     1198955.440 5                        10.250
  19509978.465    -6864880.373 7   -115171.69222        27.000           1.781
  20080348.652    -1706236.013 7   -352680.02522        23.500           1.563
 91  5 15 21  5 44.9960000  0  3G19G 2G 6
  21767829.504     1226382.701 5                         8.500
  19508207.090    -6874172.880 6                        19.750
  20074676.809    -1736041.404 6                        16.250
 91  5 15 21  5 59.9960000  0  3G19G 2G 6
  21773062.418     1253873.930 5                        11.000
  19506456.160    -6883389.443 7                        26.500
  20069015.926    -1765793.425 7                        20.750
